     2              OBSERVATION DATA    GPS                 RINEX VERSION / TYPE
teqc 1999Jul19 19991123 02:51:15UTC                         PGM / RUN BY / DATE
                                                            COMMENT
Original Marker Name: 0222                                  COMMENT
Campaign Name: HPGN 1991                                    COMMENT
4-Character Station Name: 0222                              COMMENT
6-Character Antenna Code: TRMSST                            COMMENT
Vertical Measurement Point: BPA                             COMMENT
Vertical Offset to Rinex Ref. Point: 0.0000                 COMMENT
Radial Measurement Point: RRP                               COMMENT
Radial Offset to Rinex Ref. Point: 0.0000                   COMMENT
Antenna Height from Field Measurement: 2.2200 m             COMMENT
                                                            COMMENT
Original XYZ: -2602869.4055 -4129461.4726 4091617.2552      COMMENT
New XYZ position is based on association with SCEC monument COMMENT
E1O6J6K8+0011. Position of that monument is believed to be  COMMENT
valid to within 1 m horizontally; vertical accuracy         COMMENT
should be no worse than 3-times this value.                 COMMENT
                                                            COMMENT
Revised Rinex header created by UCSD GPS archive for        COMMENT
GSAC on 10-Mar-2000 (2000:070) 04:47:46 GMT                 COMMENT
For assistance contact dagnew@ucsd.edu or hjohnson@ucsd.edu COMMENT
                                                            COMMENT
HPGN CA 02 22                                               MARKER NAME
0222                                                        MARKER NUMBER
-Unknown- CALIF DEPT TRANSPORTATION                         OBSERVER / AGENCY
423 TRIMBLE 4000 SST NP 4.30 / SP 4.20                      REC # / TYPE / VERS
106 TR 4000SST L1/L2 GEO                                    ANT # / TYPE
 -2602871.9753 -4129455.5586  4091614.0755                  APPROX POSITION XYZ
        2.2200        0.0000        0.0000                  ANTENNA: DELTA H/E/N
     1     1     0                                          WAVELENGTH FACT L1/2
     5    C1    L1    L2    S1    S2                        # / TYPES OF OBSERV
     0                                                      INTERVAL
  1991     7    26     0    32   15.000000                  TIME OF FIRST OBS
  1991     7    26     6    36   30.000000                  TIME OF LAST OBS
                                                            END OF HEADER
 91  7 26  0 32 15.0000000  0  4G 3G16G17G20
  20643223.305     -326833.598 7        -0.31532        24.500           2.406
  22100525.344          -0.38117        -0.45032        21.500           1.719
  21047576.539          -0.19217        -0.04633        23.000           2.750
  22732073.617          -0.80316        -0.03931        16.500           1.031
 91  7 26  0 32 30.0000000  0  4G 3G16G17G20
  20633571.000     -377552.414 7    -39521.46123        24.750           2.531
  22099681.609       -4428.120 7     -3450.63922        21.250           1.813
  21036222.953      -59665.315 7    -46492.32123        23.000           2.875
  22734980.617       15282.849 6     11909.23421        16.000           1.000
 91  7 26  0 32 45.0000000  0  4G 3G16G17G20
  20623923.414     -428256.987 7    -79031.49823        24.500           2.594
  22098850.289       -8801.107 7     -6858.16822        22.500           1.813
  21024873.156     -119306.725 7    -92966.11623        22.500           2.719
  22737890.125       30568.288 6     23819.87821        15.000           1.000
 91  7 26  0 33  0.0000000  0  4G 3G16G17G20
  20614279.906     -478935.450 7   -118521.19322        24.500           2.313
  22098031.164      -13107.899 7    -10214.12022        22.000           1.500
  21013529.953     -178913.048 7   -139412.57323        22.250           2.531
  22740802.492       45866.624 6     35740.57921        15.500           0.875
 91  7 26  0 33 15.0000000  0  4G 3G16G17G20
  20604641.484     -529585.420 7   -157988.68623        24.750           2.656
  22097224.633      -17346.599 7    -13517.00222        22.250           1.906
  21002193.383     -238482.026 7   -185829.93423        22.250           3.031
  22743715.945       61179.818 6     47672.86421        16.250           1.156
 91  7 26  0 33 30.0000000  0  4G 3G16G17G20
  20595009.414     -580204.313 7   -197431.96323        24.250           2.594
  22096432.188      -21514.918 7    -16765.05422        22.250           1.969
  20990866.484     -298011.093 7   -232216.19023        22.750           2.938
  22746635.406       76509.905 6     59618.30221        16.250           1.094
 91  7 26  0 33 45.0000000  0  4G 3G16G17G20
  20585381.359     -630795.279 7   -236853.47623        24.750           2.688
  22095651.094      -25616.825 7    -19961.34722        21.500           1.938
  20979544.594     -357503.825 7   -278574.14223        22.500           2.906
  22749553.094       91853.116 6     71573.96821        16.000           0.969
 91  7 26  0 34  0.0000000  0  4G 3G16G17G20
  20575760.742     -681353.905 7   -276249.79023        24.500           2.563
  22094883.867      -29648.267 7    -23102.74422        21.250           1.875
  20968232.555     -416955.973 7   -324900.46223        22.500           3.031
  22752476.094      107213.174 6     83542.76721        15.750           0.938
 91  7 26  0 34 15.0000000  0  4G 3G16G17G20
  20566146.328     -731874.665 7   -315616.60323        24.750           2.563
  22094128.813      -33604.053 7    -26185.18322        21.000           1.906
  20956927.484     -476361.991 7   -371190.84323        22.500           3.031
  22755404.320      122595.235 6     95528.72121        15.750           1.000
 91  7 26  0 34 30.0000000  0  4G 3G16G17G20
  20556540.078     -782355.937 7   -354952.64122        24.500           2.438
  22093392.297      -37483.124 7    -29207.84322        21.500           1.813
  20945632.414     -535720.776 7   -417444.42423        23.250           2.969
  22758334.117      138000.257 6    107532.54421        14.750           1.031
 91  7 26  0 34 45.0000000  0  4G 3G16G17G20
  20546941.625     -832795.021 7   -394255.80723        24.500           2.563
  22092670.180      -41283.344 7    -32169.06122        21.500           1.906
  20934343.594     -595029.616 7   -463659.07923        22.500           3.031
  22761269.563      153430.251 6    119555.83521        15.750           0.906
 91  7 26  0 35  0.0000000  0  4G 3G16G17G20
  20537352.523     -883192.234 7   -433526.35523        24.750           2.531
  22091961.266      -45005.265 7    -35069.26422        21.500           1.938
  20923069.492     -654288.901 7   -509835.12323        23.000           2.969
  22764211.070      168884.677 6    131598.17121        15.000           1.031
 91  7 26  0 35 15.0000000  0  4G 3G16G17G20
  20527769.484     -933550.515 7   -472766.56023        24.750           2.531
  22091267.336      -48652.690 7    -37911.42622        21.750           1.938
  20911802.609     -713502.127 7   -555975.27723        23.250           3.063
  22767155.414      184359.661 6    143656.51821        14.500           1.000
 91  7 26  0 35 29.9990000  0  5G 3G16G17G20G23
  20518194.987     -983862.889 7   -511970.99222        24.250           2.469
  22090588.933      -52221.906 7    -40692.64022        21.750           1.938
  20900543.105     -772661.516 7   -602073.48023        23.250           3.031
  22770107.331      199857.549 6    155732.70421        15.250           0.844
  24161204.597          -0.24115                         8.250
 91  7 26  0 35 44.9990000  0  5G 3G16G17G20G23
  20508628.909    -1034135.927 7   -551144.77323        24.250           2.594
  22089924.440      -55713.936 7    -43413.70322        21.750           1.688
  20889295.386     -831775.170 7   -648136.03923        23.500           3.094
  22773057.894      215379.874 6    167827.94621        14.750           0.844
  24143825.706      -91310.259 5                         8.500
 91  7 26  0 35 59.9990000  0  5G 3G16G17G20G23
  20499069.862    -1084365.790 7   -590284.92022        25.000           2.438
  22089274.612      -59128.566 7    -46074.46622        21.250           1.875
  20878056.370     -890839.050 7   -694159.82123        23.000           3.094
  22776017.628      230925.440 6    179941.29421        15.000           0.813
  24126448.901     -182625.027 5                         8.250
 91  7 26  0 36 14.9990000  0  5G 3G16G17G20G23
  20489519.206    -1134553.033 7   -629391.84822        25.000           2.438
  22088639.401      -62466.910 7    -48675.78022        21.250           1.844
  20866824.784     -949853.607 7   -740145.16423        22.750           3.125
  22778978.362      246493.293 6    192072.01821        14.250           0.875
  24109073.058     -273944.973 5                         8.000
 91  7 26  0 36 29.9990000  0  5G 3G16G17G20G23
  20479978.956    -1184691.734 7   -668460.95422        24.750           2.406
  22088019.120      -65723.223 7    -51213.18422        21.250           1.844
  20855603.651    -1008813.300 7   -786087.75623        22.250           3.063
  22781947.878      262088.593 6    204224.10821        15.000           0.844
  24091694.706     -365264.205 5                         8.250
 91  7 26  0 36 44.9990000  0  5G 3G16G17G20G23
  20470445.878    -1234786.632 7   -707495.92823        25.500           2.500
  22087413.995      -68903.296 7    -53691.17422        21.000           1.875
  20844395.042    -1067723.451 7   -831991.74923        22.500           3.063
  22784920.284      277705.891 6    216393.33721        14.750           0.844
  24074317.933     -456587.434 5                         7.750
 91  7 26  0 36 59.9990000  0  5G 3G16G17G20G23
  20460919.925    -1284839.594 7   -746498.22022        25.000           2.406
  22086821.901      -72008.882 7    -56111.12122        21.500           1.781
  20833193.933    -1126585.548 7   -877858.29123        22.250           2.750
  22787895.847      293343.276 6    228578.23321        14.750           0.688
  24056939.495     -547915.969 5        -0.38031         8.250           0.250
 91  7 26  0 37 14.9990000  0  5G 3G16G17G20G23
  20451404.940    -1334850.672 7   -785467.87922        24.750           2.063
  22086246.355      -75040.751 7    -58473.62622        21.500           1.500
  20822001.769    -1185400.043 7   -923687.74923        22.500           2.500
  22790876.011      308999.671 6    240777.95421        15.000           0.656
  24039559.253     -639250.084 5    -71169.50121         8.500           0.219
 91  7 26  0 37 29.9990000  0  5G 3G16G17G20G23
  20441897.159    -1384821.168 7   -824405.91922        24.750           2.438
  22085684.917      -78000.698 7    -60780.08922        22.000           1.844
  20810818.347    -1244168.327 7   -969481.18823        22.750           3.031
  22793858.995      324673.421 6    252991.17721        15.000           0.750
  24022174.894     -730590.906 5   -142343.89321         8.250           0.281
 91  7 26  0 37 44.9990000  0  5G 3G16G17G20G23
  20432392.651    -1434753.735 7   -863314.39723        24.500           2.563
  22085132.362      -80892.198 7    -63033.21022        22.000           1.625
  20799644.417    -1302893.628 7  -1015241.14323        22.500           3.094
  22796843.417      340361.111 6    265215.27121        14.000           0.781
  24004794.495     -821941.381 5   -213525.80321         8.250           0.313
 91  7 26  0 37 59.9990000  0  5G 3G16G17G20G23
  20422899.855    -1484642.991 7   -902189.13323        24.750           2.563
  22084596.425      -83710.042 7    -65228.94722        22.000           1.719
  20788479.636    -1361570.248 7  -1060963.16023        23.000           3.031
  22799833.956      356067.690 6    277454.06721        14.750           0.813
  23987409.581     -913295.843 5   -284710.78421         7.750           0.406
 91  7 26  0 38 14.9990000  0  5G 3G16G17G20G23
  20413415.644    -1534489.905 7   -941030.86923        24.750           2.531
  22084074.917      -86455.556 7    -67368.31022        21.500           1.750
  20777319.112    -1420199.537 7  -1106648.29723        22.750           3.063
  22802825.401      371791.680 6    289706.44321        14.500           0.781
  23970024.042    -1004655.139 5   -355899.54121         7.750           0.313
 91  7 26  0 38 29.9990000  0  5G 3G16G17G20G23
  20403936.417    -1584298.258 7   -979842.56322        24.750           2.219
  22083564.831      -89133.110 7    -69454.72922        21.500           1.500
  20766172.261    -1478785.558 7  -1152299.72323        23.000           2.594
  22805821.605      387528.612 6    301968.91321        15.000           0.813
  23952635.831    -1096022.826 5   -427094.86821         7.500           0.344
 91  7 26  0 38 44.9990000  0  5G 3G16G17G20G23
  20394465.253    -1634068.422 7  -1018624.49622        25.000           2.094
  22083069.144      -91743.698 7    -71488.97322        21.750           1.563
  20755033.698    -1537329.082 7  -1197918.02222        23.500           2.281
  22808815.792      403277.609 6    314240.76321        14.000           0.688
  23935247.737    -1187399.402 5   -498297.09621         8.000           0.313
 91  7 26  0 38 59.9990000  0  5G 3G16G17G20G23
  20385002.714    -1683797.611 7  -1057374.50123        25.000           2.594
  22082585.526      -94284.789 7    -73469.05422        21.250           1.656
  20743897.800    -1595827.437 7  -1243501.13423        23.250           3.063
  22811815.815      419040.870 6    326523.73121        14.500           0.813
  23917854.370    -1278781.914 5   -569503.96121         7.500           0.406
 91  7 26  0 39 14.9990000  0  5G 3G16G17G20G23
  20375547.409    -1733482.945 7  -1096090.33322        24.750           2.406
  22082115.800      -96754.212 7    -75393.29322        21.500           1.844
  20732777.886    -1654277.800 7  -1289046.83723        23.750           3.000
  22814819.347      434820.772 6    338819.67421        14.500           0.750
  23900463.769    -1370167.568 4   -640713.27421         7.250           0.281
 91  7 26  0 39 29.9990000  0  5G 3G16G17G20G23
  20366100.401    -1783126.837 7  -1134773.87822        25.000           2.313
  22081657.878      -99154.892 7    -77263.96622        21.500           1.500
  20721665.175    -1712682.673 7  -1334557.10223        23.750           2.813
  22817824.776      450614.189 6    351126.14721        14.250           0.688
  23883073.917    -1461558.723 4   -711926.87121         7.250           0.375
 91  7 26  0 39 44.9990000  0  5G 3G16G17G20G23
  20356663.276    -1832728.236 7  -1173424.30323        25.000           2.563
  22081214.839     -101486.307 7    -79080.65622        21.250           1.781
  20710557.136    -1771041.422 7  -1380031.41723        23.750           3.188
  22820835.120      466421.505 6    363443.45621        14.250           0.750
  23865684.034    -1552954.362 5   -783143.97321         8.250           0.438
 91  7 26  0 39 59.9990000  0  5G 3G16G17G20G23
  20347230.933    -1882287.084 7  -1212041.57422        24.250           2.438
  22080783.628     -103748.607 7    -80843.49822        20.750           1.813
  20699462.534    -1829354.049 7  -1425469.81223        24.000           3.156
  22823845.651      482242.543 6    375771.44321        14.500           0.781
  23848294.167    -1644353.964 5   -854364.14821         8.500           0.469
 91  7 26  0 40 14.9990000  0  5G 3G16G17G20G23
  20337808.870    -1931798.857 7  -1250622.16623        24.500           2.625
  22080366.230     -105937.966 7    -82549.50122        20.750           1.781
  20688375.714    -1887616.106 7  -1470868.78123        23.750           3.094
  22826858.940      498081.173 6    388113.14421        13.750           0.781
  23830901.597    -1735753.030 5   -925583.91121         9.750           0.406
 91  7 26  0 40 29.9990000  0  5G 3G16G17G20G23
  20328395.855    -1981266.792 7  -1289168.59423        24.500           2.500
  22079963.151     -108058.436 7    -84201.82522        20.750           1.563
  20677295.667    -1945831.589 7  -1516231.46923        23.750           3.156
  22829876.339      513933.289 6    400465.35521        14.000           0.813
  23813504.300    -1827154.836 5   -996805.83721         9.250           0.469
 91  7 26  0 40 44.9990000  0  5G 3G16G17G20G23
  20318992.308    -2030685.961 7  -1327677.02323        24.750           2.594
  22079575.073     -110105.414 7    -85796.88322        20.500           1.688
  20666228.565    -2003995.514 7  -1561553.97623        24.000           3.281
  22832894.980      529803.400 6    412831.58621        13.500           0.813
  23796111.386    -1918554.095 5  -1068025.75121         9.250           0.344
 91  7 26  0 40 59.9990000  0  5G 3G16G17G20G23
  20309595.526    -2080060.521 7  -1366150.69623        24.750           2.688
  22079198.198     -112082.938 7    -87337.82322        21.000           1.625
  20655171.651    -2062112.044 7  -1606839.55723        24.000           3.313
  22835918.370      545686.832 6    425208.18721        13.750           0.844
  23778715.089    -2009955.167 5  -1139247.10621         8.500           0.344
 91  7 26  0 41 14.9990000  0  5G 3G16G17G20G23
  20300210.065    -2129387.567 7  -1404587.34623        25.000           2.656
  22078833.315     -113989.140 7    -88823.17822        20.750           1.594
  20644120.034    -2120178.522 7  -1652086.13323        24.000           3.281
  22838944.995      561585.931 6    437597.00621        13.500           0.625
  23761325.495    -2101355.040 5  -1210467.50521         9.000           0.375
 91  7 26  0 41 29.9990000  0  5G 3G16G17G20G23
  20290833.151    -2178664.714 7  -1442985.11023        25.000           2.625
  22078486.425     -115822.193 7    -90251.54822        21.000           1.500
  20633078.167    -2178193.035 7  -1697292.22623        23.500           3.219
  22841971.292      577502.607 6    449999.52721        13.500           0.813
  23743933.042    -2192751.389 5  -1281685.17921         9.500           0.281
 91  7 26  0 41 44.9990000  0  5G 3G16G17G20G23
  20281463.136    -2227892.873 7  -1481344.70423        24.500           2.594
  22078151.636     -117583.353 7    -91623.88122        21.750           1.688
  20622051.214    -2236156.535 7  -1742458.55623        24.000           3.188
  22845002.800      593435.461 6    462414.65321        12.500           0.750
  23726541.737    -2284144.793 5  -1352900.58021        10.000           0.375
 91  7 26  0 41 59.9990000  0  5G 3G16G17G20G23
  20272105.222    -2277079.558 7  -1519671.98123        24.500           2.625
  22077828.776     -119280.936 7    -92946.67922        21.000           1.688
  20611028.042    -2294076.732 7  -1787591.15023        23.250           3.125
  22848036.972      609375.812 6    474835.60721        13.000           0.875
  23709150.097    -2375543.070 5  -1424119.77121        10.000           0.281
 91  7 26  0 42 14.9990000  0  5G 3G16G17G20G23
  20262753.730    -2326222.891 7  -1557965.47623        24.750           2.594
  22077518.089     -120913.416 7    -94218.75622        20.750           1.688
  20600013.620    -2351951.944 7  -1832688.68723        23.250           3.125
  22851071.980      625325.300 6    487263.68221        13.750           0.781
  23691758.519    -2466944.058 5  -1495341.06121         9.750           0.344
 91  7 26  0 42 29.9990000  0  5G 3G16G17G20G23
  20253410.847    -2375317.220 7  -1596220.78923        24.750           2.563
  22077220.886     -122475.427 7    -95435.91822        20.750           1.781
  20589009.073    -2409776.664 7  -1877746.88223        23.250           3.281
  22854111.925      641289.363 6    499703.13221        13.500           0.531
  23674363.925    -2558341.911 5  -1566559.89221         9.250           0.344
 91  7 26  0 42 44.9990000  0  5G 3G16G17G20G23
  20244103.401    -2424231.805 7  -1634336.53523        24.750           2.531
  22076960.417     -123836.905 7    -96497.31122        20.500           1.688
  20578041.847    -2467420.656 7  -1922664.74823        24.000           3.250
  22857176.565      657397.827 6    512254.59121        13.750           0.781
  23656994.870    -2649606.048 5  -1637675.06221         9.750           0.281
 91  7 26  0 42 59.9990000  0  5G 3G16G17G20G23
  20234785.026    -2473196.074 7  -1672490.00523        24.750           2.625
  22076697.276     -125227.872 7    -97580.69022        20.750           1.813
  20567062.823    -2525113.239 7  -1967619.47823        23.500           2.906
  22860222.925      673420.935 6    524740.53321        13.500           0.750
  23639612.597    -2740965.569 5  -1708863.57621         9.750           0.375
 91  7 26  0 43 14.9990000  0  5G 3G16G17G20G23
  20225476.167    -2522120.719 7  -1710613.09523        25.500           2.531
  22076442.737     -126559.363 7    -98618.23222        20.500           1.844
  20556093.855    -2582765.496 7  -2012543.28623        23.750           3.125
  22863277.308      689447.397 6    537228.58521        13.750           0.750
  23622228.323    -2832331.101 5  -1780057.21721         9.750           0.250
 91  7 26  0 43 29.9990000  0  5G 3G16G17G20G23
  20216171.511    -2571006.628 7  -1748706.00223        25.000           2.563
  22076201.800     -127832.621 7    -99610.38722        20.250           1.781
  20545128.456    -2640378.285 7  -2057436.33523        23.750           3.094
  22866326.487      705475.719 6    549718.08921        13.500           0.719
  23604837.425    -2923703.529 5  -1851256.25021         9.500           0.375
 91  7 26  0 43 44.9990000  0  5G 3G16G17G20G23
  20206878.690    -2619851.008 7  -1786766.55123        25.500           2.656
  22075970.386     -129045.814 7   -100555.73922        20.000           1.688
  20534172.081    -2697949.233 7  -2102296.78723        23.750           3.094
  22869375.011      721507.706 6    562210.46221        13.250           0.563
  23587447.558    -3015080.277 5  -1922458.67421         9.000           0.313
 91  7 26  0 43 59.9990000  0  5G 3G16G17G20G23
  20197590.081    -2668654.162 7  -1824794.97423        25.250           2.625
  22075751.128     -130199.315 7   -101454.58322        20.250           1.656
  20523227.222    -2755479.005 7  -2147125.15023        24.000           3.063
  22872427.769      737542.768 6    574705.21121        13.500           0.656
  23570056.331    -3106461.350 5  -1993664.46621         9.250           0.281
 91  7 26  0 44 14.9990000  0  5G 3G16G17G20G23
  20188308.573    -2717432.927 7  -1862804.39223        25.000           2.563
  22075540.081     -131310.691 7   -102320.59422        20.750           1.625
  20512282.565    -2812984.451 7  -2191934.56123        24.250           3.188
  22875473.636      753563.438 6    587188.75321        13.000           0.750
  23552666.706    -3197863.577 5  -2064886.75421         9.750           0.250
 91  7 26  0 44 29.9990000  0  5G 3G16G17G20G23
  20179043.675    -2766125.429 7  -1900746.59023        25.250           2.656
  22075348.128     -132318.619 6   -103105.99922        19.750           1.625
  20501355.480    -2870404.076 7  -2236677.10323        23.750           3.188
  22878533.355      769631.100 6    599708.89821        13.250           0.719
  23535281.519    -3289225.022 5  -2136077.25121         9.750           0.500
 91  7 26  0 44 44.9990000  0  5G 3G16G17G20G23
  20169792.722    -2814718.305 7  -1938611.15823        24.250           2.656
  22075178.284     -133209.996 7   -103800.59222        20.750           1.719
  20490448.659    -2927724.331 7  -2281342.20923        23.750           3.250
  22881604.269      785758.692 6    612275.76121        13.500           0.563
  23517904.886    -3380532.066 5  -2207225.36921        10.000           0.406
 91  7 26  0 44 59.9990000  0  5G 3G16G17G20G23
  20160555.331    -2863273.506 7  -1976446.37423        24.750           2.563
  22075020.042     -134047.701 7   -104453.35922        20.250           1.750
  20479547.433    -2985007.782 7  -2325978.63523        24.000           3.250
  22884671.558      801883.586 6    624840.53321        13.750           0.688
  23500526.370    -3471846.748 5  -2278379.41821         9.750           0.469
 91  7 26  0 45 14.9990000  0  5G 3G16G17G20G23
  20151320.050    -2911811.444 7  -2014268.13323        25.000           2.656
  22074864.159     -134852.508 7   -105080.49222        20.500           1.656
  20468647.315    -3042275.127 7  -2370602.50923        23.750           3.281
  22887735.183      817984.649 6    637386.70921        13.250           0.688
  23483145.855    -3563189.477 5  -2349555.33621        10.000           0.313
 91  7 26  0 45 29.9990000  0  5G 3G16G17G20G23
  20142083.972    -2960338.174 7  -2052081.16123        25.000           2.656
  22074717.073     -135630.590 7   -105686.80622        20.500           1.688
  20457755.745    -3099532.496 7  -2415218.61623        24.000           3.469
  22890794.839      834055.459 6    649909.30721        13.000           0.719
  23465754.730    -3654566.003 5  -2420757.59521        10.250           0.406
 91  7 26  0 45 44.9990000  0  5G 3G16G17G20G23
  20132853.011    -3008845.653 7  -2089879.19623        24.750           2.656
  22074578.128     -136374.670 7   -106266.62122        20.500           1.750
  20446863.784    -3156772.107 7  -2459820.89023        24.500           3.344
  22893849.347      850103.327 6    662414.03421        13.000           0.719
  23448362.980    -3745968.509 5  -2491980.09421         9.750           0.406
 91  7 26  0 45 59.9980000  0  5G 3G16G17G20G23
  20123627.725    -3057331.222 7  -2127660.14523        25.000           2.625
  22074442.740     -137085.685 7   -106820.66922        20.500           1.719
  20435971.818    -3213990.591 7  -2504406.69423        24.000           3.438
  22896896.131      866126.034 6    674899.15221        13.250           0.625
  23430963.568    -3837391.260 5  -2563218.37821         9.250           0.438
 91  7 26  0 46 14.9980000  0  5G 3G16G17G20G23
  20114402.607    -3105799.573 7  -2165427.68423        24.750           2.719
  22074310.795     -137762.888 7   -107348.37422        20.500           1.656
  20425088.404    -3271194.318 7  -2548980.99923        24.500           3.406
  22899942.279      882126.912 6    687367.27521        12.500           0.750
  23413559.857    -3928844.526 5  -2634480.43921         9.250           0.375
 91  7 26  0 46 29.9980000  0  5G 3G16G17G20G23
  20105186.842    -3154242.843 7  -2203175.67223        25.000           2.719
  22074191.162     -138401.672 7   -107846.13722        21.000           1.688
  20414207.631    -3328374.788 7  -2593537.18123        24.250           3.188
  22902980.904      898109.184 6    699820.88121        12.250           0.688
  23396153.725    -4020317.439 5  -2705757.79121         9.750           0.469
 91  7 26  0 46 44.9980000  0  5G 3G16G17G20G23
  20095973.334    -3202658.861 7  -2240902.43723        24.750           2.719
  22074076.779     -139000.734 7   -108312.95122        20.250           1.594
  20403329.029    -3385530.236 7  -2638073.87423        24.500           3.344
  22906020.490      914074.391 6    712261.18921        12.750           0.688
  23378745.420    -4111807.922 5  -2777048.84521        10.500           0.438
 91  7 26  0 46 59.9980000  0  5G 3G16G17G20G23
  20086765.881    -3251041.343 7  -2278603.05723        25.750           2.781
  22073970.811     -139554.218 7   -108744.24422        20.500           1.625
  20392460.787    -3442654.846 7  -2682586.53023        24.500           3.375
  22909056.732      930028.026 6    724692.49721        12.250           0.625
  23361332.037    -4203309.708 5  -2848348.73621         9.750           0.469
 91  7 26  0 47 14.9980000  0  5G 3G16G17G20G23
  20077564.576    -3299389.136 7  -2316276.65123        25.000           2.719
  22073874.170     -140061.196 7   -109139.30622        20.250           1.656
  20381595.912    -3499747.271 7  -2727074.10623        24.500           3.281
  22912090.397      945971.029 6    737115.51221        12.250           0.594
  23343915.451    -4294821.389 5  -2919656.30721         9.250           0.438
 91  7 26  0 47 29.9980000  0  5G 3G16G17G20G23
  20068371.529    -3347703.627 7  -2353924.29823        25.000           2.531
  22073786.357     -140523.752 7   -109499.76022        20.000           1.500
  20370736.381    -3556809.459 7  -2771538.12423        24.250           3.000
  22915122.350      961900.972 6    749528.35221        12.250           0.625
  23326502.537    -4386344.643 5  -2990972.89521        10.000           0.406
 91  7 26  0 47 44.9980000  0  5G 3G16G17G20G23
  20059183.576    -3395986.774 7  -2391547.52122        25.000           2.469
  22073707.881     -140944.438 6   -109827.58121        19.750           1.375
  20359883.654    -3613843.396 7  -2815980.12423        24.250           3.125
  22918152.162      977815.542 6    761929.19921        12.750           0.688
  23309083.490    -4477881.089 5  -3062299.77821        10.250           0.469
 91  7 26  0 47 59.9980000  0  5G 3G16G17G20G23
  20050001.826    -3444242.042 7  -2429149.01523        24.750           2.750
  22073633.772     -141327.370 7   -110125.98622        20.000           1.563
  20349035.826    -3670852.903 7  -2860403.10023        24.750           3.125
  22921174.982      993710.676 6    774314.91221        12.750           0.750
  23291660.857    -4569434.217 5  -3133639.67421        10.250           0.500
 91  7 26  0 48 14.9980000  0  5G 3G16G17G20G23
  20040824.076    -3492461.809 7  -2466722.84723        24.500           2.688
  22073567.850     -141664.952 6   -110389.04022        19.750           1.594
  20338191.311    -3727830.381 7  -2904801.10523        24.750           3.156
  22924197.561     1009593.652 6    786691.15121        12.500           0.656
  23274238.584    -4660995.991 5  -3204986.27121        10.500           0.594
 91  7 26  0 48 29.9980000  0  5G 3G16G17G20G23
  20031656.693    -3540643.648 7  -2504267.12223        25.000           2.813
  22073515.607     -141955.519 7   -110615.47722        20.000           1.500
  20327357.272    -3784773.505 7  -2949172.35123        24.500           3.469
  22927217.897     1025466.082 6    799059.16721        12.250           0.625
  23256812.623    -4752564.303 5  -3276337.99721        11.000           0.531
 91  7 26  0 48 44.9980000  0  5G 3G16G17G20G23
  20022494.162    -3588789.734 7  -2541783.54423        25.250           2.844
  22073466.818     -142201.881 6   -110807.46122        19.750           1.594
  20316526.545    -3841685.048 7  -2993518.98723        24.500           3.438
  22930236.045     1041325.146 6    811416.77021        12.500           0.594
  23239386.482    -4844141.218 5  -3347696.43321        10.250           0.531
 91  7 26  0 48 59.9980000  0  5G 3G16G17G20G23
  20013341.029    -3636900.331 7  -2579272.30723        25.750           2.719
  22073427.123     -142404.626 6   -110965.46522        19.250           1.500
  20305702.240    -3898565.072 7  -3037841.05924        24.250           3.500
  22933252.209     1057170.300 5    823763.52521        11.750           0.656
  23221957.873    -4935726.674 5  -3419061.50721        10.500           0.531
 91  7 26  0 49 14.9980000  0  5G 3G16G17G20G23
  20004191.459    -3684974.515 7  -2616732.70123        25.500           2.688
  22073397.576     -142563.576 7                        20.000
  20294884.357    -3955413.060 7  -3082138.16523        23.750           3.375
  22936264.436     1073001.673 5    836099.54821        11.250           0.625
  23204527.154    -5027320.010 5  -3490432.72921        11.000           0.625
 91  7 26  0 49 29.9980000  0  5G 3G16G17G20G23
  19995048.232    -3733011.317 7  -2654163.96423        25.250           2.719
  22073376.865     -142678.277 6                        19.750
  20284074.545    -4012228.405 7  -3126409.84423        24.000           3.406
  22939276.256     1088819.636 6    848425.11121        12.000           0.531
  23187096.764    -5118920.118 5  -3561809.23621        10.500           0.594
 91  7 26  0 49 44.9980000  0  5G 3G16G17G20G23
  19985916.701    -3781009.749 7  -2691565.32823        25.250           2.719
  22073360.357     -142747.928 6                        19.000
  20273268.264    -4069010.099 7  -3170655.29423        24.250           3.438
  22942282.397     1104624.672 6    860740.62221        12.250           0.719
  23169663.998    -5210525.793 5  -3633190.06921         9.750           0.531
 91  7 26  0 49 59.9980000  0  5G 3G16G17G20G23
  19976789.818    -3828969.451 7  -2728936.51323        25.500           2.625
  22073354.772     -142772.648 6                        19.000
  20262469.545    -4125758.139 7  -3214874.52023        24.250           3.313
  22945286.897     1120416.673 6    873045.95821        12.250           0.625
  23152230.287    -5302136.654 5  -3704574.94721        10.000           0.563
 91  7 26  0 50 14.9980000  0  5G 3G16G17G20G23
  19967671.654    -3876882.382 7  -2766271.24823        25.500           2.750
  22073363.420     -142745.266 6                        19.500
  20251679.514    -4182465.001 7  -3259061.66623        24.250           3.438
  22948290.897     1136202.895 5    885346.80521        11.500           0.625
  23134795.990    -5393744.832 5  -3775957.72221        10.000           0.656
 91  7 26  0 50 29.9980000  0  5G 3G16G17G20G23
  19958561.795    -3924749.516 7  -2803570.30423        25.000           2.688
  22073379.264     -142666.907 6                        19.500
  20240897.381    -4239131.320 7  -3303217.22023        24.750           3.438
  22951297.061     1151982.366 6    897642.36621        12.000           0.625
  23117364.225    -5485350.740 5  -3847338.75821        10.250           0.500
 91  7 26  0 50 44.9980000  0  5G 3G16G17G20G23
  19949464.256    -3972573.298 7  -2840835.57423        25.750           2.688
  22073402.959     -142540.910 6                        19.000
  20230118.693    -4295760.126 7  -3347343.53923        24.750           3.188
  22954295.498     1167751.454 5    909929.85021        11.750           0.625
  23099932.631    -5576957.443 5  -3918720.40021         9.750           0.531
 91  7 26  0 50 59.9980000  0  5G 3G16G17G20G23
  19940371.232    -4020343.639 7  -2878059.20123        25.750           2.656
  22073439.639     -142357.704 6                        19.500
  20219351.732    -4352341.509 7  -3391432.90723        24.000           3.344
  22957296.193     1183519.764 6    922216.73121        12.000           0.719
  23082503.631    -5668554.417 5  -3990094.47821        10.000           0.563
 91  7 26  0 51 14.9980000  0  5G 3G16G17G20G23
  19931289.959    -4068067.382 7  -2915246.52523        25.750           2.656
  22073483.397     -142124.433 6                        19.000
  20208593.897    -4408882.287 7  -3435490.63623        24.250           3.219
  22960297.068     1199280.258 5    934497.50521        11.750           0.625
  23065071.623    -5760148.158 5  -4061466.01621        10.250           0.531
 91  7 26  0 51 29.9980000  0  5G 3G16G17G20G23
  19922219.701    -4115741.318 7  -2952395.04223        25.750           2.656
  22073533.717     -141838.450 6   -110524.45321        18.500           1.469
  20197843.068    -4465379.763 7  -3479514.62123        24.750           3.313
  22963294.279     1215035.269 6    946774.01421        12.250           0.625
  23047641.154    -5851735.761 5  -4132832.78221        10.750           0.469
 91  7 26  0 51 44.9980000  0  5G 3G16G17G20G23
  19913158.201    -4163359.241 7  -2989499.89623        25.500           2.719
  22073602.295     -141494.061 6   -110256.11421        18.500           1.375
  20187099.436    -4521827.990 7  -3523500.22823        24.750           3.281
  22966290.772     1230790.394 6    959050.62921        12.000           0.625
  23030215.842    -5943310.929 5  -4204189.87221        11.250           0.594
 91  7 26  0 51 59.9980000  0  5G 3G16G17G20G23
  19904106.928    -4210922.453 7  -3026562.13223        25.250           2.750
  22073678.334     -141092.901 6   -109943.54421        19.000           1.375
  20176366.881    -4578228.362 7  -3567448.55323        24.750           3.281
  22969291.256     1246544.055 6    971326.07221        12.250           0.594
  23012793.154    -6034874.658 5  -4275538.05021        10.500           0.563
 91  7 26  0 52 14.9980000  0  5G 3G16G17G20G23
  19895064.334    -4258440.297 7  -3063589.00923        25.500           2.688
  22073761.170     -140645.161 6   -109594.66221        18.250           1.344
  20165643.850    -4634590.236 7  -3611366.87123        25.500           3.344
  22972285.248     1262286.178 6    983592.54121        12.250           0.500
  22995368.061    -6126436.501 5  -4346884.73721        10.250           0.531
 91  7 26  0 52 29.9980000  0  5G 3G16G17G20G23
  19886031.404    -4305905.935 7  -3100575.20523        25.500           2.750
  22073858.225     -140144.447 6   -109204.51521        18.250           1.281
  20154926.029    -4690907.112 7  -3655250.13223        25.000           3.281
  22975283.725     1278022.974 6    995854.85921        12.000           0.531
  22977947.693    -6217989.440 5  -4418224.50021        11.250           0.594
 91  7 26  0 52 44.9980000  0  5G 3G16G17G20G23
  19877009.295    -4353316.744 7  -3137518.68523        25.750           2.781
  22073964.615     -139588.928 6   -108771.65521        18.750           1.313
  20144216.928    -4747176.808 7  -3699096.63223        24.500           3.406
  22978276.545     1293756.536 5   1008114.65621        11.250           0.500
  22960529.264    -6309530.906 5  -4489555.33021        11.500           0.656
 91  7 26  0 52 59.9980000  0  5G 3G16G17G20G23
  19867998.373    -4400668.656 7  -3174416.26523        26.000           2.781
  22074080.522     -138974.381 6   -108292.80521        18.500           1.344
  20133519.740    -4803395.147 7  -3742903.10723        24.500           3.344
  22981267.600     1309490.439 5   1020374.71621        11.250           0.469
  22943112.357    -6401056.710 6  -4560873.94521        12.000           0.563
 91  7 26  0 53 14.9980000  0  5G 3G16G17G20G23
  19858997.139    -4447964.636 7  -3211270.26523        25.250           2.781
  22074210.037     -138304.754 6   -107771.04021        18.500           1.250
  20122831.350    -4859565.421 7  -3786672.13123        24.500           3.375
  22984260.857     1325221.118 5   1032632.26521        11.250           0.500
  22925699.943    -6492569.640 6  -4632182.55021        12.250           0.625
 91  7 26  0 53 29.9980000  0  5G 3G16G17G20G23
  19850010.904    -4495202.591 7  -3248079.05723        25.750           2.781
  22074347.201     -137578.205 6   -107204.91621        18.750           1.219
  20112152.217    -4915685.753 7  -3830402.24023        24.250           3.438
  22987255.732     1340950.115 6   1044888.48821        12.000           0.531
  22908287.178    -6584067.568 6  -4703479.46221        12.000           0.500
 91  7 26  0 53 44.9980000  0  5G 3G16G17G20G23
  19841034.522    -4542378.308 7  -3284839.33723        25.750           2.750
  22074495.787     -136791.325 6   -106591.77921        18.250           1.344
  20101481.170    -4971752.178 7  -3874090.34524        24.250           3.500
  22990250.068     1356680.782 5   1057146.05021        11.500           0.500
  22890881.873    -6675546.365 6  -4774761.45021        12.750           0.594
 91  7 26  0 53 59.9980000  0  5G 3G16G17G20G23
  19832065.850    -4589495.545 7  -3321554.05523        24.750           2.656
  22074657.404     -135948.148 6   -105934.77421        18.250           1.344
  20090822.404    -5027768.793 7  -3917739.63523        24.500           3.469
  22993242.100     1372409.117 5   1069401.73921        11.500           0.500
  22873475.186    -6767009.431 6  -4846031.20221        13.500           0.625
 91  7 26  0 54 14.9980000  0  5G 3G16G17G20G23
  19823110.842    -4636552.755 7  -3358222.00123        26.000           2.625
  22074827.998     -135047.662 6   -105233.11121        18.250           1.250
  20080172.881    -5083734.521 7  -3961349.27423        24.250           3.375
  22996233.904     1388135.896 5   1081656.26021        10.500           0.469
  22856069.256    -6858455.503 6  -4917287.70421        12.000           0.625
 91  7 26  0 54 29.9980000  0  5G 3G16G17G20G23
  19814168.365    -4683548.595 7  -3394842.12623        26.000           2.563
  22075010.631     -134089.045 6   -104486.15521        18.000           1.313
  20069533.451    -5139647.765 7  -4004918.01623        24.750           3.438
  22999227.490     1403862.020 5   1093910.24421        11.250           0.469
  22838674.647    -6949883.076 6  -4988529.77721        12.000           0.469
 91  7 26  0 54 44.9980000  0  5G 3G16G17G20G23
  19805236.842    -4730484.820 7  -3431415.80123        25.750           2.594
  22075204.889     -133074.647 6   -103695.73621        18.000           1.250
  20058901.834    -5195510.442 7  -4048447.35524        24.500           3.594
  23002219.873     1419585.518 5   1106162.19921        10.750           0.375
  22821278.975    -7041293.644 6  -5059758.61921        13.000           0.500
 91  7 26  0 54 59.9980000  0  5G 3G16G17G20G23
  19796316.342    -4777364.981 7  -3467945.79423        26.000           2.594
  22075406.615     -132008.575 6   -102865.04921        18.250           1.250
  20048279.514    -5251326.640 7  -4091940.48024        24.000           3.500
  23005211.279     1435301.725 5   1118408.47221        10.500           0.469
  22803886.912    -7132690.998 6  -5130977.19621        12.750           0.500
 91  7 26  0 55 14.9980000  0  5G 3G16G17G20G23
  19787405.201    -4824190.188 7  -3504432.96223        25.750           2.625
  22075619.381     -130892.539 6   -101995.43821        18.000           1.250
  20037667.764    -5307097.739 7  -4135398.46323        24.500           3.469
  23008197.725     1451009.021 5   1130647.76121        11.250           0.438
  22786495.514    -7224076.265 6  -5202186.31221        12.250           0.688
 91  7 26  0 55 29.9980000  0  5G 3G16G17G20G23
  19778502.482    -4870973.648 7  -3540887.59723        26.000           2.594
  22075836.311     -129740.237 6   -101097.54921        17.250           1.188
  20027062.764    -5362836.727 7  -4178831.42023        24.750           3.469
  23011184.248     1466693.954 5   1142869.67721        11.250           0.438
  22769104.467    -7315462.061 5  -5273395.84821        11.750           0.625
 91  7 26  0 55 44.9980000  0  5G 3G16G17G20G23
  19769611.053    -4917694.962 7  -3577293.80423        25.750           2.594
  22076067.522     -128531.865 6   -100155.98621        17.750           1.125
  20016464.834    -5418523.812 7  -4222223.93223        24.250           3.406
  23014167.951     1482376.072 5   1155089.37121        11.250           0.500
  22751717.912    -7406828.324 6  -5344590.16621        12.000           0.500
 91  7 26  0 55 59.9980000  0  5G 3G16G17G20G23
  19760730.514    -4964363.644 7  -3613659.00223        25.000           2.594
  22076310.272     -127277.029 6    -99178.20621        18.750           1.219
  20005876.006    -5474168.641 7  -4265583.51924        24.750           3.500
  23017151.373     1498045.439 5   1167299.14121        11.750           0.406
  22734334.147    -7498184.262 6  -5415776.44821        12.750           0.656
 91  7 26  0 56 14.9970000  0  5G 3G16G17G20G23
  19751864.329    -5010972.185 7  -3649977.33723        25.250           2.750
  22076558.181     -125972.001 6    -98161.32721        18.250           1.313
  19995297.103    -5529763.046 7  -4308903.81424        24.750           3.500
  23020133.384     1513704.966 5   1179501.24121        11.250           0.500
  22716954.892    -7589519.176 6  -5486946.35121        13.000           0.563
 91  7 26  0 56 29.9970000  0  5G 3G16G17G20G23
  19743003.938    -5057526.554 7  -3686253.45823        25.750           2.531
  22076814.298     -124617.103 6    -97105.57921        18.500           1.313
  19984724.821    -5585314.959 7  -4352190.99924        24.500           3.563
  23023110.493     1529356.146 5   1191696.80721        11.500           0.531
  22699575.149    -7680845.376 5  -5558109.47521        11.750           0.625
 91  7 26  0 56 44.9970000  0  5G 3G16G17G20G23
  19734156.298    -5104017.428 7  -3722480.10622        25.500           2.438
  22077082.501     -123206.655 6    -96006.54421        17.750           1.313
  19974165.134    -5640814.628 7  -4395437.48023        25.000           3.406
  23026087.978     1545003.688 5   1203889.57121        11.250           0.406
  22682199.548    -7772150.449 5  -5629256.11921        11.750           0.563
 91  7 26  0 56 59.9970000  0  5G 3G16G17G20G23
  19725320.071    -5150445.492 7  -3758657.81622        26.000           2.469
  22077359.798     -121741.834 6    -94865.14921        17.750           1.125
  19963613.806    -5696262.571 7  -4438643.65123        25.000           3.375
  23029062.634     1560646.461 5   1216078.59421        10.750           0.406
  22664827.220    -7863434.966 6  -5700386.73321        12.000           0.563
 91  7 26  0 57 14.9970000  0  5G 3G16G17G20G23
  19716498.142    -5196807.656 7  -3794784.16623        26.000           2.531
  22077651.532     -120220.238 6    -93679.51021        18.750           1.313
  19953071.743    -5751656.028 7  -4481807.36623        24.250           3.469
  23032036.884     1576286.943 5   1228265.86121        10.250           0.375
  22647461.532    -7954695.690 6  -5771498.83421        12.500           0.563
 91  7 26  0 57 29.9970000  0  5G 3G16G17G20G23
  19707687.704    -5243110.177 7  -3830864.05023        26.000           2.500
  22077950.962     -118648.536 6    -92454.83121        18.750           1.219
  19942538.892    -5807001.746 7  -4524933.87523        24.500           3.438
  23035013.181     1591918.101 5   1240445.84021        10.000           0.375
  22630096.735    -8045938.965 6  -5842597.33321        12.000           0.625
 91  7 26  0 57 44.9970000  0  5G 3G16G17G20G23
  19698888.470    -5289354.165 7  -3866898.32322        26.000           2.438
  22078257.759     -117028.233 6    -91192.27521        18.500           1.250
  19932016.399    -5862300.698 7  -4568023.95023        24.750           3.438
  23037986.868     1607538.356 5   1252617.32221        11.250           0.375
  22612740.704    -8137165.565 5  -5913682.84121        11.500           0.656
 91  7 26  0 57 59.9970000  0  5G 3G16G17G20G23
  19690101.470    -5335534.704 7  -3902883.14722        26.000           2.469
  22078576.915     -115354.994 6    -89888.47621        18.750           1.188
  19921501.813    -5917548.003 7  -4611073.77923        24.000           3.406
  23040958.478     1623152.340 5   1264783.92721        11.000           0.406
  22595383.860    -8228370.507 6  -5984751.44621        12.250           0.688
 91  7 26  0 58 14.9970000  0  5G 3G16G17G20G23
  19681325.228    -5381651.273 7  -3938818.12923        25.750           2.625
  22078904.048     -113629.090 6    -88543.63521        18.750           1.281
  19910997.548    -5972743.960 7  -4654083.59524        24.250           3.594
  23043930.563     1638759.671 5   1276945.34121        11.000           0.563
  22578032.282    -8319553.620 6  -6055803.06521        12.500           0.656
 91  7 26  0 58 29.9970000  0  5G 3G16G17G20G23
  19672563.587    -5427695.931 7  -3974697.07823        26.500           2.563
  22079243.813     -111842.981 6    -87151.88221        17.750           1.281
  19900508.040    -6027881.046 7  -4697047.54124        24.750           3.531
  23046896.009     1654367.780 5   1289107.33921        10.500           0.438
  22560685.954    -8410706.779 6  -6126831.36521        12.250           0.531
 91  7 26  0 58 44.9970000  0  5G 3G16G17G20G23
  19663813.360    -5473676.281 7  -4010525.91423        26.000           2.594
  22079595.228     -110004.506 6    -85719.32821        18.500           1.219
  19890024.384    -6082966.326 7  -4739971.11424        24.500           3.563
  23049866.899     1669968.737 5   1301263.79021        10.250           0.438
  22543343.681    -8501837.196 5  -6197841.90421        11.750           0.594
 91  7 26  0 58 59.9970000  0  5G 3G16G17G20G23
  19655073.915    -5519589.410 7  -4046302.37023        25.500           2.531
  22079955.235     -108111.550 6    -84244.32221        19.000           1.125
  19879552.751    -6137997.186 7  -4782852.28924        24.750           3.500
  23052833.688     1685564.878 5   1313416.47821         9.750           0.344
  22526006.423    -8592942.125 6  -6268832.61321        12.250           0.625
 91  7 26  0 59 14.9970000  0  5G 3G16G17G20G23
  19646351.790    -5565433.787 7  -4082025.25323        25.750           2.594
  22080324.392     -106163.160 6    -82726.09921        17.750           1.156
  19869091.985    -6192972.634 7  -4825690.27923        25.250           3.469
  23055801.813     1701157.169 5   1325566.15921         9.500           0.500
  22508674.243    -8684019.947 6  -6339802.18021        12.250           0.656
 91  7 26  0 59 29.9970000  0  5G 3G16G17G20G23
  19637639.438    -5611212.598 7  -4117697.04522        25.500           2.469
  22080706.642     -104162.757 6    -81167.36921        18.250           1.156
  19858639.868    -6247895.821 7  -4868487.54824        25.000           3.563
  23058770.220     1716741.808 5   1337709.86821         9.500           0.313
  22491348.079    -8775073.789 6  -6410753.07621        12.000           0.750
 91  7 26  0 59 44.9970000  0  5G 3G16G17G20G23
  19628941.642    -5656918.883 7  -4153312.32523        25.500           2.531
  22081101.431     -102103.859 6    -79563.05921        18.250           1.281
  19848199.868    -6302760.329 7  -4911239.09524        25.000           3.500
  23061736.478     1732325.100 5   1349852.53121        10.500           0.438
  22474028.220    -8866096.743 6  -6481679.88121        12.000           0.813
 91  7 26  0 59 59.9970000  0  5G 3G16G17G20G23
  19620256.634    -5702561.717 7  -4188878.16222        25.750           2.438
  22081500.173      -99996.336 6    -77920.85421        17.750           1.188
  19837768.548    -6357575.348 7  -4953952.08023        24.750           3.469
  23064697.751     1747897.445 5   1361986.67321        10.750           0.313
  22456709.095    -8957097.682 6  -6552589.55721        12.500           0.625
 91  7 26  1  0 14.9970000  0  5G 3G16G17G20G23
  19611583.751    -5748136.861 7  -4224391.25923        25.500           2.500
  22081910.813      -97835.835 6    -76237.36721        17.750           1.250
  19827349.485    -6412336.349 7  -4996622.97023        25.250           3.375
  23067662.579     1763462.930 5   1374115.48921        10.500           0.313
  22439399.399    -9048072.078 6  -6623478.55221        13.000           0.688
 91  7 26  1  0 29.9970000  0  5G 3G16G17G20G23
  19602925.040    -5793644.539 7  -4259851.78422        26.250           2.438
  22082332.392      -95623.742 6    -74513.67621        17.500           1.313
  19816937.571    -6467044.365 7  -5039252.57623        25.000           3.313
  23070622.759     1779020.008 5   1386237.73121        10.500           0.406
  22422091.040    -9139020.456 6  -6694347.28121        12.750           0.750
 91  7 26  1  0 44.9970000  0  5G 3G16G17G20G23
  19594277.657    -5839081.416 7  -4295257.13923        26.000           2.531
  22082762.892      -93357.348 6    -72747.67721        17.250           1.125
  19806539.118    -6521696.373 7  -5081838.53823        25.750           3.219
  23073579.688     1794571.707 5   1398355.76821        10.000           0.438
  22404790.235    -9229939.477 6  -6765193.11421        12.750           0.719
 91  7 26  1  0 59.9970000  0  5G 3G16G17G20G23
  19585644.978    -5884448.472 7  -4330608.07823        25.750           2.625
  22083204.384      -91038.114 6    -70940.49921        16.750           1.219
  19796150.384    -6576293.449 7  -5124381.69723        25.750           3.313
  23076537.821     1810116.543 5   1410468.47521         9.750           0.438
  22387495.931    -9320829.956 6  -6836016.70621        13.250           0.750
 91  7 26  1  1 14.9970000  0  5G 3G16G17G20G23
  19577025.767    -5929741.372 7  -4365901.24523        25.500           2.625
  22083656.470      -88661.937 6    -69088.96321        16.750           1.094
  19785771.095    -6630831.405 7  -5166878.79023        25.750           3.313
  23079494.688     1825658.232 5   1422578.71021         9.250           0.375
  22370205.462    -9411687.481 6  -6906814.63621        13.250           0.781
 91  7 26  1  1 29.9970000  0  5G 3G16G17G20G23
  19568420.063    -5974964.188 7  -4401139.79523        25.500           2.594
  22084119.634      -86233.100 6    -67196.38121        16.750           1.125
  19775402.524    -6685314.332 7  -5209333.00223        25.500           3.281
  23082449.720     1841192.534 5   1434683.18221         9.500           0.375
  22352919.806    -9502515.829 6  -6977589.83321        13.500           0.750
 91  7 26  1  1 44.9970000  0  5G 3G16G17G20G23
  19559826.946    -6020119.954 7  -4436326.09623        25.500           2.531
  22084591.142      -83755.339 6    -65265.67821        16.500           1.094
  19765045.384    -6739745.672 7  -5251747.01123        26.000           3.313
  23085407.774     1856715.678 5   1446778.98721         8.750           0.344
  22335641.837    -9593318.278 6  -7048344.84821        13.750           0.813
 91  7 26  1  1 59.9970000  0  5G 3G16G17G20G23
  19551247.423    -6065206.590 7  -4471458.53523        26.000           2.531
  22085072.126      -81226.846 6    -63295.45121        16.500           1.125
  19754698.204    -6794123.532 7  -5294119.35023        25.500           3.344
  23088357.540     1872229.322 5   1458867.35721         9.250           0.469
  22318368.087    -9684092.566 6  -7119077.92221        13.000           0.906
 91  7 26  1  2 14.9970000  0  5G 3G16G17G20G23
  19542680.517    -6110224.564 7  -4506537.47123        25.750           2.500
  22085560.509      -78649.216 6    -61286.94221        16.750           1.094
  19744359.782    -6848448.666 7  -5336450.60423        25.250           3.406
  23091310.157     1887732.108 5   1470947.29121        10.250           0.375
  22301099.290    -9774839.181 6  -7189789.42121        13.750           0.875
 91  7 26  1  2 29.9970000  0  5G 3G16G17G20G23
  19534128.423    -6155168.180 7  -4541558.47222        26.250           2.469
  22086063.970      -76017.273 6    -59236.09221        16.000           1.156
  19734032.220    -6902715.701 7  -5378736.59123        25.250           3.281
  23094258.149     1903229.231 5   1483022.80821         9.750           0.281
  22283836.938    -9865552.522 6  -7260475.00421        13.500           0.781
 91  7 26  1  2 44.9970000  0  5G 3G16G17G20G23
  19525588.876    -6200044.338 7  -4576526.90322        26.000           2.469
  22086572.712      -73338.142 6    -57148.49121        16.250           1.156
  19723716.438    -6956931.632 7  -5420982.75323        26.000           3.281
  23097202.813     1918713.576 5   1495088.37821         8.500           0.406
  22266576.571    -9956238.995 6  -7331139.66321        12.500           0.844
 91  7 26  1  2 59.9970000  0  5G 3G16G17G20G23
  19517063.110    -6244845.731 7  -4611437.07823        25.500           2.531
  22087092.665      -70605.127 6    -55018.89521        16.500           1.125
  19713409.462    -7011089.348 7  -5463183.55323        25.750           3.344
  23100149.407     1934191.832 5   1507149.18921         8.500           0.313
  22249329.517   -10046891.390 6  -7401777.74921        13.500           0.906
 91  7 26  1  3 14.9970000  0  5G 3G16G17G20G23
  19508552.657    -6289574.969 7  -4646291.03323        25.250           2.531
  22087622.579      -67821.445 6    -52849.81421        16.750           1.125
  19703114.329    -7065191.947 7  -5505341.40623        25.750           3.250
  23103090.634     1949660.417 5   1519202.45721         8.750           0.406
  22232085.587   -10137512.396 6  -7472391.37821        14.250           0.938
 91  7 26  1  3 29.9970000  0  5G 3G16G17G20G23
  19500055.431    -6334228.085 7  -4681085.65723        25.250           2.656
  22088163.384      -64983.276 6    -50638.28421        16.500           1.188
  19692829.399    -7119235.265 7  -5547453.06423        25.500           3.406
  23106037.681     1965123.235 5   1531251.23821         9.250           0.469
  22214845.860   -10228097.853 6  -7542977.31421        14.000           1.000
 91  7 26  1  3 44.9970000  0  5G 3G16G17G20G23
  19491572.376    -6378809.991 7  -4715824.80523        24.750           2.594
  22088714.923      -62096.374 6    -48388.76921        17.250           1.219
  19682557.024    -7173224.491 7  -5589522.57623        25.750           3.438
  23108976.931     1980574.635 5   1543291.10621         8.500           0.438
  22197614.329   -10318652.607 6  -7613539.33021        13.500           0.844
 91  7 26  1  3 59.9970000  0  5G 3G16G17G20G23
  19483104.626    -6423314.198 7  -4750503.40423        25.750           2.500
  22089271.735      -59154.673 6    -46096.56521        16.500           1.094
  19672292.720    -7227153.482 7  -5631545.14923        25.500           3.250
  23111916.071     1996020.423 5   1555326.60721         8.000           0.438
  22180389.063   -10409170.200 6  -7684072.38221        13.750           0.875
 91  7 26  1  4 14.9970000  0  5G 3G16G17G20G23
  19474648.478    -6467743.521 7  -4785123.65223        25.500           2.500
  22089841.587      -56161.503 6    -43764.24421        16.250           1.094
  19662043.993    -7281025.167 7  -5673523.06523        25.500           3.406
  23114854.532     2011457.412 5   1567355.23821         8.750           0.406
  22163170.907   -10499653.401 6  -7754578.64921        14.000           0.938
 91  7 26  1  4 29.9970000  0  5G 3G16G17G20G23
  19466207.524    -6512091.315 7  -4819680.37422        25.500           2.406
  22090422.642      -53110.604 6    -41386.94421        16.250           1.063
  19651803.368    -7334833.079 7  -5715451.28424        25.250           3.500
  23117790.087     2026891.760 5   1579381.85021         8.250           0.500
  22145958.454   -10590095.365 6  -7825052.77521        14.000           0.938
 91  7 26  1  4 44.9970000  0  5G 3G16G17G20G23
  19457783.954    -6556364.428 7  -4854178.90822        26.000           2.375
  22091013.868      -50009.542 6    -38970.56021        16.500           1.125
  19641574.470    -7388584.731 7  -5757335.67423        25.000           3.469
  23120727.220     2042315.775 5   1591400.38821         8.250           0.469
  22128756.688   -10680503.078 6  -7895500.20821        14.250           0.938
 91  7 26  1  4 59.9970000  0  5G 3G16G17G20G23
  19449374.298    -6600560.684 7  -4888617.54722        25.750           2.406
  22091611.712      -46856.807 6    -36513.91021        15.750           1.000
  19631357.118    -7442277.886 7  -5799174.47424        25.500           3.500
  23123661.665     2057731.202 5   1603412.25721         8.250           0.375
  22111558.720   -10770874.287 6  -7965919.21121        14.500           0.938
 91  7 26  1  5 14.9970000  0  5G 3G16G17G20G23
  19440978.970    -6644681.958 7  -4922997.76023        25.250           2.563
  22092221.774      -43654.260 6    -34018.44421        16.500           1.031
  19621149.610    -7495914.520 7  -5840969.23924        25.750           3.531
  23126593.845     2073135.751 5   1615415.61721         8.250           0.500
  22094367.751   -10861210.644 6  -8036311.05021        14.250           0.938
 91  7 26  1  5 29.9970000  0  5G 3G16G17G20G23
  19432596.493    -6688728.974 7  -4957320.11323        25.250           2.500
  22092838.751      -40403.217 6    -31485.19221        16.000           1.094
  19610954.204    -7549495.366 7  -5882720.53024        25.750           3.563
  23129524.759     2088528.172 5   1627409.51521         8.500           0.406
  22077185.056   -10951512.809 6  -8106676.24921        14.250           0.969
 91  7 26  1  5 44.9970000  0  5G 3G16G17G20G23
  19424226.876    -6732700.605 7  -4991583.71423        25.000           2.531
  22093469.524      -37103.435 6    -28913.95321        16.250           1.063
  19600769.142    -7603019.803 7  -5924427.86623        25.500           3.438
  23132446.720     2103908.934 5   1639394.37321         8.000           0.406
  22060008.243   -11041779.679 6  -8177013.93921        14.250           0.938
 91  7 26  1  5 59.9960000  0  5G 3G16G17G20G23
  19415875.520    -6776590.111 7  -5025783.32623        25.250           2.656
  22094105.895      -33751.744 6    -26302.26921        15.750           0.938
  19590597.512    -7656480.720 7  -5966085.70923        25.750           3.438
  23135378.410     2119280.316 5   1651371.89321         8.000           0.438
  22042838.066   -11132001.315 6  -8247316.38921        14.250           1.000
 91  7 26  1  6 14.9960000  0  5G 3G16G17G20G23
  19407538.121    -6820407.764 7  -5059926.95323        25.500           2.594
  22094752.981      -30353.080 6    -23653.98421        15.750           1.031
  19580433.160    -7709889.959 7  -6007703.27723        26.250           3.469
  23138295.723     2134639.181 5   1663339.65521         7.500           0.375
  22025674.254   -11222194.276 6  -8317596.48321        14.500           0.813
 91  7 26  1  6 29.9960000  0  5G 3G16G17G20G23
  19399216.293    -6864149.714 7  -5094011.58723        25.750           2.563
  22095407.199      -26906.452 6    -20968.32121        15.000           1.219
  19570279.316    -7763243.197 7  -6049277.20823        25.750           3.344
  23141216.590     2149985.102 5   1675297.33821         8.000           0.438
  22008519.832   -11312351.397 6  -8387848.67421        14.500           0.781
 91  7 26  1  6 44.9960000  0  5G 3G16G17G20G23
  19390906.691    -6907810.233 7  -5128032.77422        25.750           2.438
  22096075.637      -23406.687 6    -18241.26921        15.750           1.156
  19560136.777    -7816534.809 7  -6090803.12324        25.750           3.594
  23144129.434     2165323.495 5   1687249.15521         7.500           0.469
  21991370.707   -11402466.909 6  -8458068.43021        13.750           0.844
 91  7 26  1  6 59.9960000  0  5G 3G16G17G20G23
  19382610.965    -6951400.415 7  -5161999.14822        25.250           2.438
  22096750.941      -19865.515 6    -15481.93421        15.750           1.219
  19550007.965    -7869776.071 7  -6132289.80324        26.000           3.563
  23147049.441     2180642.582 5   1699185.91021         8.750           0.438
  21974227.770   -11492551.662 6  -8528264.21321        14.500           0.906
 91  7 26  1  7 14.9960000  0  5G 3G16G17G20G23
  19374328.746    -6994923.232 7  -5195913.02823        25.000           2.563
  22097431.145      -16286.523 6    -12693.14621        15.500           1.156
  19539885.402    -7922970.246 7  -6173739.79424        26.500           3.531
  23149961.613     2195938.538 5   1711104.67321         8.250           0.375
  21957089.441   -11582608.911 6  -8598438.57121        14.500           0.938
 91  7 26  1  7 29.9960000  0  5G 3G16G17G20G23
  19366062.785    -7038368.047 7  -5229766.13322        25.250           2.406
  22098119.965      -12659.681 6     -9867.05221        15.500           1.188
  19529772.441    -7976107.158 7  -6215145.15824        26.500           3.688
  23152870.129     2211221.612 5   1723013.38221         8.500           0.469
  21939959.895   -11672627.939 6  -8668583.15321        14.250           0.844
 91  7 26  1  7 44.9960000  0  5G 3G16G17G20G23
  19357808.012    -7081738.409 7  -5263561.21723        25.750           2.563
  22098818.512       -8989.153 6     -7006.93921        15.000           1.188
  19519670.637    -8029190.454 7  -6256508.74524        26.000           3.531
  23155777.207     2226487.587 5   1734908.77121         8.250           0.375
  21922837.254   -11762612.387 6  -8738700.78621        14.500           0.781
 91  7 26  1  7 59.9960000  0  5G 3G16G17G20G23
  19349570.934    -7125032.482 7  -5297296.85323        25.250           2.531
  22099525.332       -5273.071 6     -4111.31221        14.750           1.063
  19509581.348    -8082218.049 7  -6297828.93023        26.500           3.469
  23158677.731     2241738.187 5   1746792.16321         7.750           0.375
  21905720.918   -11852559.736 6  -8808789.51321        14.500           0.781
 91  7 26  1  8 14.9960000  0  5G 3G16G17G20G23
  19341348.309    -7168243.866 7  -5330968.06223        25.250           2.531
  22100242.809       -1505.956 6     -1175.94321        15.000           1.031
  19499500.723    -8135184.411 7  -6339101.40124        26.500           3.563
  23161573.527     2256978.696 5   1758667.69421         8.250           0.281
  21888610.395   -11942464.115 6  -8878844.75721        14.750           0.844
 91  7 26  1  8 29.9960000  0  5G 3G16G17G20G23
  19333139.770    -7211373.646 7  -5364575.67923        25.500           2.500
  22100968.402        2310.946 6      1798.25621        14.750           1.094
  19489434.098    -8188090.400 7  -6380326.82724        26.500           3.625
  23164475.434     2272208.072 5   1770534.57121         8.750           0.313
  21871511.848   -12032326.182 6  -8948867.04021        14.000           0.844
 91  7 26  1  8 44.9960000  0  5G 3G16G17G20G23
  19324949.254    -7254418.399 7  -5398117.03623        25.500           2.531
  22101704.254        6180.396 6      4813.37321        14.750           1.031
  19479377.059    -8240932.929 7  -6421502.81024        26.750           3.594
  23167368.598     2287429.000 5   1782394.84321         8.250           0.313
  21854419.309   -12122142.649 6  -9018853.77721        13.250           0.813
 91  7 26  1  8 59.9960000  0  5G 3G16G17G20G23
  19316774.152    -7297380.505 7  -5431594.00123        25.500           2.500
  22102452.902       10099.249 6      7867.00221        14.750           1.063
  19469333.520    -8293714.725 7  -6462631.46424        26.750           3.531
  23170265.731     2302638.540 5   1794246.25621         8.500           0.375
  21837338.066   -12211915.773 6  -9088806.75121        14.750           0.906
 91  7 26  1  9 14.9960000  0  5G 3G16G17G20G23
  19308612.496    -7340257.524 7  -5465004.66322        25.250           2.438
  22103206.981       14069.421 6     10960.60621        15.250           1.031
  19459302.418    -8346433.398 7  -6503710.92924        26.500           3.531
  23173159.816     2317838.573 5   1806090.25021         8.750           0.125
  21820261.574   -12301642.931 6  -9158723.91021        14.500           0.906
 91  7 26  1  9 29.9960000  0  5G 3G16G17G20G23
  19300471.402    -7383052.173 7  -5498351.13722        25.000           2.469
  22103971.340       18087.978 6     14091.92721        14.750           1.094
  19449281.645    -8399091.788 7  -6544743.42724        26.750           3.563
  23176048.785     2333025.943 5   1817924.43121         9.250           0.156
  21803196.434   -12391326.867 6  -9228607.39921        14.250           0.938
 91  7 26  1  9 44.9960000  0  5G 3G16G17G20G23
  19292343.652    -7425762.684 7  -5531632.05922        25.250           2.344
  22104745.879       22156.121 6     17261.87921        14.750           1.031
  19439272.207    -8451688.480 7  -6585727.84324        26.500           3.625
  23178938.348     2348201.846 5   1829749.62121         9.250           0.313
  21786139.551   -12480966.049 6  -9298455.99621        15.000           1.125
 91  7 26  1  9 59.9960000  0  5G 3G16G17G20G23
  19284231.629    -7468390.811 7  -5564848.77223        25.250           2.500
  22105529.066       26271.614 6     20468.72721        15.250           1.063
  19429274.910    -8504225.529 7  -6626665.78324        26.250           3.531
  23181823.059     2363363.921 5   1841564.03721         8.750           0.313
  21769087.902   -12570561.992 6  -9368270.90221        15.250           0.969
 91  7 26  1 10 14.9960000  0  5G 3G16G17G20G23
  19276137.098    -7510929.355 7  -5597995.69322        25.250           2.469
  22106323.043       30441.320 6     23717.82321        15.500           1.094
  19419290.481    -8556696.042 7  -6667551.88024        26.000           3.531
  23184705.918     2378518.866 5   1853372.88221         8.000           0.344
  21752050.793   -12660107.385 6  -9438046.42821        15.500           0.906
 91  7 26  1 10 29.9960000  0  5G 3G16G17G20G23
  19268057.715    -7553384.511 7  -5631077.62823        25.250           2.563
  22107126.598       34658.696 6     27004.06521        15.250           1.000
  19409317.254    -8609105.983 7  -6708390.78124        26.250           3.563
  23187585.863     2393660.211 5   1865171.12321         7.750           0.313
  21735016.098   -12749608.229 6  -9507787.25221        14.750           0.906
 91  7 26  1 10 44.9960000  0  5G 3G16G17G20G23
  19259996.309    -7595755.806 7  -5664094.22023        25.250           2.531
  22107936.020       38922.950 6     30326.82621        15.750           0.938
  19399354.840    -8661455.469 7  -6749182.56723        26.250           3.469
  23190469.395     2408787.456 5   1876958.38521         8.500           0.313
  21717993.402   -12839064.368 6  -9577493.22421        14.750           0.938
 91  7 26  1 10 59.9960000  0  5G 3G16G17G20G23
  19251947.895    -7638035.473 7  -5697039.41123        24.750           2.563
  22108758.402       43241.707 6     33692.07221        15.000           0.906
  19389407.848    -8713736.773 7  -6789921.23523        26.500           3.438
  23193344.621     2423908.046 5   1888740.47521         9.000           0.250
  21700981.645   -12928467.448 6  -9647157.85521        15.000           0.969
 91  7 26  1 11 14.9960000  0  5G 3G16G17G20G23
  19243920.785    -7680225.760 7  -5729914.96222        25.000           2.438
  22109591.918       47612.412 6     37097.77521        16.000           0.969
  19379470.699    -8765952.310 7  -6830608.65124        26.250           3.500
  23196221.543     2439019.227 5   1900515.24021         8.250           0.188
  21683977.270   -13017819.809 6  -9716782.96921        15.250           1.031
 91  7 26  1 11 29.9960000  0  5G 3G16G17G20G23
  19235908.231    -7722333.646 7  -5762726.30323        25.250           2.500
  22110431.332       52027.260 6     40537.89221        15.000           0.875
  19369544.512    -8818109.600 7  -6871250.67924        26.000           3.531
  23199095.574     2454113.332 5   1912276.67021         8.500           0.250
  21666982.606   -13107128.587 6  -9786374.12721        14.750           0.969
 91  7 26  1 11 44.9960000  0  4G 3G16G17G23
  19227911.207    -7764355.964 7  -5795470.96222        25.250           2.375
  22111278.176       56489.071 6     44014.60421        15.750           0.906
  19359630.762    -8870205.551 7  -6911844.91124        25.750           3.531
  21649995.910   -13196390.531 6  -9855928.78221        15.250           1.094
 91  7 26  1 11 59.9960000  0  4G 3G16G17G23
  19219931.168    -7806294.327 7  -5828150.21022        24.750           2.375
  22112136.535       60996.031 6     47526.50221        15.250           0.750
  19349728.418    -8922241.755 7  -6952392.57824        26.000           3.656
  21633020.363   -13285607.004 6  -9925448.01121        15.750           1.031
 91  7 26  1 12 14.9960000  0  4G 3G16G17G23
  19211966.895    -7848148.852 7  -5860764.12923        25.500           2.531
  22113005.379       65547.400 6     51073.00121        15.000           0.813
  19339838.934    -8974218.593 7  -6992894.00423        26.000           3.438
  21616052.113   -13374778.160 6  -9994931.93021        15.250           1.125
 91  7 26  1 12 29.9960000  0  4G 3G16G17G23
  19204017.668    -7889916.624 7  -5893310.44922        24.750           2.438
  22113878.895       70145.145 6     54655.63221        15.250           0.906
  19329957.652    -9026133.951 7  -7033347.51624        26.250           3.531
  21599089.777   -13463901.211 6 -10064378.36721        15.250           1.063
 91  7 26  1 12 44.9960000  0  4G 3G16G17G23
  19196084.152    -7931601.018 7  -5925791.79423        24.750           2.531
  22114760.777       74785.846 6     58271.71521        15.000           0.688
  19320091.637    -9077990.905 7  -7073755.51824        26.500           3.625
  21582139.160   -13552979.147 6 -10133789.65321        15.500           1.156
 91  7 26  1 12 59.9960000  0  4G 3G16G17G23
  19188169.098    -7973199.900 7  -5958206.50422        24.500           2.438
  22115652.613       79471.024 6     61922.49321        14.750           0.813
  19310235.434    -9129787.381 7  -7114116.39224        26.750           3.594
  21565195.504   -13642009.837 6 -10203164.11621        15.500           1.188
 91  7 26  1 13 14.9960000  0  4G 3G16G17G23
  19180270.941    -8014711.101 7  -5990552.89523        25.000           2.500
  22116553.606       84202.401 6     65609.24821        14.500           0.813
  19300390.660    -9181521.675 7  -7154428.81424        27.000           3.500
  21548261.348   -13730991.102 6 -10272500.06121        14.750           1.281
 91  7 26  1 13 29.9960000  0  4G 3G16G17G23
  19172387.762    -8056134.463 7  -6022830.84222        25.250           2.406
  22117462.699       88979.396 6     69331.56521        14.250           0.906
  19290557.215    -9233194.090 7  -7194693.02124        26.500           3.500
  21531340.020   -13819923.133 6 -10341797.64621        16.000           1.094
 91  7 26  1 13 44.9960000  0  4G 3G16G17G23
  19164521.441    -8097472.214 7  -6055042.08222        25.250           2.375
  22118380.410       93799.631 6     73087.55621        15.000           0.813
  19280734.941    -9284806.601 7  -7234910.54624        26.500           3.563
  21514425.121   -13908807.725 6 -10411058.28121        16.250           1.125
 91  7 26  1 13 59.9960000  0  4G 3G16G17G23
  19156673.020    -8138716.282 7  -6087180.31622        25.250           2.313
  22119304.316       98670.914 6     76883.34321        14.250           0.781
  19270927.402    -9336350.951 7  -7275074.95724        27.000           3.531
  21497523.449   -13997636.224 6 -10480275.20421        15.750           1.188
 91  7 26  1 14 14.9960000  0  4G 3G16G17G23
  19148840.645    -8179872.663 7  -6119250.22322        24.750           2.344
  22120243.340      103586.005 6     80713.24421        14.500           0.813
  19261131.270    -9387834.089 7  -7315191.67524        27.000           3.563
  21480630.223   -14086415.397 6 -10549453.68021        15.250           1.219
 91  7 26  1 14 29.9960000  0  4G 3G16G17G23
  19141027.207    -8220934.433 7  -6151246.41222        24.750           2.375
  22121186.934      108551.742 6     84582.62521        14.500           0.844
  19251346.363    -9439249.243 7  -7355255.41324        27.000           3.656
  21463746.340   -14175137.930 6 -10618588.00821        16.250           1.250
 91  7 26  1 14 44.9960000  0  4G 3G16G17G23
  19133230.590    -8261909.280 7  -6183174.86522        25.000           2.375
  22122140.863      113559.935 6     88485.06521        14.500           0.813
  19241572.613    -9490604.162 7  -7395272.21924        26.750           3.625
  21446873.152   -14263811.238 6 -10687684.00521        16.500           1.063
 91  7 26  1 14 59.9960000  0  4G 3G16G17G23
  19125449.238    -8302796.190 7  -6215034.79422        24.750           2.281
  22123102.832      118611.235 6     92421.12621        14.500           0.875
  19231812.098    -9541897.917 7  -7435241.36324        26.500           3.531
  21430007.559   -14352434.476 6 -10756740.99521        15.500           1.125
 91  7 26  1 15 14.9960000  0  4G 3G16G17G23
  19117686.481    -8343586.599 7  -6246819.52722        25.250           2.344
  22124071.848      123713.385 6     96396.77721        14.500           0.875
  19222067.246    -9593122.709 7  -7475156.77124        27.000           3.656
  21413154.324   -14440999.555 6 -10825752.65521        15.750           1.313
 91  7 26  1 15 29.9950000  0  4G 3G16G17G23
  19109943.577    -8384280.913 7  -6278529.38222        25.500           2.406
  22125051.608      128862.675 6    100409.20121        13.500           0.844
  19212329.226    -9644277.854 7  -7515017.90324        26.500           3.531
  21396315.499   -14529502.969 6 -10894716.24521        16.250           1.250
 91  7 26  1 15 44.9950000  0  4G 3G16G17G23
  19102217.351    -8424890.784 7  -6310173.43722        25.500           2.406
  22126039.702      134053.141 6    104453.67721        13.500           0.844
  19202606.468    -9695376.490 7  -7554835.01224        26.750           3.531
  21379480.507   -14617962.513 6 -10963645.67321        15.750           1.281
 91  7 26  1 15 59.9950000  0  4G 3G16G17G23
  19094505.944    -8465413.999 7  -6341749.97022        25.750           2.313
  22127036.866      139283.486 6    108529.23421        13.750           0.875
  19192893.312    -9746416.179 7  -7594606.17424        26.750           3.594
  21362655.905   -14706373.175 6 -11032537.00121        15.000           1.188
 91  7 26  1 16 14.9950000  0  4G 3G16G17G23
  19086811.101    -8505842.362 7  -6373252.58922        25.500           2.344
  22128039.140      144561.019 6    112641.56921        13.250           0.906
  19183192.726    -9797389.387 7  -7634325.55024        26.500           3.500
  21345842.663   -14794726.632 6 -11101383.75321        15.750           1.094
 91  7 26  1 16 29.9950000  0  4G 3G16G17G23
  19079135.405    -8546181.128 7  -6404685.39322        25.250           2.219
  22129051.874      149880.396 6    116786.50321        13.750           0.844
  19173506.226    -9848301.119 7  -7673997.01923        26.750           3.313
  21329039.952   -14883027.841 6 -11170189.80521        15.750           1.156
 91  7 26  1 16 44.9950000  0  4G 3G16G17G23
  19071475.819    -8586428.686 7  -6436047.12622        25.250           2.250
  22130071.788      155242.842 6    120965.00921        13.250           0.969
  19163830.421    -9899149.603 7  -7713619.19824        26.750           3.625
  21312244.671   -14971275.209 6 -11238953.89121        15.750           1.250
 91  7 26  1 16 59.9950000  0  4G 3G16G17G23
  19063833.343    -8626586.842 7  -6467339.19522        25.250           2.313
  22131101.054      160645.602 6    125174.92021        13.750           0.813
  19154165.741    -9949937.493 7  -7753194.16424        27.000           3.656
  21295461.366   -15059470.720 6 -11307677.56721        15.750           1.156
 91  7 26  1 17 14.9950000  0  4G 3G16G17G23
  19056210.898    -8666654.301 7  -6498560.59422        25.250           2.281
  22132135.062      166089.501 6    129416.88321        13.750           0.906
  19144513.819   -10000663.303 7  -7792720.75524        26.750           3.594
  21278690.069   -15147612.809 6 -11376359.62321        16.500           1.063
 91  7 26  1 17 29.9950000  0  4G 3G16G17G23
  19048601.296    -8706632.337 7  -6529712.30822        25.500           2.313
  22133181.491      171572.927 6    133689.64821        14.000           0.844
  19134871.765   -10051328.585 7  -7832200.18124        26.750           3.594
  21261926.351   -15235702.605 6 -11445000.94421        16.000           1.219
 91  7 26  1 17 44.9950000  0  4G 3G16G17G23
  19041012.296    -8746516.956 7  -6560791.23122        25.000           2.375
  22134231.671      177099.403 6    137995.95721        14.000           0.813
  19125243.054   -10101929.540 7  -7871629.48124        27.250           3.750
  21245172.804   -15323736.341 6 -11513598.56721        15.500           1.281
 91  7 26  1 17 59.9950000  0  4G 3G16G17G23
  19033439.780    -8786307.578 7  -6591796.90822        25.000           2.406
  22135292.726      182669.120 6    142335.96321        14.250           0.813
  19115624.460   -10152466.010 7  -7911008.53924        27.000           3.719
  21228432.601   -15411713.388 6 -11582152.01621        16.250           1.281
 91  7 26  1 18 14.9950000  0  4G 3G16G17G23
  19025887.413    -8826000.928 7  -6622726.79222        25.250           2.469
  22136361.679      188285.083 6    146712.00421        14.000           0.781
  19106021.648   -10202934.854 7  -7950334.89924        27.000           3.688
  21211703.413   -15499630.135 6 -11650658.48021        16.500           1.281
 91  7 26  1 18 29.9950000  0  4G 3G16G17G23
  19018351.499    -8865600.161 7  -6653583.32922        24.750           2.469
  22137437.960      193943.293 6    151120.96821        14.000           0.750
  19096430.155   -10253339.445 7  -7989611.18924        27.000           3.719
  21194982.538   -15587489.870 6 -11719120.53521        16.500           1.188
 91  7 26  1 18 44.9950000  0  4G 3G16G17G23
  19010832.991    -8905105.457 7  -6684366.67722        25.000           2.281
  22138521.608      199643.711 6    155562.82021        14.000           0.813
  19086851.265   -10303679.804 7  -8028837.43124        27.000           3.719
  21178275.398   -15675292.521 6 -11787538.09521        16.500           1.219
 91  7 26  1 18 59.9950000  0  4G 3G16G17G23
  19003335.491    -8944514.701 7  -6715075.17722        25.250           2.438
  22139616.648      205387.632 6    160038.57021        14.000           0.813
  19077283.507   -10353954.275 7  -8068012.33324        26.500           3.656
  21161578.163   -15763036.104 6 -11855909.62521        17.000           1.281
 91  7 26  1 19 14.9950000  0  4G 3G16G17G23
  18995850.749    -8983839.109 7  -6745717.56822        24.750           2.406
  22140715.132      211163.281 6    164539.04721        14.000           0.625
  19067726.273   -10404174.274 7  -8107144.78724        26.500           3.625
  21144889.523   -15850731.745 6 -11924243.80921        17.500           1.313
 91  7 26  1 19 29.9950000  0  4G 3G16G17G23
  18988385.968    -9023069.968 7  -6776287.07322        24.750           2.375
  22141819.960      216978.678 6    169070.49121        13.500           0.844
  19058182.749   -10454331.388 7  -8146228.24024        26.750           3.656
  21128213.710   -15938370.480 6 -11992533.65221        16.750           1.281
 91  7 26  1 19 44.9950000  0  4G 3G16G17G23
  18980937.382    -9062206.880 7  -6806783.36822        25.250           2.406
  22142934.663      222833.699 6    173632.80621        13.500           0.688
  19048649.710   -10504425.244 7  -8185262.40224        26.500           3.781
  21111547.819   -16025951.920 6 -12060778.84221        17.500           1.219
 91  7 26  1 19 59.9950000  0  4G 3G16G17G23
  18973508.960    -9101252.934 7  -6837208.86522        25.000           2.438
  22144055.882      228724.814 6    178223.24721        13.000           0.813
  19039128.882   -10554459.394 7  -8224250.03824        27.000           3.719
  21094891.265   -16113479.127 6 -12128981.78721        17.250           1.281
 91  7 26  1 20 14.9950000  0  4G 3G16G17G23
  18966096.382    -9140205.130 7  -6867561.23023        24.750           2.500
  22145184.405      234654.497 6    182843.74621        13.000           0.750
  19029617.960   -10604430.886 7  -8263188.85124        26.750           3.656
  21078245.585   -16200949.090 6 -12197140.11421        17.000           1.250
 91  7 26  1 20 29.9950000  0  4G 3G16G17G23
  18958701.757    -9179059.962 7  -6897837.72022        24.750           2.406
  22146321.312      240626.112 6    187496.91221        13.000           0.781
  19020122.687   -10654336.272 7  -8302076.15124        27.250           3.750
  21061611.085   -16288358.144 6 -12265250.97521        16.750           1.250
 91  7 26  1 20 44.9950000  0  4G 3G16G17G23
  18951327.046    -9217818.702 7  -6928039.33722        25.000           2.406
  22147462.569      246638.125 5    192181.56421        11.750           0.750
  19010638.687   -10704176.795 7  -8340912.90424        27.250           3.656
  21044988.710   -16375707.425 6 -12333315.26921        17.250           1.406
 91  7 26  1 20 59.9950000  0  4G 3G16G17G23
  18943967.710    -9256486.517 7  -6958170.09822        25.000           2.375
  22148613.202      252684.249 6    196892.78721        12.250           0.750
  19001165.155   -10753958.478 7  -8379703.81524        27.250           3.594
  21028378.687   -16463002.429 6 -12401337.27121        17.250           1.406
 91  7 26  1 21 14.9950000  0  4G 3G16G17G23
  18936626.999    -9295061.814 7  -6988228.77122        25.250           2.406
  22149772.101      258766.157 6    201631.88421        12.250           0.656
  18991702.780   -10803679.357 7  -8418447.34624        27.000           3.688
  21011776.655   -16550241.183 6 -12469315.43721        17.000           1.438
 91  7 26  1 21 29.9950000  0  4G 3G16G17G23
  18929305.460    -9333542.553 7  -7018213.76722        25.250           2.281
  22150935.796      264885.412 5    206400.11021        11.750           0.594
  18982252.273   -10853337.681 7  -8457142.13124        26.750           3.594
  20995187.991   -16637421.460 6 -12537248.03421        17.750           1.406
 91  7 26  1 21 44.9950000  0  4G 3G16G17G23
  18921999.046    -9371934.598 7  -7048129.64422        25.250           2.406
  22152109.171      271035.212 6    211192.11821        12.250           0.594
  18972815.655   -10902939.860 7  -8495793.16624        27.000           3.563
  20978607.530   -16724549.491 6 -12605139.92922        17.750           1.500
 91  7 26  1 21 59.9950000  0  4G 3G16G17G23
  18914711.226    -9410234.202 7  -7077973.49122        25.000           2.344
  22153287.296      277218.910 6    216010.54621        13.000           0.688
  18963387.382   -10952482.088 7  -8534397.49124        26.750           3.719
  20962039.593   -16811621.230 6 -12672987.95222        17.250           1.531
 91  7 26  1 22 14.9950000  0  4G 3G16G17G23
  18907441.898    -9448435.906 7  -7107741.05822        25.250           2.281
  22154469.718      283441.776 6    220859.50821        12.750           0.625
  18953970.702   -11001959.237 7  -8572951.10024        26.750           3.656
  20945481.116   -16898631.183 6 -12740787.82621        17.500           1.438
 91  7 26  1 22 29.9950000  0  4G 3G16G17G23
  18900189.851    -9486542.735 7  -7137434.69422        25.000           2.344
  22155659.937      289700.077 6    225736.07221        12.750           0.625
  18944568.968   -11051374.627 7  -8611456.58424        27.000           3.625
  20928932.898   -16985582.314 6 -12808541.87122        17.250           1.500
 91  7 26  1 22 44.9950000  0  4G 3G16G17G23
  18892956.616    -9524552.957 7  -7167053.05222        25.000           2.344
  22156858.694      295995.184 6    230641.31921        12.750           0.625
  18935178.226   -11100726.442 7  -8649912.53324        27.000           3.813
  20912400.499   -17072472.754 6 -12876248.62722        17.500           1.500
 91  7 26  1 22 59.9950000  0  4G 3G16G17G23
  18885740.718    -9562471.630 7  -7196600.06922        24.500           2.344
  22158057.913      302321.535 6    235570.91921        12.000           0.656
  18925797.898   -11150020.123 7  -8688323.17824        27.250           3.625
  20895876.694   -17159307.593 6 -12943912.06422        17.750           1.500
 91  7 26  1 23 14.9950000  0  4G 3G16G17G23
  18878543.968    -9600293.892 7  -7226071.96322        25.250           2.438
  22159272.015      308683.719 6    240528.41421        12.500           0.594
  18916427.398   -11199250.725 7  -8726684.67524        26.500           3.656
  20879363.804   -17246081.642 6 -13011528.13022        17.750           1.656
 91  7 26  1 23 29.9950000  0  4G 3G16G17G23
  18871364.780    -9638025.927 7  -7255473.55222        25.500           2.406
  22160487.476      315075.259 6    245508.81021        12.000           0.656
  18907070.171   -11248424.647 7  -8765002.00524        27.000           3.719
  20862858.898   -17332801.185 6 -13079101.72122        17.500           1.594
 91  7 26  1 23 44.9950000  0  4G 3G16G17G23
  18864201.593    -9675665.152 7  -7284802.81322        25.500           2.469
  22161710.702      321497.846 6    250513.36521        12.000           0.813
  18897725.663   -11297539.729 7  -8803273.48324        27.000           3.750
  20846367.788   -17419463.862 6 -13146631.00422        17.500           1.625
 91  7 26  1 23 59.9950000  0  4G 3G16G17G23
  18857057.757    -9713208.809 7  -7314057.61122        25.250           2.406
  22162939.999      327954.170 6    255544.23221        12.750           0.844
  18888389.702   -11346593.084 7  -8841496.86524        27.000           3.813
  20829888.335   -17506066.294 6 -13214113.34622        18.000           1.656
 91  7 26  1 24 14.9950000  0  4G 3G16G17G23
  18849932.405    -9750653.058 7  -7343234.95522        25.500           2.250
  22164172.851      334447.178 6    260603.67521        12.500           0.813
  18879069.038   -11395581.622 7  -8879669.74024        26.750           3.594
  20813421.101   -17592605.264 6 -13281546.23422        18.250           1.656
 91  7 26  1 24 29.9950000  0  4G 3G16G17G23
  18842825.968    -9788000.221 7  -7372336.63922        25.250           2.375
  22165418.249      340974.540 6    265689.89121        13.000           0.813
  18869757.312   -11444507.265 7  -8917793.60324        26.250           3.625
  20796965.694   -17679082.423 6 -13348930.95522        18.750           1.688
 91  7 26  1 24 44.9950000  0  4G 3G16G17G23
  18835735.062    -9825254.678 7  -7401366.09222        25.250           2.313
  22166664.280      347530.804 6    270798.63421        13.250           0.781
  18860457.663   -11493375.029 7  -8955872.36724        26.500           3.531
  20780522.030   -17765502.254 6 -13416271.01222        18.500           1.594
 91  7 26  1 24 59.9940000  0  4G 3G16G17G23
  18828665.682    -9862408.711 7  -7430317.29222        25.000           2.188
  22167918.463      354120.721 6    275933.59021        13.000           0.656
  18851172.166   -11542176.279 7  -8993899.29724        26.500           3.719
  20764089.400   -17851853.608 6 -13483557.71622        18.250           1.656
 91  7 26  1 25 14.9940000  0  4G 3G16G17G23
  18821613.283    -9899464.133 7  -7459191.65622        25.250           2.281
  22169181.002      360747.948 6    281097.63921        13.250           0.906
  18841896.900   -11590914.936 7  -9031877.45824        26.250           3.625
  20747666.432   -17938145.111 6 -13550797.77222        18.000           1.688
 91  7 26  1 25 29.9940000  0  4G 3G16G17G23
  18814581.588    -9936420.551 7  -7487988.86622        25.250           2.375
  22170448.354      367409.683 6    286288.54421        13.250           0.750
  18832634.018   -11639589.617 7  -9069805.77124        26.000           3.625
  20731258.565   -18024372.864 6 -13617988.15422        18.000           1.625
 91  7 26  1 25 44.9940000  0  4G 3G16G17G23
  18807567.947    -9973273.033 7  -7516705.09522        24.750           2.344
  22171723.869      374110.282 6    291509.76921        13.250           0.906
  18823384.260   -11688195.627 7  -9107680.57424        26.000           3.625
  20714863.744   -18110531.772 6 -13685124.88422        18.250           1.594
 91  7 26  1 25 59.9940000  0  4G 3G16G17G23
  18800575.197   -10010025.280 7  -7545343.21022        24.000           2.281
  22173008.533      380844.945 6    296757.49921        12.750           0.563
  18814149.674   -11736737.018 7  -9145505.02224        26.750           3.719
  20698478.783   -18196625.743 6 -13752211.03422        18.250           1.531
 91  7 26  1 26 14.9940000  0  4G 3G16G17G23
  18793600.455   -10046679.032 7  -7573904.57922        24.250           2.313
  22174291.369      387611.723 5    302030.30321        11.750           0.688
  18804922.955   -11785215.858 7  -9183280.72424        27.000           3.563
  20682109.729   -18282656.356 6 -13819247.79922        18.500           1.563
 91  7 26  1 26 29.9940000  0  4G 3G16G17G23
  18786644.916   -10083232.478 7  -7602387.78722        24.500           2.375
  22175584.440      394412.558 6    307329.59521        12.000           0.688
  18795710.127   -11833630.248 7  -9221006.21124        27.000           3.625
  20665749.432   -18368621.404 6 -13886233.47822        18.000           1.688
 91  7 26  1 26 44.9940000  0  4G 3G16G17G23
  18779707.260   -10119686.856 7  -7630793.80222        24.750           2.313
  22176886.658      401245.397 5    312653.85421        11.750           0.656
  18786508.455   -11881981.635 7  -9258682.60024        27.000           3.563
  20649401.721   -18454522.380 6 -13953169.22922        18.000           1.531
 91  7 26  1 26 59.9940000  0  4G 3G16G17G23
  18772789.940   -10156040.565 7  -7659121.38022        24.750           2.250
  22178192.799      408111.305 5    318003.87521        11.250           0.750
  18777320.018   -11930268.706 7  -9296308.87724        26.750           3.625
  20633070.025   -18540357.518 6 -14020053.68022        18.500           1.563
 91  7 26  1 27 14.9940000  0  4G 3G16G17G23
  18765889.166   -10192295.963 7  -7687372.33622        24.750           2.281
  22179503.377      415007.350 5    323377.36421        11.500           0.688
  18768143.830   -11978493.997 7  -9333887.01424        27.500           3.594
  20616747.463   -18626129.295 6 -14086888.76822        18.500           1.563
 91  7 26  1 27 29.9940000  0  4G 3G16G17G23
  18759009.463   -10228453.887 7  -7715547.34822        24.500           2.375
  22180825.752      421932.682 5    328773.69221        11.750           0.625
  18758978.174   -12026658.386 7  -9371417.69224        26.750           3.563
  20600437.244   -18711838.109 6 -14153674.79422        18.750           1.563
 91  7 26  1 27 44.9940000  0  4G 3G16G17G23
  18752148.861   -10264509.980 7  -7743643.00922        25.000           2.344
  22182146.135      428891.110 5    334195.79921        11.750           0.688
  18749823.736   -12074757.728 7  -9408897.68524        26.750           3.750
  20584141.260   -18797479.900 6 -14220408.59122        18.250           1.563
 91  7 26  1 27 59.9940000  0  4G 3G16G17G23
  18745305.822   -10300463.654 7  -7771658.86322        24.750           2.375
  22183476.486      435882.692 5    339643.74521        11.000           0.688
  18740684.744   -12122791.435 7  -9446326.53224        26.750           3.688
  20567855.307   -18883053.923 6 -14287089.57522        18.750           1.656
 91  7 26  1 28 14.9940000  0  4G 3G16G17G23
  18738483.424   -10336318.753 7  -7799597.90122        24.750           2.438
  22184815.494      442902.970 5    345114.04221        11.000           0.656
  18731556.791   -12170763.923 7  -9483707.67924        27.000           3.656
  20551585.275   -18968563.912 6 -14353720.66722        18.750           1.531
 91  7 26  1 28 29.9940000  0  4G 3G16G17G23
  18731679.010   -10372073.002 7  -7827458.35522        24.250           2.469
  22186157.354      449954.091 5    350608.38121        11.000           0.656
  18722439.861   -12218672.955 7  -9521039.38124        27.250           3.750
  20535325.369   -19054007.524 6 -14420300.03722        18.750           1.625
 91  7 26  1 28 44.9940000  0  4G 3G16G17G23
  18724895.541   -10407723.517 7  -7855237.98422        24.500           2.469
  22187506.385      457038.155 5    356128.38221        11.750           0.563
  18713334.557   -12266515.912 7  -9558319.59224        27.000           3.719
  20519077.752   -19139381.754 6 -14486825.34722        18.500           1.594
 91  7 26  1 28 59.9940000  0  4G 3G16G17G23
  18718132.018   -10443271.537 7  -7882937.74022        25.000           2.406
  22188859.900      464153.882 6    361673.06221        12.000           0.563
  18704244.244   -12314294.026 7  -9595549.28024        27.250           3.719
  20502844.697   -19224687.677 6 -14553297.42522        18.250           1.625
 91  7 26  1 29 14.9940000  0  4G 3G16G17G23
  18711385.682   -10478716.552 7  -7910557.23323        24.250           2.500
  22190220.502      471301.442 6    367242.55521        12.000           0.438
  18695162.697   -12362006.914 7  -9632728.13924        27.250           3.781
  20486626.135   -19309924.768 6 -14619715.86122        18.500           1.594
 91  7 26  1 29 29.9940000  0  4G 3G16G17G23
  18704661.947   -10514057.448 7  -7938095.60122        25.000           2.344
  22191585.463      478480.805 5    372836.82821        11.000           0.594
  18686096.955   -12409653.908 7  -9669855.65424        27.000           3.750
  20470419.627   -19395092.052 6 -14686079.92122        19.000           1.594
 91  7 26  1 29 44.9940000  0  4G 3G16G17G23
  18697954.877   -10549296.585 7  -7965554.66622        24.750           2.406
  22192956.471      485689.751 5    378454.13621        11.750           0.500
  18677041.994   -12457237.192 7  -9706933.52224        27.000           3.813
  20454225.268   -19480191.542 6 -14752391.13722        18.750           1.688
 91  7 26  1 29 59.9940000  0  4G 3G16G17G23
  18691268.408   -10584432.825 7  -7992933.56222        24.750           2.406
  22194335.221      492928.690 5    384094.83221        11.750           0.594
  18667999.385   -12504756.150 7  -9743961.26624        26.500           3.719
  20438044.924   -19565222.353 6 -14818648.84222        19.000           1.719
 91  7 26  1 30 14.9940000  0  4G 3G16G17G23
  18684601.674   -10619468.009 7  -8020233.71022        24.500           2.344
  22195714.096      500195.512 5    389757.24621        10.750           0.438
  18658967.783   -12552212.412 7  -9780940.15824        27.000           3.781
  20421877.486   -19650186.139 6 -14884854.33322        19.250           1.750
 91  7 26  1 30 29.9940000  0  4G 3G16G17G23
  18677953.549   -10654402.826 7  -8047455.64722        24.500           2.406
  22197105.057      507489.279 5    395440.66221        10.750           0.375
  18649949.572   -12599607.086 7  -9817871.05924        27.250           3.813
  20405719.229   -19735083.454 6 -14951008.01622        19.000           1.813
 91  7 26  1 30 44.9940000  0  4G 3G16G17G23
  18671326.588   -10689229.006 7  -8074592.93122        24.750           2.344
  22198501.768      514817.280 5    401150.74321        11.500           0.500
  18640943.916   -12646932.246 7  -9854747.79524        27.000           3.719
  20389580.275   -19819906.203 6 -15017103.59522        19.000           1.906
 91  7 26  1 30 59.9940000  0  4G 3G16G17G23
  18664719.783   -10723949.564 7  -8101647.91122        24.750           2.438
  22199897.971      522176.418 5    406885.11321        10.500           0.469
  18631951.635   -12694191.054 7  -9891572.82424        27.000           3.875
  20373452.565   -19904657.126 6 -15083143.20822        19.000           1.938
 91  7 26  1 31 14.9940000  0  4G 3G16G17G23
  18658132.721   -10758565.015 7  -8128620.99522        24.750           2.281
  22201304.580      529565.569 5    412642.83521        11.000           0.438
  18622969.338   -12741384.199 7  -9928346.68824        26.750           3.813
  20357340.463   -19989336.539 6 -15149127.09722        19.000           1.813
 91  7 26  1 31 29.9940000  0  4G 3G16G17G23
  18651565.658   -10793075.695 7  -8155512.43222        24.500           2.438
  22202717.150      536984.299 5    418423.64521        10.000           0.500
  18614003.221   -12788511.702 7  -9965069.40824        27.500           3.781
  20341235.963   -20073944.608 6 -15215055.39322        18.750           1.938
 91  7 26  1 31 44.9940000  0  4G 3G16G17G23
  18645017.533   -10827480.879 7  -8182321.67222        24.500           2.438
  22204136.986      544432.664 5    424227.48721        11.000           0.563
  18605046.940   -12835573.414 7 -10001740.85624        27.000           3.719
  20325152.791   -20158480.811 7 -15280927.69722        20.000           1.906
 91  7 26  1 31 59.9940000  0  4G 3G16G17G23
  18638491.986   -10861778.202 7  -8209046.85622        24.250           2.406
  22205560.682      551912.639 5    430056.01621        11.750           0.531
  18596104.033   -12882567.149 7 -10038359.33924        27.250           3.750
  20309079.299   -20242942.758 6 -15346742.14022        19.000           1.969
 91  7 26  1 32 14.9940000  0  4G 3G16G17G23
  18631984.385   -10895971.879 7  -8235691.28222        24.000           2.344
  22206990.502      559419.642 5    435905.59321        11.750           0.625
  18587172.197   -12929496.904 7 -10074927.97124        27.000           3.719
  20293017.854   -20327334.335 6 -15412501.73922        19.000           1.969
 91  7 26  1 32 29.9940000  0  4G 3G16G17G23
  18625498.611   -10930061.054 7  -8262254.27422        24.500           2.375
  22208420.236      566954.098 5    441776.55121        10.750           0.625
  18578255.424   -12976362.117 7 -10111446.30224        26.500           3.625
  20276974.221   -20411654.834 6 -15478205.95922        19.750           2.156
 91  7 26  1 32 44.9940000  0  4G 3G16G17G23
  18619032.377   -10964046.489 7  -8288736.43122        24.750           2.344
  22209858.135      574514.894 5    447668.03521        10.250           0.688
  18569349.424   -13023163.820 7 -10147915.15424        27.000           3.688
  20260942.018   -20495904.930 6 -15543855.32222        19.250           2.000
 91  7 26  1 32 59.9940000  0  4G 3G16G17G23
  18612584.190   -10997926.602 7  -8315136.51522        24.750           2.281
  22211304.346      582102.996 5    453580.78321        11.000           0.750
  18560455.705   -13069900.833 7 -10184333.59424        26.500           3.625
  20244921.260   -20580082.561 6 -15609448.21322        19.500           2.031
 91  7 26  1 33 14.9940000  0  4G 3G16G17G23
  18606157.346   -11031702.639 7  -8341455.50622        24.750           2.281
  22212754.635      589716.702 5    459513.49321        10.750           0.688
  18551574.471   -13116574.371 7 -10220702.58124        26.750           3.625
  20228918.877   -20664189.432 6 -15674985.97522        19.750           2.000
 91  7 26  1 33 29.9940000  0  4G 3G16G17G23
  18599749.900   -11065373.397 7  -8367692.46422        24.750           2.250
  22214208.588      597357.086 5    465466.99121        10.500           0.625
  18542705.041   -13163183.337 7 -10257021.24324        26.750           3.781
  20212925.721   -20748224.264 6 -15740467.60322        19.500           2.063
 91  7 26  1 33 44.9940000  0  4G 3G16G17G23
  18593361.322   -11098942.702 7  -8393850.36622        25.000           2.375
  22215665.588      605019.548 5    471437.68821         9.750           0.813
  18533846.955   -13209732.185 7 -10293293.06424        26.750           3.781
  20196947.947   -20832190.873 6 -15805896.05822        19.500           2.031
 91  7 26  1 33 59.9940000  0  4G 3G16G17G23
  18586992.197   -11132410.660 7  -8419929.29722        24.750           2.313
  22217128.041      612703.966 5    477425.48121        10.000           0.625
  18524999.924   -13256220.682 7 -10329517.85524        26.750           3.813
  20180982.549   -20916089.097 6 -15871271.23722        19.750           2.063
 91  7 26  1 34 14.9930000  0  4G 3G16G17G23
  18580644.919   -11165772.503 7  -8445925.54122        24.500           2.250
  22218594.302      620411.767 5    483431.52121        10.250           0.625
  18516166.052   -13302643.189 7 -10365691.23224        26.750           3.813
  20165030.903   -20999910.496 6 -15936586.56022        19.750           2.063
 91  7 26  1 34 29.9930000  0  4G 3G16G17G23
  18574314.419   -11199027.949 7  -8471838.87422        24.250           2.250
  22220066.661      628148.634 5    489460.19721         9.750           0.719
  18507343.771   -13349001.340 7 -10401814.45524        26.750           3.625
  20149091.872   -21083661.605 6 -16001847.09822        19.500           1.906
 91  7 26  1 34 44.9930000  0  4G 3G16G17G23
  18568007.255   -11232177.304 7  -8497669.54422        24.000           2.313
  22221544.138      635910.633 5    495508.45821        10.000           0.625
  18498536.138   -13395295.119 7 -10437887.51924        27.250           3.625
  20133172.255   -21167339.293 7 -16067050.43022        20.000           1.844
 91  7 26  1 34 59.9930000  0  4G 3G16G17G23
  18561719.185   -11265220.864 7  -8523417.77122        24.500           2.406
  22223027.692      643697.128 5    501575.79821        10.250           0.688
  18489737.497   -13441524.988 7 -10473910.78624        26.750           3.750
  20117262.263   -21250943.911 7 -16132196.82922        20.250           1.906
 91  7 26  1 35 14.9930000  0  4G 3G16G17G23
  18555453.794   -11298150.413 7  -8549077.16122        24.500           2.344
  22224512.653      651516.022 5    507668.41121         9.250           0.500
  18480955.669   -13487682.707 7 -10509877.82824        27.250           3.781
  20101366.888   -21334467.014 7 -16197279.71422        20.250           1.969
 91  7 26  1 35 29.9930000  0  4G 3G16G17G23
  18549206.521   -11330973.575 7  -8574653.65022        24.500           2.375
  22226005.224      659359.481 5    513780.13621         9.750           0.500
  18472181.833   -13533776.035 7 -10545794.70024        26.750           3.813
  20085487.458   -21417916.235 7 -16262305.01722        20.000           1.969
 91  7 26  1 35 44.9930000  0  4G 3G16G17G23
  18542980.982   -11363691.250 7  -8600147.95022        24.750           2.375
  22227502.685      667225.999 5    519909.85221        10.000           0.500
  18463424.153   -13579805.929 7 -10581662.14024        27.000           3.719
  20069621.747   -21501292.514 7 -16327273.49222        20.500           1.875
 91  7 26  1 35 59.9930000  0  4G 3G16G17G23
  18536775.599   -11396305.373 7  -8625561.55422        24.750           2.438
  22229003.778      675113.087 5    526055.57621        10.000           0.469
  18454677.755   -13625774.593 7 -10617481.86824        27.000           3.688
  20053768.942   -21584597.644 7 -16392186.53122        20.000           1.906
 91  7 26  1 36 14.9930000  0  4G 3G16G17G23
  18530588.575   -11428813.398 7  -8650892.48922        25.000           2.406
  22230508.849      683022.840 5    532218.98721        10.250           0.406
  18445940.513   -13671679.739 7 -10653252.10124        26.750           3.813
  20037929.067   -21667828.874 6 -16457041.97822        19.500           1.969
 91  7 26  1 36 29.9930000  0  4G 3G16G17G23
  18524423.239   -11461214.427 7  -8676140.04522        24.500           2.375
  22232020.028      690956.110 5    538400.70721        10.500           0.313
  18437218.411   -13717520.345 7 -10688972.04724        26.750           3.719
  20022108.310   -21750985.264 7 -16521839.10422        20.250           2.031
 91  7 26  1 36 44.9930000  0  4G 3G16G17G23
  18518278.091   -11493507.479 7  -8701303.46822        24.500           2.375
  22233531.458      698913.409 5    544601.18621        10.500           0.156
  18428507.169   -13763295.888 7 -10724641.29024        26.500           3.875
  20006296.364   -21834066.054 7 -16586577.32522        20.000           1.969
 91  7 26  1 36 59.9930000  0  4G 3G16G17G23
  18512153.247   -11525689.626 7  -8726380.46622        24.500           2.375
  22235052.427      706897.095 5    550822.21821         9.750           0.188
  18419808.755   -13809003.496 7 -10760257.59824        26.750           3.813
  19990502.239   -21917067.983 7 -16651254.09722        20.250           2.000
 91  7 26  1 37 14.9930000  0  4G 3G16G17G23
  18506052.435   -11557760.797 7  -8751370.99823        25.250           2.500
  22236572.966      714906.722 5    557063.44521         9.750           0.281
  18411124.317   -13854643.212 7 -10795821.00324        26.000           3.938
  19974723.778   -21999990.836 7 -16715869.25622        20.750           2.000
 91  7 26  1 37 29.9930000  0  4G 3G16G17G23
  18499968.114   -11589726.864 7  -8776279.62422        24.250           2.313
  22238102.544      722936.461 5    563320.34621         9.250           0.281
  18402452.177   -13900220.900 7 -10831336.07724        26.750           3.906
  19958958.146   -22082840.537 7 -16780427.40922        21.250           2.156
 91  7 26  1 37 44.9930000  0  3G 3G17G23
  18493907.232   -11621582.004 7  -8801101.81822        25.000           2.438
  18393791.192   -13945731.148 7 -10866798.59524        26.500           3.813
  19943205.200   -22165611.193 7 -16844923.97522        20.500           2.125
 91  7 26  1 37 59.9930000  0  3G 3G17G23
  18487865.044   -11653331.355 7  -8825841.57122        25.000           2.375
  18385141.044   -13991178.980 7 -10902212.47924        26.000           3.750
  19927469.317   -22248307.754 7 -16909362.79822        20.750           2.125
 91  7 26  1 38 14.9930000  0  3G 3G17G23
  18481843.942   -11684967.681 7  -8850493.26022        25.000           2.438
  18376508.474   -14036557.589 7 -10937572.42624        27.000           3.844
  19911748.278   -22330923.009 7 -16973738.26822        20.500           2.250
 91  7 26  1 38 29.9930000  0  3G 3G17G23
  18475844.396   -11716492.567 7  -8875058.11722        25.250           2.375
  18367884.677   -14081868.508 7 -10972879.61924        26.750           3.750
  19896041.966   -22413458.463 7 -17038051.55322        20.000           2.281
 91  7 26  1 38 44.9930000  0  3G 3G17G23
  18469867.903   -11747902.092 7  -8899533.07322        24.250           2.313
  18359277.028   -14127108.142 7 -11008131.27424        27.000           3.656
  19880353.185   -22495910.001 7 -17102299.45022        20.250           2.219
 91  7 26  1 38 59.9930000  0  3G 3G17G23
  18463913.107   -11779194.903 7  -8923917.08922        24.500           2.344
  18350680.739   -14172275.183 7 -11043326.35924        26.750           3.719
  19864679.560   -22578276.349 7 -17166480.97122        20.500           2.281
 91  7 26  1 39 14.9930000  0  3G 3G17G23
  18457979.060   -11810377.576 7  -8948215.27922        24.500           2.406
  18342097.583   -14217376.250 7 -11078470.03724        26.500           3.781
  19849018.794   -22660563.814 7 -17230601.02622        20.750           2.281
 91  7 26  1 39 29.9930000  0  3G 3G17G23
  18452066.661   -11841451.345 7  -8972428.61322        24.250           2.406
  18333528.794   -14262412.904 7 -11113563.52124        27.000           3.719
  19833375.575   -22742773.892 7 -17294660.77422        20.500           2.219
 91  7 26  1 39 44.9930000  0  3G 3G17G23
  18446175.333   -11872414.244 7  -8996555.55622        24.500           2.344
  18324970.239   -14307383.046 7 -11148605.17924        26.500           3.656
  19817747.489   -22824904.309 7 -17358658.44922        21.000           2.313
 91  7 26  1 39 59.9930000  0  3G 3G17G23
  18440304.724   -11903265.003 7  -9020595.11022        24.500           2.313
  18316426.857   -14352285.779 7 -11183594.31424        27.000           3.656
  19802133.044   -22906953.764 7 -17422593.03922        20.500           2.344
 91  7 26  1 40 14.9930000  0  3G 3G17G23
  18434455.380   -11934003.119 7  -9044546.89922        25.250           2.219
  18307893.630   -14397120.693 7 -11218530.59624        26.250           3.594
  19786534.317   -22988921.651 7 -17486464.06822        20.750           2.438
 91  7 26  1 40 29.9930000  0  3G 3G17G23
  18428626.771   -11964632.865 7  -9068414.24122        24.750           2.188
  18299373.716   -14441892.405 7 -11253417.63524        26.500           3.656
  19770950.544   -23070812.259 7 -17550274.88422        20.500           2.375
 91  7 26  1 40 44.9930000  0  3G 3G17G23
  18422819.177   -11995148.453 7  -9092192.62722        24.750           2.281
  18290866.927   -14486595.024 7 -11288250.83224        26.250           3.563
  19755384.357   -23152619.655 7 -17614020.85322        21.000           2.375
 91  7 26  1 40 59.9930000  0  3G 3G17G23
  18417032.489   -12025553.258 7  -9115884.68622        24.250           2.250
  18282373.669   -14531232.048 7 -11323032.92124        26.750           3.688
  19739830.427   -23234347.131 7 -17677704.55422        20.250           2.469
 91  7 26  1 41 14.9930000  0  3G 3G17G23
  18411267.942   -12055843.722 7  -9139487.64822        24.250           2.156
  18273892.536   -14575799.957 7 -11357761.15024        26.500           3.625
  19724295.255   -23315990.949 7 -17741323.06822        21.250           2.469
 91  7 26  1 41 29.9930000  0  3G 3G17G23
  18405526.528   -12086022.417 7  -9163003.51322        24.250           2.313
  18265423.802   -14620301.587 7 -11392437.73524        26.000           3.625
  19708774.357   -23397553.698 7 -17804878.41422        21.250           2.469
 91  7 26  1 41 44.9930000  0  3G 3G17G23
  18399805.013   -12116085.285 7  -9186429.12522        24.000           2.313
  18256969.474   -14664733.022 7 -11427059.61924        26.500           3.625
  19693269.646   -23479031.344 7 -17868367.43522        20.750           2.375
 91  7 26  1 41 59.9930000  0  3G 3G17G23
  18394107.036   -12146033.305 7  -9209765.24722        24.500           2.219
  18248527.349   -14709095.227 7 -11461627.56324        26.000           3.625
  19677780.794   -23560424.533 7 -17931790.65022        21.250           2.438
 91  7 26  1 42 14.9930000  0  3G 3G17G23
  18388428.349   -12175868.392 7  -9233013.36822        24.250           2.219
  18240096.591   -14753390.524 7 -11496143.37124        25.750           3.625
  19662308.466   -23641735.291 7 -17995149.64322        21.000           2.438
 91  7 26  1 42 29.9930000  0  3G 3G17G23
  18382772.747   -12205591.116 7  -9256173.93822        25.000           2.219
  18231680.552   -14797619.537 7 -11530607.51924        25.750           3.594
  19646848.888   -23722964.228 7 -18058444.87022        21.000           2.469
 91  7 26  1 42 44.9930000  0  3G 3G17G23
  18377138.661   -12235195.248 7  -9279242.09422        24.500           2.250
  18223277.942   -14841776.074 7 -11565015.19924        25.750           3.594
  19631408.458   -23804104.878 7 -18121671.29522        21.250           2.344
 91  7 26  1 42 59.9930000  0  3G 3G17G23
  18371527.146   -12264680.612 7  -9302217.70322        24.250           2.375
  18214889.317   -14885859.975 7 -11599366.28024        25.750           3.500
  19615985.646   -23885157.048 7 -18184828.79222        21.250           2.375
 91  7 26  1 43 14.9930000  0  3G 3G17G23
  18365938.692   -12294053.960 7  -9325106.03522        24.500           2.156
  18206512.521   -14929878.159 7 -11633666.15124        26.000           3.625
  19600577.216   -23966127.438 7 -18247922.55922        21.500           2.375
 91  7 26  1 43 29.9920000  0  3G 3G17G23
  18360371.336   -12323308.632 7  -9347901.88522        23.750           2.188
  18198150.961   -14973823.273 7 -11667909.08924        26.000           3.656
  19585189.055   -24047005.875 7 -18310944.67222        21.750           2.469
 91  7 26  1 43 44.9920000  0  3G 3G17G23
  18354824.406   -12352456.371 7  -9370614.40922        24.000           2.188
  18189798.695   -15017709.076 7 -11702105.80924        26.000           3.688
  19569811.125   -24127810.717 7 -18373909.44022        22.000           2.250
 91  7 26  1 43 59.9920000  0  3G 3G17G23
  18349301.242   -12381483.250 7  -9393232.75922        23.500           2.125
  18181460.836   -15061520.835 7 -11736244.83224        26.500           3.656
  19554451.578   -24208524.529 7 -18436803.28122        21.500           2.313
 91  7 26  1 44 14.9920000  0  3G 3G17G23
  18343800.289   -12410396.936 7  -9415762.90522        24.250           2.188
  18173138.766   -15105266.262 7 -11770332.16624        26.500           3.625
  19539107.149   -24289155.028 7 -18499632.19722        21.500           2.344
 91  7 26  1 44 29.9920000  0  3G 3G17G23
  18338320.406   -12439197.188 7  -9438204.66322        24.250           2.219
  18164828.024   -15148945.328 7 -11804367.79524        26.500           3.563
  19523780.664   -24369701.820 7 -18562395.88622        21.500           2.344
 91  7 26  1 44 44.9920000  0  3G 3G17G23
  18332860.563   -12467881.905 7  -9460556.39522        24.250           2.156
  18156526.969   -15192556.013 7 -11838350.13624        26.500           3.531
  19508469.188   -24450162.839 7 -18625092.73922        20.750           2.156
 91  7 26  1 44 59.9920000  0  3G 3G17G23
  18327425.008   -12496450.392 7  -9482817.55522        23.250           2.094
  18148240.945   -15236097.485 7 -11872278.54824        26.000           3.531
  19493173.305   -24530537.096 7 -18687721.99322        21.250           2.281
 91  7 26  1 45 14.9920000  0  3G 3G17G23
  18322009.586   -12524900.648 7  -9504986.59222        24.000           2.125
  18139970.250   -15279568.207 7 -11906151.82624        26.750           3.531
  19477895.477   -24610822.721 7 -18750282.17322        21.500           2.313
 91  7 26  1 45 29.9920000  0  3G 3G17G23
  18316619.031   -12553233.701 7  -9527064.30122        24.000           2.125
  18131711.313   -15322969.212 7 -11939970.78524        26.750           3.594
  19462634.945   -24691020.380 7 -18812773.81122        21.500           2.344
 91  7 26  1 45 44.9920000  0  3G 3G17G23
  18311249.149   -12581452.358 7  -9549052.86522        24.000           2.031
  18123464.711   -15366303.499 7 -11973737.74824        26.500           3.625
  19447389.969   -24771133.253 7 -18875199.37922        21.500           2.281
 91  7 26  1 45 59.9920000  0  3G 3G17G23
  18305902.422   -12609555.542 7  -9570951.46122        24.500           1.938
  18115231.641   -15409570.122 7 -12007451.99424        26.250           3.719
  19432161.211   -24851159.925 7 -18937557.78222        21.250           2.375
 91  7 26  1 46 14.9920000  0  3G 3G17G23
  18300574.250   -12637548.115 7  -9592763.85622        24.500           2.000
  18107009.211   -15452773.780 7 -12041117.17524        26.250           3.656
  19416947.984   -24931104.914 7 -18999852.53522        21.500           2.438
 91  7 26  1 46 29.9920000  0  3G 3G17G23
  18295268.664   -12665424.570 7  -9614485.77622        24.000           2.000
  18098801.008   -15495909.316 7 -12074729.27124        26.250           3.625
  19401751.164   -25010963.049 7 -19062079.60323        21.750           2.500
 91  7 26  1 46 44.9920000  0  3G 3G17G23
  18289986.859   -12693181.931 7  -9636114.89822        24.500           2.094
  18090606.602   -15538973.626 7 -12108285.86624        26.250           3.750
  19386573.883   -25090730.991 7 -19124236.39922        22.000           2.438
 91  7 26  1 46 59.9920000  0  3G 3G17G23
  18284727.789   -12720825.132 7  -9657655.05422        24.750           2.031
  18082423.586   -15581971.871 7 -12141790.98724        25.750           3.625
  19371408.649   -25170413.489 7 -19186326.61623        21.250           2.563
 91  7 26  1 47 14.9920000  0  3G 3G17G23
  18279488.969   -12748354.018 7  -9679106.14222        24.750           2.156
  18074254.969   -15624904.179 7 -12175244.73124        25.750           3.625
  19356263.125   -25250010.750 7 -19248350.40723        22.000           2.688
 91  7 26  1 47 29.9920000  0  3G 3G17G23
  18274272.172   -12775766.689 7  -9700466.66822        24.500           2.094
  18066097.438   -15667768.625 7 -12208645.58824        26.000           3.500
  19341131.922   -25329520.644 7 -19310306.12523        22.000           2.719
 91  7 26  1 47 44.9920000  0  3G 3G17G23
  18269078.477   -12803062.556 7  -9721736.18422        24.500           2.063
  18057953.516   -15710564.760 7 -12241993.22024        25.750           3.531
  19326019.008   -25408942.218 7 -19372193.02223        22.000           2.625
 91  7 26  1 47 59.9920000  0  3G 3G17G23
  18263906.336   -12830244.652 7  -9742917.04522        24.500           2.094
  18049820.406   -15753295.713 7 -12275290.06224        26.000           3.625
  19310921.945   -25488278.593 7 -19434013.52923        22.500           2.781
 91  7 26  1 48 14.9920000  0  3G 3G17G23
  18258755.422   -12857306.478 7  -9764004.18622        24.500           1.938
  18041703.375   -15795954.913 7 -12308530.99124        26.000           3.594
  19295841.234   -25567523.184 7 -19495762.52123        22.000           2.844
 91  7 26  1 48 29.9920000  0  3G 3G17G23
  18253629.469   -12884250.139 7  -9784999.25522        24.250           1.906
  18033599.070   -15838544.965 7 -12341718.04324        25.750           3.563
  19280779.594   -25646678.322 7 -19557441.80123        22.250           2.781
 91  7 26  1 48 44.9920000  0  3G 3G17G23
  18248522.750   -12911077.099 7  -9805903.38222        24.000           2.031
  18025506.664   -15881067.202 7 -12374852.24524        25.500           3.625
  19265733.500   -25725744.978 7 -19619052.14323        22.250           2.938
 91  7 26  1 48 59.9920000  0  3G 3G17G23
  18243441.789   -12937784.304 7  -9826714.20722        24.750           2.063
  18017431.227   -15923518.632 7 -12407931.27424        25.750           3.656
  19250705.047   -25804720.171 7 -19680591.21023        22.000           2.875
 91  7 26  1 49 14.9920000  0  3G 3G17G23
  18238383.461   -12964370.272 7  -9847430.55022        24.500           2.031
  18009366.203   -15965898.061 7 -12440954.20224        25.500           3.688
  19235694.570   -25883602.274 7 -19742057.73723        21.750           2.875
 91  7 26  1 49 29.9920000  0  3G 3G17G23
  18233346.383   -12990841.207 7  -9868057.26622        24.500           2.063
  18001312.117   -16008211.536 7 -12473925.73124        25.250           3.688
  19220700.305   -25962397.191 7 -19803456.33023        22.250           2.844
 91  7 26  1 49 44.9920000  0  3G 3G17G23
  18228330.203   -13017194.793 7  -9888592.53622        24.000           2.031
  17993275.109   -16050456.835 7 -12506844.14324        25.750           3.656
  19205723.024   -26041102.719 7 -19864785.27723        22.000           2.750
 91  7 26  1 49 59.9920000  0  3G 3G17G23
  18223336.664   -13043434.014 7  -9909038.69322        23.500           1.875
  17985248.133   -16092637.245 7 -12539711.98324        25.750           3.750
  19190760.930   -26119721.733 7 -19926046.79823        22.000           2.844
 91  7 26  1 50 14.9920000  0  3G 3G17G23
  18218366.711   -13069551.830 7  -9929390.24822        24.000           2.063
  17977234.859   -16134745.916 7 -12572523.93024        25.750           3.781
  19175817.453   -26198247.349 7 -19987235.54723        21.250           2.844
 91  7 26  1 50 29.9920000  0  3G 3G17G23
  18213421.047   -13095547.705 7  -9949646.78122        24.000           2.063
  17969235.086   -16176782.238 7 -12605279.49724        25.250           3.844
  19160894.492   -26276678.719 7 -20048350.85923        22.250           2.813
 91  7 26  1 50 44.9920000  0  3G 3G17G23
  18208497.445   -13121423.431 7  -9969809.69522        24.000           2.000
  17961249.617   -16218748.425 7 -12637980.41624        25.500           3.719
  19145986.734   -26355017.835 7 -20109394.29023        21.750           2.875
 91  7 26  1 50 59.9920000  0  3G 3G17G23
  18203594.641   -13147179.088 7  -9989879.04822        24.000           2.031
  17953276.719   -16260643.997 7 -12670626.30924        25.500           3.719
  19131096.399   -26433264.407 7 -20170365.60123        21.750           2.781
 91  7 26  1 51 14.9920000  0  3G 3G17G23
  18198716.703   -13172822.359 7 -10009860.83022        24.250           2.063
  17945316.055   -16302477.049 7 -12703223.48624        25.750           3.781
  19116225.328   -26511425.934 7 -20231270.64523        22.250           2.906
 91  7 26  1 51 29.9920000  0  3G 3G17G23
  18193858.828   -13198344.416 7 -10029748.15922        24.250           2.000
  17937370.914   -16344238.715 7 -12735765.03924        25.750           3.813
  19101367.336   -26589493.533 7 -20292102.50523        22.250           2.750
 91  7 26  1 51 44.9920000  0  3G 3G17G23
  18189025.180   -13223749.803 7 -10049544.57922        24.250           2.125
  17929435.516   -16385933.877 7 -12768254.76624        26.000           3.719
  19086528.500   -26667471.861 7 -20352864.80123        21.750           2.844
 91  7 26  1 51 59.9920000  0  3G 3G17G23
  18184212.555   -13249034.644 7 -10069247.05622        24.000           2.063
  17921514.039   -16427558.534 7 -12800689.55424        25.500           3.656
  19071709.039   -26745356.767 7 -20413554.29223        22.500           2.906
 91  7 26  1 52 14.9920000  0  3G 3G17G23
  18179423.750   -13274198.645 7 -10088855.38522        23.750           1.938
  17913607.984   -16469112.707 7 -12833069.42324        26.500           3.719
  19056904.117   -26823148.020 7 -20474170.81223        21.750           2.750
 91  7 26  1 52 29.9920000  0  3G 3G17G23
  18174657.367   -13299246.423 7 -10108373.14322        24.250           2.000
  17905711.734   -16510600.986 7 -12865397.93924        26.000           3.719
  19042117.758   -26900850.006 7 -20534717.77323        22.250           2.781
 91  7 26  1 52 44.9910000  0  3G 3G17G23
  18169914.784   -13324167.256 7 -10127791.98522        24.000           2.000
  17897831.089   -16552011.626 7 -12897665.95824        25.750           3.656
  19027351.667   -26978448.415 7 -20595184.02523        22.500           2.906
 91  7 26  1 52 59.9910000  0  3G 3G17G23
  18165194.175   -13348969.790 7 -10147118.64722        24.000           2.125
  17889965.105   -16593355.444 7 -12929881.91424        25.750           3.594
  19012600.276   -27055958.943 7 -20655581.79823        22.250           2.813
 91  7 26  1 53 14.9910000  0  3G 3G17G23
  18160498.362   -13373651.067 7 -10166350.82522        24.250           2.063
  17882109.925   -16634628.466 7 -12962042.70424        25.750           3.625
  18997869.183   -27133374.723 7 -20715905.74523        22.250           2.875
 91  7 26  1 53 29.9910000  0  3G 3G17G23
  18155825.308   -13398208.586 7 -10185486.56922        24.000           2.031
  17874269.503   -16675828.646 7 -12994146.73024        26.250           3.594
  18983156.737   -27210693.530 7 -20776154.12923        22.250           2.875
 91  7 26  1 53 44.9910000  0  3G 3G17G23
  18151177.370   -13422646.804 7 -10204529.35122        24.500           2.063
  17866442.261   -16716960.262 7 -13026197.33224        25.750           3.625
  18968462.441   -27287919.773 7 -20836330.38023        22.500           2.781
 91  7 26  1 53 59.9910000  0  3G 3G17G23
  18146548.667   -13446962.051 7 -10223476.31122        24.000           1.969
  17858629.105   -16758019.619 7 -13058191.63024        26.250           3.563
  18953782.831   -27365049.428 7 -20896431.36323        22.750           2.906
 91  7 26  1 54 14.9910000  0  3G 3G17G23
  18141943.425   -13471155.978 7 -10242328.73822        23.500           1.938
  17850830.003   -16799008.430 7 -13090130.95624        26.250           3.594
  18939123.253   -27442084.065 7 -20956458.32323        22.500           2.781
 91  7 26  1 54 29.9910000  0  3G 3G17G23
  18137363.558   -13495230.125 7 -10261087.82522        23.750           2.000
  17843042.636   -16839928.522 7 -13122016.73324        26.250           3.688
  18924481.675   -27519025.402 7 -21016412.57123        22.500           2.844
 91  7 26  1 54 44.9910000  0  3G 3G17G23
  18132804.323   -13519181.665 7 -10279751.37522        23.500           1.938
  17835270.456   -16880777.132 7 -13153846.81224        26.500           3.656
  18909859.191   -27595870.154 7 -21076291.55723        22.500           2.906
 91  7 26  1 54 59.9910000  0  3G 3G17G23
  18128270.167   -13543013.119 7 -10298321.35122        23.750           2.000
  17827509.425   -16921556.800 7 -13185623.16524        26.000           3.688
  18895254.948   -27672620.927 7 -21136097.31423        22.750           2.875
 91  7 26  1 55 14.9910000  0  3G 3G17G23
  18123759.823   -13566719.175 7 -10316793.62122        24.250           2.094
  17819764.339   -16962262.365 7 -13217341.78224        25.750           3.750
  18880669.566   -27749272.245 7 -21195825.57123        22.750           2.906
 91  7 26  1 55 29.9910000  0  3G 3G17G23
  18119271.323   -13590303.386 7 -10335170.93822        24.000           2.000
  17812030.855   -17002897.163 7 -13249005.25224        25.500           3.781
  18866099.972   -27825827.598 7 -21255479.06323        23.000           2.938
 91  7 26  1 55 44.9910000  0  3G 3G17G23
  18114806.589   -13613764.800 7 -10353452.57122        23.750           1.969
  17804311.347   -17043460.503 7 -13280613.04024        25.500           3.750
  18851550.261   -27902285.971 7 -21315056.97423        22.750           2.906
 91  7 26  1 55 59.9910000  0  3G 3G17G23
  18110366.612   -13637104.064 7 -10371639.02622        23.750           2.094
  17796604.964   -17083953.265 7 -13312165.83424        25.000           3.781
  18837021.089   -27978648.040 7 -21374559.84523        23.750           2.969
 91  7 26  1 56 14.9910000  0  3G 3G17G23
  18105949.167   -13660315.886 7 -10389726.18222        24.000           2.031
  17788914.394   -17124369.925 7 -13343659.32824        25.000           3.656
  18822507.472   -28054908.285 7 -21433983.38123        23.250           3.063
 91  7 26  1 56 29.9910000  0  3G 3G17G23
  18101554.722   -13683402.634 7 -10407715.86722        23.750           2.125
  17781238.651   -17164713.006 7 -13375095.48624        25.500           3.688
  18808015.237   -28131069.070 7 -21493329.40923        23.500           3.156
 91  7 26  1 56 44.9910000  0  3G 3G17G23
  18097184.456   -13706366.140 7 -10425609.52622        23.500           2.000
  17773574.503   -17204984.460 7 -13406475.83424        25.500           3.719
  18793541.956   -28207131.829 7 -21552599.04823        23.500           3.063
 91  7 26  1 56 59.9910000  0  3G 3G17G23
  18092839.823   -13729206.919 7 -10443407.54722        23.750           2.125
  17765925.167   -17245185.256 7 -13437801.12224        25.750           3.656
  18779083.191   -28283097.589 7 -21611793.11423        23.000           3.031
 91  7 26  1 57 14.9910000  0  3G 3G17G23
  18088516.753   -13751918.208 7 -10461104.66522        22.750           2.031
  17758289.245   -17285308.117 7 -13469065.68224        25.750           3.594
  18764650.105   -28358958.986 7 -21670905.85523        23.750           3.125
 91  7 26  1 57 29.9910000  0  3G 3G17G23
  18084217.066   -13774510.306 7 -10478708.91122        23.500           2.125
  17750668.862   -17325363.543 7 -13500277.69624        26.500           3.625
  18750230.526   -28434726.214 7 -21729945.21223        23.250           3.063
 91  7 26  1 57 44.9910000  0  3G 3G17G23
  18079942.644   -13796976.307 7 -10496214.89722        23.750           2.000
  17743058.394   -17365344.803 7 -13531431.91824        26.250           3.656
  18735831.042   -28510392.389 7 -21788905.83523        22.750           3.063
 91  7 26  1 57 59.9910000  0  3G 3G17G23
  18075689.722   -13819317.812 7 -10513623.87322        23.250           1.969
  17735465.878   -17405253.636 7 -13562529.71024        26.250           3.625
  18721452.776   -28585959.068 7 -21847788.92423        23.750           3.188
 91  7 26  1 58 14.9910000  0  3G 3G17G23
  18071463.784   -13841532.881 7 -10530934.33622        23.750           1.938
  17727882.870   -17445088.015 7 -13593569.47824        25.750           3.656
  18707091.151   -28661424.279 7 -21906592.95423        24.250           3.219
 91  7 26  1 58 29.9910000  0  3G 3G17G23
  18067261.237   -13863622.170 7 -10548146.77722        23.750           2.031
  17720318.456   -17484848.514 7 -13624551.68324        26.000           3.500
  18692750.628   -28736788.357 7 -21965318.17523        23.500           3.219
 91  7 26  1 58 44.9910000  0  3G 3G17G23
  18063081.183   -13885590.675 7 -10565265.10622        24.000           2.000
  17712765.253   -17524540.388 7 -13655480.40724        25.500           3.719
  18678425.667   -28812056.292 7 -22023968.47223        23.750           3.188
 91  7 26  1 58 59.9910000  0  3G 3G17G23
  18058922.612   -13907437.603 7 -10582288.69222        23.500           2.031
  17705223.925   -17564162.808 7 -13686355.01724        25.750           3.719
  18664122.026   -28887227.269 7 -22082543.23323        24.000           3.250
 91  7 26  1 59 14.9910000  0  3G 3G17G23
  18054787.862   -13929157.590 7 -10599213.36822        23.250           1.938
  17697699.120   -17603710.452 7 -13717171.35224        25.250           3.656
  18649839.261   -28962295.694 7 -22141038.07623        24.750           3.250
 91  7 26  1 59 29.9910000  0  3G 3G17G23
  18050680.659   -13950751.990 7 -10616040.18822        24.000           2.031
  17690189.066   -17643184.909 7 -13747930.66624        25.250           3.688
  18635570.566   -29037262.956 7 -22199454.08523        24.500           3.281
 91  7 26  1 59 44.9910000  0  3G 3G17G23
  18046596.066   -13972219.964 7 -10632768.48922        24.000           1.969
  17682689.292   -17682585.350 7 -13778632.29924        25.000           3.813
  18621325.183   -29112128.016 7 -22257790.47123        24.500           3.219
 91  7 26  1 59 59.9910000  0  3G 3G17G23
  18042531.276   -13993565.877 7 -10649401.67422        23.500           1.844
  17675207.034   -17721916.172 7 -13809279.68724        25.750           3.750
  18607095.816   -29186895.306 7 -22316050.66423        24.250           3.406
 91  7 26  2  0 14.9910000  0  3G 3G17G23
  18038491.011   -14014791.310 7 -10665940.98122        23.250           1.906
  17667736.378   -17761178.898 7 -13839874.00824        25.250           3.750
  18592888.675   -29261566.111 7 -22374235.66823        25.250           3.344
 91  7 26  2  0 29.9910000  0  3G 3G17G23
  18034481.558   -14035886.620 7 -10682378.90122        24.250           1.844
  17660277.722   -17800364.036 7 -13870407.88424        25.000           3.750
  18578699.597   -29336130.787 7 -22432337.98423        24.750           3.250
 91  7 26  2  0 44.9910000  0  3G 3G17G23
  18030489.105   -14056853.776 7 -10698716.95422        23.500           2.000
  17652833.331   -17839473.565 7 -13900882.83024        25.250           3.844
  18564530.480   -29410591.224 7 -22490359.07123        24.750           3.250
 91  7 26  2  0 59.9910000  0  3G 3G17G23
  18026522.511   -14077695.679 7 -10714957.41322        23.000           1.844
  17645407.261   -17878510.545 7 -13931301.25424        26.000           3.719
  18550380.230   -29484950.253 7 -22548301.13423        24.750           3.344
 91  7 26  2  1 14.9910000  0  3G 3G17G23
  18022581.167   -14098413.465 7 -10731101.15722        24.000           1.938
  17637992.847   -17917475.909 7 -13961663.87024        26.000           3.688
  18536248.394   -29559208.785 7 -22606164.89423        24.000           3.375
 91  7 26  2  1 29.9910000  0  3G 3G17G23
  18018664.495   -14119005.572 7 -10747146.97022        24.500           1.906
  17630591.987   -17956368.159 7 -13991969.51724        26.000           3.656
  18522137.909   -29633365.153 7 -22663949.04623        24.250           3.219
 91  7 26  2  1 44.9910000  0  3G 3G17G23
  18014766.370   -14139474.102 7 -10763096.48522        23.500           1.906
  17623204.909   -17995189.729 7 -14022220.08524        26.500           3.688
  18508045.519   -29707421.703 7 -22721655.42123        24.500           3.344
 91  7 26  2  1 59.9900000  0  3G 3G17G23
  18010896.123   -14159818.405 7 -10778949.20322        23.750           1.906
  17615830.811   -18033938.468 7 -14052413.90124        26.500           3.656
  18493971.357   -29781373.800 7 -22779280.40023        23.750           3.188
 91  7 26  2  2 14.9900000  0  3G 3G17G23
  18007050.779   -14180035.834 7 -10794703.06222        24.250           1.875
  17608470.654   -18072614.323 7 -14082550.92824        26.000           3.531
  18479918.693   -29855225.834 7 -22836827.40423        24.250           3.156
 91  7 26  2  2 29.9900000  0  3G 3G17G23
  18003226.834   -14200124.315 7 -10810356.43422        24.000           1.969
  17601124.365   -18111214.249 7 -14112628.79024        26.000           3.750
  18465885.279   -29928972.048 7 -22894291.95623        24.000           3.188
 91  7 26  2  2 44.9900000  0  3G 3G17G23
  17999427.170   -14220082.853 7 -10825908.56322        24.250           1.781
  17593794.818   -18149737.112 7 -14142646.59724        26.000           3.781
  18451871.037   -30002611.352 7 -22951673.20323        23.250           3.188
 91  7 26  2  2 59.9900000  0  3G 3G17G23
  17995655.654   -14239913.308 7 -10841360.87622        24.500           1.813
  17586477.756   -18188184.857 7 -14172605.87624        25.000           3.813
  18437879.529   -30076145.491 7 -23008972.49723        24.500           3.125
 91  7 26  2  3 14.9900000  0  3G 3G17G23
  17991905.865   -14259617.098 7 -10856714.49922        24.000           1.656
  17579175.022   -18226558.740 7 -14202507.59624        25.000           3.531
  18423906.693   -30149575.779 7 -23066190.87623        24.750           2.969
 91  7 26  2  3 29.9900000  0  3G 3G17G23
  17988181.803   -14279189.070 7 -10871965.39922        24.250           1.875
  17571887.568   -18264853.771 7 -14232347.87224        25.000           3.781
  18409951.584   -30222897.074 7 -23123324.32323        24.000           3.188
 91  7 26  2  3 44.9900000  0  3G 3G17G23
  17984479.522   -14298636.447 7 -10887119.21322        23.500           1.750
  17564614.186   -18303077.250 7 -14262132.39324        25.750           3.719
  18396019.928   -30296116.582 7 -23180378.44923        25.000           3.156
 91  7 26  2  3 59.9900000  0  3G 3G17G23
  17980805.076   -14317960.126 7 -10902176.64822        24.250           1.813
  17557353.584   -18341229.928 7 -14291861.74324        25.000           3.875
  18382106.272   -30369234.743 7 -23237353.61623        24.750           3.188
 91  7 26  2  4 14.9900000  0  3G 3G17G23
  17977150.592   -14337156.622 7 -10917134.96922        24.000           1.719
  17550109.287   -18379308.495 7 -14321533.35224        25.750           3.719
  18368210.764   -30442248.040 7 -23294247.06723        24.500           3.125
 91  7 26  2  4 29.9900000  0  3G 3G17G23
  17973521.373   -14356226.856 7 -10931994.90122        23.250           1.813
  17542876.225   -18417314.127 7 -14351148.12324        25.750           3.688
  18354337.053   -30515157.546 7 -23351059.63823        24.500           3.188
 91  7 26  2  4 44.9900000  0  3G 3G17G23
  17969915.670   -14375166.623 7 -10946753.17822        23.000           1.781
  17535656.709   -18455242.483 7 -14380702.68324        26.000           3.781
  18340482.709   -30587958.946 7 -23407787.97423        24.500           3.156
 91  7 26  2  4 59.9900000  0  3G 3G17G23
  17966336.490   -14393980.225 7 -10961413.14722        23.500           1.813
  17528455.545   -18493097.948 7 -14410200.44224        25.750           3.750
  18326648.990   -30660656.318 7 -23464435.24523        24.750           3.156
 91  7 26  2  5 14.9900000  0  3G 3G17G23
  17962781.897   -14412667.004 7 -10975974.28722        23.750           1.875
  17521264.881   -18530879.679 7 -14439640.74824        25.500           3.563
  18312835.615   -30733248.903 7 -23521000.87123        24.750           3.188
 91  7 26  2  5 29.9900000  0  3G 3G17G23
  17959251.779   -14431222.250 7 -10990432.93722        24.250           1.875
  17514090.350   -18568583.155 7 -14469020.07724        25.750           3.594
  18299040.943   -30805731.911 7 -23577481.10623        23.750           3.156
 91  7 26  2  5 44.9900000  0  3G 3G17G23
  17955744.514   -14449647.007 7 -11004789.91122        23.750           1.781
  17506931.170   -18606209.329 7 -14498339.16724        25.500           3.719
  18285269.811   -30878106.061 7 -23633876.51523        24.250           3.188
 91  7 26  2  5 59.9900000  0  3G 3G17G23
  17952263.686   -14467943.346 7 -11019046.81322        24.000           1.813
  17499784.553   -18643760.215 7 -14527599.59824        25.750           3.656
  18271516.022   -30950373.498 7 -23690188.78123        23.750           3.125
 91  7 26  2  6 14.9900000  0  3G 3G17G23
  17948805.451   -14486111.296 7 -11033203.68022        23.750           1.875
  17492654.639   -18681235.941 7 -14556801.45324        25.750           3.719
  18257787.264   -31022534.217 7 -23746417.87723        24.250           3.250
 91  7 26  2  6 29.9900000  0  3G 3G17G23
  17945372.303   -14504150.034 7 -11047259.85722        23.250           1.719
  17485536.998   -18718635.447 7 -14585943.92724        25.500           3.656
  18244075.295   -31094587.075 7 -23802562.93323        25.000           3.188
 91  7 26  2  6 44.9900000  0  3G 3G17G23
  17941964.584   -14522061.543 7 -11061216.89622        23.250           1.875
  17478432.647   -18755961.275 7 -14615028.98124        25.500           3.656
  18230384.647   -31166534.204 7 -23858625.60823        24.500           3.219
 91  7 26  2  6 59.9900000  0  3G 3G17G23
  17938579.272   -14539848.403 7 -11075076.80222        23.000           1.813
  17471344.170   -18793215.861 7 -14644058.52324        25.750           3.781
  18216712.389   -31238377.946 7 -23914607.70923        24.500           3.313
 91  7 26  2  7 14.9900000  0  3G 3G17G23
  17935220.170   -14557501.797 7 -11088832.72022        23.000           1.813
  17464271.537   -18830390.472 7 -14673025.74824        26.000           3.906
  18203063.553   -31310109.363 7 -23970502.29323        24.250           3.281
 91  7 26  2  7 29.9900000  0  3G 3G17G23
  17931886.467   -14575026.644 7 -11102488.46422        23.750           1.813
  17457210.709   -18867489.828 7 -14701934.33324        26.000           3.844
  18189432.357   -31381733.299 7 -24026313.11923        23.750           3.188
 91  7 26  2  7 44.9900000  0  3G 3G17G23
  17928577.311   -14592419.276 7 -11116041.17722        23.500           1.813
  17450165.631   -18904510.326 7 -14730781.47424        26.000           3.813
  18175824.764   -31453246.011 7 -24082037.28423        24.000           3.313
 91  7 26  2  7 59.9900000  0  3G 3G17G23
  17925289.600   -14609683.370 7 -11129493.73622        23.000           1.781
  17443137.350   -18941455.685 7 -14759570.06124        26.500           3.875
  18162235.404   -31524651.128 7 -24137677.60323        23.250           3.469
 91  7 26  2  8 14.9900000  0  3G 3G17G23
  17922028.678   -14626819.440 7 -11142846.53822        22.750           1.813
  17436118.779   -18978326.336 7 -14788300.43524        26.500           3.875
  18148667.826   -31595948.984 7 -24193234.33923        23.500           3.344
 91  7 26  2  8 29.9900000  0  3G 3G17G23
  17918794.670   -14643823.546 7 -11156096.51022        23.750           1.781
  17429116.764   -19015118.387 7 -14816969.55724        26.000           3.875
  18135122.506   -31667135.195 7 -24248704.08623        23.250           3.406
 91  7 26  2  8 44.9900000  0  3G 3G17G23
  17915582.225   -14660700.553 7 -11169247.44022        23.250           1.844
  17422129.748   -19051836.719 7 -14845581.24324        26.250           3.813
  18121596.287   -31738214.828 7 -24304090.78023        23.000           3.438
 91  7 26  2  8 59.9900000  0  3G 3G17G23
  17912394.592   -14677452.745 7 -11182301.10922        23.500           1.750
  17415155.084   -19088483.763 7 -14874137.37824        25.750           3.781
  18108091.357   -31809190.161 7 -24359396.19524        23.500           3.500
 91  7 26  2  9 14.9900000  0  3G 3G17G23
  17909232.889   -14694076.449 7 -11195254.66022        24.000           1.781
  17408197.725   -19125055.897 7 -14902635.14924        26.500           3.781
  18094604.686   -31880057.275 7 -24414617.29523        23.000           3.406
 91  7 26  2  9 29.9900000  0  3G 3G17G23
  17906093.397   -14710567.172 7 -11208104.58922        23.500           1.906
  17401253.475   -19161548.745 7 -14931071.12424        26.250           3.750
  18081140.389   -31950811.707 7 -24469750.58924        22.750           3.500
 91  7 26  2  9 44.9900000  0  3G 3G17G23
  17902979.881   -14726926.526 7 -11220852.15322        23.750           1.906
  17394322.357   -19197963.458 7 -14959446.22924        26.000           3.813
  18067696.654   -32021454.764 7 -24524797.09324        23.000           3.563
 91  7 26  2  9 59.9900000  0  3G 3G17G23
  17899892.826   -14743150.619 7 -11233494.32422        23.750           1.813
  17387408.873   -19234296.321 7 -14987757.54624        26.000           3.719
  18054276.178   -32091982.395 7 -24579753.65724        23.000           3.500
 91  7 26  2 10 14.9900000  0  3G 3G17G23
  17896830.436   -14759245.721 7 -11246035.97822        23.250           1.813
  17380510.248   -19270553.638 7 -15016010.00924        26.250           3.781
  18040876.756   -32162401.035 7 -24634625.29023        23.000           3.406
 91  7 26  2 10 29.9900000  0  3G 3G17G23
  17893792.693   -14775207.107 7 -11258473.43922        23.500           1.813
  17373626.248   -19306730.742 7 -15044199.96024        26.500           3.688
  18027498.428   -32232705.703 7 -24689408.12224        23.500           3.625
 91  7 26  2 10 44.9900000  0  3G 3G17G23
  17890778.498   -14791041.175 7 -11270811.68922        22.750           1.844
  17366755.779   -19342833.970 7 -15072332.34724        26.250           3.844
  18014139.889   -32302902.757 7 -24744107.09124        23.500           3.563
 91  7 26  2 10 59.9890000  0  3G 3G17G23
  17887789.407   -14806750.236 7 -11283052.53322        23.250           1.781
  17359899.548   -19378864.162 7 -15100407.83024        26.000           3.813
  18000802.493   -32372990.481 7 -24798720.86724        23.750           3.563
 91  7 26  2 11 14.9890000  0  3G 3G17G23
  17884826.110   -14822327.189 7 -11295190.43322        22.750           1.781
  17353057.907   -19414816.992 7 -15128423.01524        26.000           3.625
  17987484.704   -32442969.059 7 -24853249.60124        23.750           3.625
 91  7 26  2 11 29.9890000  0  3G 3G17G23
  17881885.306   -14837774.915 7 -11307227.63622        22.500           1.750
  17346230.235   -19450694.124 7 -15156379.22024        26.250           3.781
  17974189.853   -32512837.687 7 -24907692.65524        23.250           3.750
 91  7 26  2 11 44.9890000  0  3G 3G17G23
  17878970.790   -14853092.081 7 -11319163.11122        23.000           1.781
  17339417.454   -19486493.970 7 -15184275.20824        25.500           3.875
  17960917.478   -32582594.958 7 -24962048.93724        24.000           3.531
 91  7 26  2 11 59.9890000  0  3G 3G17G23
  17876082.860   -14868269.199 7 -11330989.45722        22.750           1.844
  17332621.415   -19522207.203 7 -15212103.69824        25.750           3.906
  17947663.689   -32652231.422 7 -25016311.08824        23.250           3.563
 91  7 26  2 12 14.9890000  0  3G 3G17G23
  17873218.798   -14883319.298 7 -11342716.82222        22.500           1.688
  17325840.446   -19557846.826 7 -15239874.83424        25.750           3.875
  17934434.321   -32721759.774 7 -25070488.98924        24.000           3.719
 91  7 26  2 12 29.9890000  0  3G 3G17G23
  17870380.196   -14898234.054 7 -11354338.72322        23.000           1.875
  17319072.876   -19593404.675 7 -15267582.24824        25.250           3.875
  17921224.860   -32791171.781 7 -25124576.23523        24.000           3.438
 91  7 26  2 12 44.9890000  0  3G 3G17G23
  17867569.548   -14913017.945 7 -11365858.65822        23.250           1.750
  17312322.056   -19628884.940 7 -15295229.20824        25.750           3.938
  17908037.571   -32860471.352 7 -25178575.87323        23.750           3.469
 91  7 26  2 12 59.9890000  0  3G 3G17G23
  17864780.704   -14927671.637 7 -11377277.13522        23.000           1.813
  17305583.376   -19664288.471 7 -15322816.37624        25.500           3.844
  17894870.517   -32929659.394 7 -25232488.60423        24.250           3.406
 91  7 26  2 13 14.9890000  0  3G 3G17G23
  17862016.056   -14942190.922 7 -11388590.87322        23.000           1.750
  17298862.001   -19699610.976 7 -15350340.40524        26.000           3.813
  17881728.446   -32998731.418 7 -25286310.93323        24.250           3.469
 91  7 26  2 13 29.9890000  0  3G 3G17G23
  17859279.540   -14956581.343 7 -11399804.21022        23.250           1.688
  17292156.384   -19734857.883 7 -15377805.53024        26.000           3.813
  17868604.056   -33067693.151 7 -25340047.31723        23.750           3.344
 91  7 26  2 13 44.9890000  0  3G 3G17G23
  17856567.259   -14970836.163 7 -11410911.88122        23.500           1.813
  17285464.532   -19770022.549 7 -15405206.57024        26.000           4.000
  17855505.407   -33136537.421 7 -25393692.17623        24.750           3.344
 91  7 26  2 13 59.9890000  0  3G 3G17G23
  17853877.134   -14984956.033 7 -11421914.39822        22.750           1.750
  17278787.728   -19805105.799 7 -15432544.16624        26.250           3.906
  17842426.181   -33205265.010 7 -25447246.11323        24.750           3.406
 91  7 26  2 14 14.9890000  0  3G 3G17G23
  17851216.181   -14998943.977 7 -11432814.11122        22.500           1.781
  17272127.876   -19840110.300 7 -15459820.40224        26.500           3.969
  17829368.782   -33273878.546 7 -25500711.17423        24.250           3.375
 91  7 26  2 14 29.9890000  0  3G 3G17G23
  17848580.657   -15012794.919 7 -11443607.06922        22.750           1.656
  17265481.243   -19875030.956 7 -15487031.30724        25.750           3.938
  17816334.485   -33342372.938 7 -25554083.40223        24.500           3.375
 91  7 26  2 14 44.9890000  0  3G 3G17G23
  17845970.564   -15026517.269 7 -11454299.83022        22.750           1.656
  17258850.814   -19909876.291 7 -15514183.51924        26.250           3.875
  17803321.876   -33410756.452 7 -25607369.23224        24.500           3.563
 91  7 26  2 14 59.9890000  0  3G 3G17G23
  17843381.681   -15040110.517 7 -11464891.99422        22.250           1.625
  17252234.931   -19944645.613 7 -15541276.49424        26.250           3.844
  17790331.524   -33479028.688 7 -25660568.34223        25.250           3.438
 91  7 26  2 15 14.9890000  0  3G 3G17G23
  17840823.548   -15053569.770 7 -11475379.74322        23.250           1.531
  17245633.439   -19979334.164 7 -15568306.53524        25.750           3.938
  17777360.454   -33547184.436 7 -25713676.69223        24.750           3.344
 91  7 26  2 15 29.9890000  0  3G 3G17G23
  17838286.720   -15066897.962 7 -11485765.36622        23.000           1.531
  17239047.079   -20013944.823 7 -15595275.87824        25.750           3.813
  17764411.985   -33615226.483 7 -25766696.44324        24.750           3.563
 91  7 26  2 15 44.9890000  0  3G 3G17G23
  17835777.259   -15080091.277 7 -11496045.89622        23.500           1.563
  17232474.587   -20048473.581 7 -15622181.40524        25.500           3.875
  17751487.532   -33683150.904 7 -25819624.53123        25.000           3.406
 91  7 26  2 15 59.9890000  0  3G 3G17G23
  17833289.939   -15093149.496 7 -11506221.14922        23.000           1.531
  17225921.274   -20082920.369 7 -15649023.05424        26.000           3.844
  17738583.548   -33750957.607 7 -25872460.89623        24.500           3.313
 91  7 26  2 16 14.9890000  0  3G 3G17G23
  17830829.282   -15106076.648 7 -11516294.27922        22.750           1.531
  17219382.696   -20117289.344 7 -15675804.06824        26.250           4.000
  17725702.657   -33818650.367 7 -25925208.47123        25.000           3.250
 91  7 26  2 16 29.9890000  0  3G 3G17G23
  17828396.751   -15118869.234 7 -11526262.55422        22.750           1.563
  17212856.329   -20151576.812 7 -15702521.57724        26.250           3.938
  17712844.321   -33886225.431 7 -25977864.34023        25.000           3.344
 91  7 26  2 16 44.9890000  0  3G 3G17G23
  17825985.220   -15131528.470 7 -11536126.91422        22.500           1.531
  17206348.782   -20185784.074 7 -15729176.58424        26.500           3.938
  17700005.321   -33953684.072 7 -26030429.48323        24.750           3.281
 91  7 26  2 16 59.9890000  0  3G 3G17G23
  17823603.962   -15144049.792 7 -11545883.81222        22.500           1.688
  17199854.282   -20219906.256 7 -15755765.29524        26.500           4.031
  17687192.970   -34021021.442 7 -26082900.13823        25.000           3.344
 91  7 26  2 17 14.9890000  0  3G 3G17G23
  17821246.360   -15156438.947 7 -11555537.72022        22.000           1.719
  17193375.392   -20253949.338 7 -15782292.37524        26.500           3.938
  17674401.157   -34088243.232 7 -26135280.72923        24.750           3.156
 91  7 26  2 17 29.9890000  0  3G 3G17G23
  17818915.501   -15168693.786 7 -11565086.96822        22.500           1.531
  17186912.673   -20287910.858 7 -15808755.89024        26.750           3.813
  17661629.439   -34155347.022 7 -26187569.36623        24.500           3.094
 91  7 26  2 17 44.9890000  0  3G 3G17G23
  17816609.462   -15180817.018 7 -11574533.66622        22.500           1.625
  17180464.970   -20321793.757 7 -15835158.14824        26.500           3.875
  17648884.165   -34222335.501 7 -26239768.15423        24.750           3.313
 91  7 26  2 17 59.9890000  0  3G 3G17G23
  17814326.689   -15192807.000 7 -11583876.53922        21.750           1.594
  17174032.485   -20355596.144 7 -15861497.67024        26.500           3.969
  17636159.360   -34289207.084 7 -26291875.85623        25.000           3.156
 91  7 26  2 18 14.9890000  0  3G 3G17G23
  17812068.634   -15204664.101 7 -11593115.86122        22.000           1.656
  17167617.524   -20389318.601 7 -15887774.90624        26.750           3.875
  17623454.579   -34355961.824 7 -26343892.50623        24.750           3.313
 91  7 26  2 18 29.9890000  0  3G 3G17G23
  17809839.446   -15216385.603 7 -11602249.52722        21.750           1.625
  17161214.079   -20422958.209 7 -15913987.58724        26.250           3.906
  17610773.626   -34422596.689 7 -26395815.75423        24.750           3.250
 91  7 26  2 18 44.9890000  0  3G 3G17G23
  17807634.376   -15227973.120 7 -11611278.78522        21.500           1.563
  17154828.415   -20456516.506 7 -15940136.90624        26.500           3.906
  17598116.587   -34489113.578 7 -26447647.07123        25.000           3.375
 91  7 26  2 18 59.9890000  0  3G 3G17G23
  17805455.103   -15239424.525 7 -11620201.98222        21.750           1.625
  17148457.743   -20489991.329 7 -15966221.18024        26.250           3.938
  17585483.220   -34555510.121 7 -26499384.60723        25.000           3.344
 91  7 26  2 19 14.9890000  0  3G 3G17G23
  17803302.064   -15250743.286 7 -11629021.82322        22.500           1.656
  17142103.282   -20523386.293 7 -15992243.22924        26.250           4.000
  17572868.603   -34621789.697 7 -26551031.00423        24.250           3.281
 91  7 26  2 19 29.9890000  0  3G 3G17G23
  17801173.368   -15261928.089 7 -11637737.28222        22.000           1.594
  17135764.556   -20556699.859 7 -16018201.84724        26.500           4.063
  17560278.712   -34687950.883 7 -26602585.14823        24.750           3.344
 91  7 26  2 19 44.9890000  0  3G 3G17G23
  17799070.720   -15272977.428 7 -11646347.18322        22.250           1.625
  17129440.845   -20589930.530 7 -16044095.87324        26.750           4.000
  17547711.603   -34753991.974 7 -26654045.71223        24.250           3.375
 91  7 26  2 19 59.9890000  0  4G 3G21G17G23
  17796993.415   -15283891.238 7 -11654851.47322        22.500           1.531
  21150346.798          -0.04014                         7.250
  17123132.915   -20623078.052 7 -16069925.10724        26.750           4.063
  17535166.220   -34819912.761 7 -26705412.52723        24.250           3.344
 91  7 26  2 20 14.9880000  0  4G 3G21G17G23
  17794943.051   -15294674.102 7 -11663253.72522        22.500           1.688
  21132509.434      -93750.042 4                         6.500
  17116839.934   -20656145.807 7 -16095692.18724        26.250           3.938
  17522645.770   -34885714.077 7 -26756686.25023        24.500           3.375
 91  7 26  2 20 29.9880000  0  4G 3G21G17G23
  17792914.770   -15305323.557 7 -11671552.02522        22.000           1.688
  21114671.434     -187461.938 3                         6.000
  17110563.379   -20689134.114 7 -16121397.36324        26.500           3.938
  17510146.996   -34951400.577 7 -26807870.51123        24.750           3.469
 91  7 26  2 20 44.9880000  0  4G 3G21G17G23
  17790913.449   -15315843.193 7 -11679749.17522        22.500           1.594
  21096848.254     -281133.373 3                         6.000
  17104302.551   -20722044.554 7 -16147041.86024        27.250           3.906
  17497669.660   -35016972.022 7 -26858965.11623        24.750           3.406
 91  7 26  2 20 59.9880000  0  4G 3G21G17G23
  17788938.035   -15326227.215 7 -11687840.63822        22.500           1.531
  21079036.215     -374758.581 4        -0.33331         6.500           0.281
  17098052.559   -20754871.831 7 -16172621.54824        26.500           3.813
  17485213.293   -35082422.684 7 -26909965.61424        24.500           3.500
 91  7 26  2 21 14.9880000  0  4G 3G21G17G23
  17786986.434   -15336477.745 7 -11695828.08622        23.250           1.594
  21061224.606     -468339.221 4    -72920.10721         6.500           0.281
  17091820.371   -20787617.923 7 -16198137.98224        26.000           3.875
  17472781.223   -35147754.439 7 -26960873.44524        24.250           3.500
 91  7 26  2 21 29.9880000  0  4G 3G21G17G23
  17785062.152   -15346596.374 7 -11703712.75522        23.250           1.594
  21043427.598     -561876.750 4   -145806.31021         6.250           0.281
  17085604.465   -20820284.262 7 -16223592.27224        26.500           3.813
  17460372.809   -35212968.831 7 -27011689.82923        24.750           3.438
 91  7 26  2 21 44.9880000  0  4G 3G21G17G23
  17783161.754   -15356579.633 7 -11711491.95022        22.750           1.594
  21025635.074     -655367.376 3   -218655.92721         6.000           0.281
  17079406.777   -20852867.303 7 -16248981.65324        27.000           3.781
  17447983.801   -35278062.269 7 -27062411.96523        24.750           3.406
 91  7 26  2 21 59.9880000  0  4G 3G21G17G23
  17781287.871   -15366427.263 7 -11719165.45522        22.250           1.531
  21007849.043     -748810.632 3   -291468.67121         5.250           0.344
  17073222.824   -20885366.628 7 -16274305.80524        27.000           3.813
  17435620.238   -35343034.331 7 -27113039.51823        25.000           3.438
 91  7 26  2 22 14.9880000  0  4G 3G21G17G23
  17779441.192   -15376140.962 7 -11726734.59322        22.500           1.563
  20990080.004     -842207.837 3   -364245.48621         6.000           0.250
  17067053.582   -20917784.004 7 -16299566.09724        27.000           3.938
  17423280.106   -35407886.383 7 -27163573.56023        25.000           3.406
 91  7 26  2 22 29.9880000  0  4G 3G21G17G23
  17777615.379   -15385721.248 7 -11734199.77022        22.000           1.500
  20972314.848     -935559.287 4   -436986.65921         6.750           0.313
  17060899.934   -20950119.977 7 -16324762.96024        27.000           3.844
  17410962.965   -35472619.055 7 -27214014.57823        25.500           3.469
 91  7 26  2 22 44.9880000  0  4G 3G21G17G23
  17775818.652   -15395167.150 7 -11741560.23522        22.250           1.531
  20954560.613    -1028863.822 5   -509691.30121         7.500           0.281
  17054761.559   -20982373.547 7 -16349895.61124        26.500           3.969
  17398666.293   -35537231.107 7 -27264361.60124        25.500           3.531
 91  7 26  2 22 59.9880000  0  4G 3G21G17G23
  17774047.559   -15404476.650 7 -11748814.41722        22.250           1.531
  20936810.809    -1122119.317 5   -582357.74721         7.500           0.219
  17048640.199   -21014542.415 7 -16374962.26224        26.500           4.000
  17386393.973   -35601720.573 7 -27314613.10424        25.500           3.500
 91  7 26  2 23 14.9880000  0  4G 3G21G17G23
  17772301.402   -15413652.248 7 -11755964.25822        22.250           1.625
  20919075.840    -1215327.851 5   -654987.56721         8.000           0.281
  17042534.238   -21046629.180 7 -16399964.93524        26.500           4.094
  17374146.707   -35666089.773 7 -27364770.89723        26.000           3.469
 91  7 26  2 23 29.9880000  0  4G 3G21G17G23
  17770582.223   -15422688.193 7 -11763005.27921        22.500           1.438
  20901347.043    -1308483.416 5   -727576.11121         8.000           0.219
  17036445.949   -21078627.777 7 -16424898.90424        26.250           4.063
  17361920.449   -35730332.728 7 -27414830.31624        25.750           3.500
 91  7 26  2 23 44.9880000  0  4G 3G21G17G23
  17768887.918   -15431590.585 7 -11769942.23021        22.000           1.406
  20883625.543    -1401592.097 5   -800128.16221         8.750           0.156
  17030372.793   -21110544.602 7 -16449769.15124        26.250           4.094
  17349717.184   -35794455.681 7 -27464796.22924        25.500           3.563
 91  7 26  2 23 59.9880000  0  4G 3G21G17G23
  17767218.223   -15440361.937 7 -11776777.07222        21.750           1.594
  20865921.387    -1494655.869 5   -872645.20621         9.000           0.156
  17024313.652   -21142381.934 7 -16474577.46024        26.000           4.063
  17337539.137   -35858460.689 7 -27514670.23523        26.000           3.469
 91  7 26  2 24 14.9880000  0  4G 3G21G17G23
  17765575.809   -15448996.875 7 -11783505.61822        22.750           1.531
  20848220.293    -1587669.243 5   -945123.04321         9.000           0.188
  17018270.215   -21174134.289 7 -16499319.55224        25.500           4.125
  17325381.926   -35922342.546 7 -27564448.28124        25.500           3.531
 91  7 26  2 24 29.9880000  0  4G 3G21G17G23
  17763959.856   -15457497.616 7 -11790129.59822        22.500           1.563
  20830528.684    -1680634.146 5  -1017563.03221         8.500           0.156
  17012243.535   -21205803.890 7 -16523997.16224        26.000           4.094
  17313249.223   -35986103.135 7 -27614131.83524        25.250           3.531
 91  7 26  2 24 44.9880000  0  4G 3G21G17G23
  17762365.238   -15465864.617 7 -11796649.36422        22.000           1.500
  20812846.574    -1773550.827 5  -1089965.48121         8.500           0.219
  17006233.934   -21237391.192 7 -16548610.64124        26.500           3.969
  17301139.277   -36049742.824 7 -27663721.17324        25.500           3.500
 91  7 26  2 24 59.9880000  0  4G 3G21G17G23
  17760797.348   -15474102.556 7 -11803068.55821        21.750           1.281
  20795178.848    -1866423.568 5  -1162333.67621         8.750           0.281
  17000237.770   -21268900.609 7 -16573163.43424        26.250           3.938
  17289051.301   -36113266.074 7 -27713219.78224        25.750           3.500
 91  7 26  2 25 14.9880000  0  4G 3G21G17G23
  17759256.340   -15482203.384 7 -11809380.91221        21.750           1.438
  20777513.231    -1959243.981 5  -1234661.09621         9.000           0.250
  16994257.285   -21300324.080 7 -16597649.25624        26.750           3.750
  17276986.707   -36176664.599 7 -27762621.20823        25.750           3.344
 91  7 26  2 25 29.9880000  0  4G 3G21G17G23
  17757741.488   -15490167.729 7 -11815586.92522        21.750           1.531
  20759855.738    -2052012.710 5  -1306948.24121         8.750           0.406
  16988294.543   -21331662.233 7 -16622068.59724        26.500           3.844
  17264944.574   -36239939.192 7 -27811926.05923        25.500           3.469
 91  7 26  2 25 44.9880000  0  4G 3G21G17G23
  17756251.160   -15497999.757 7 -11821689.83022        21.750           1.563
  20742215.754    -2144733.421 5  -1379197.98521         8.750           0.344
  16982345.473   -21362919.062 7 -16646424.57124        26.500           3.969
  17252928.449   -36303093.711 7 -27861137.35224        26.000           3.563
 91  7 26  2 25 59.9880000  0  4G 3G21G17G23
  17754784.582   -15505700.665 7 -11827690.56621        21.500           1.313
  20724577.957    -2237407.161 5  -1451411.12621         8.000           0.344
  16976414.481   -21394095.702 7 -16670718.06123        27.000           3.375
  17240932.184   -36366129.335 7 -27910256.00023        26.000           3.281
 91  7 26  2 26 14.9880000  0  4G 3G21G17G23
  17753345.762   -15513267.396 7 -11833586.73021        21.500           1.406
  20706948.777    -2330030.511 4  -1523585.00821         6.750           0.375
  16970497.106   -21425189.080 7 -16694946.66524        27.000           3.906
  17228959.496   -36429042.788 7 -27959279.44224        26.250           3.625
 91  7 26  2 26 29.9880000  0  4G 3G21G17G23
  17751929.082   -15520700.203 7 -11839378.56521        21.000           1.438
  20689334.801    -2422603.402 4  -1595719.53021         6.500           0.344
  16964594.488   -21456199.420 7 -16719110.56724        26.500           3.813
  17217010.848   -36491834.173 7 -28008207.77224        26.500           3.656
 91  7 26  2 26 44.9880000  0  4G 3G21G17G23
  17750542.442   -15527999.450 7 -11845066.31321        21.500           1.375
  20671728.918    -2515126.183 4  -1667815.03321         6.500           0.406
  16958710.840   -21487126.897 7 -16743209.90224        26.500           3.938
  17205086.106   -36554503.992 7 -28057041.37323        26.500           3.469
 91  7 26  2 26 59.9880000  0  4G 3G21G17G23
  17749177.285   -15535162.700 7 -11850648.08721        21.000           1.375
  20654134.004    -2607595.998 4  -1739869.26921         7.000           0.344
  16952841.762   -21517968.944 7 -16767242.66624        26.500           4.000
  17193183.824   -36617049.524 7 -28105778.13123        26.750           3.469
 91  7 26  2 27 14.9880000  0  4G 3G21G17G23
  17747842.527   -15542190.010 7 -11856123.93921        21.000           1.438
  20636545.551    -2700012.601 5  -1811882.04621         7.500           0.438
  16946987.379   -21548725.453 7 -16791208.77624        25.750           3.969
  17181306.012   -36679470.692 7 -28154417.98623        27.000           3.375
 91  7 26  2 27 29.9880000  0  4G 3G21G17G23
  17746528.277   -15549089.970 7 -11861500.56321        21.500           1.438
  20618970.379    -2792384.524 5  -1883860.00521         8.000           0.406
  16941149.949   -21579405.396 7 -16815115.22424        25.750           4.031
  17169448.934   -36741776.039 7 -28202967.57823        26.250           3.438
 91  7 26  2 27 44.9880000  0  4G 3G21G17G23
  17745240.856   -15555855.023 7 -11866772.05722        21.500           1.531
  20601400.676    -2884703.672 5  -1955796.84721         7.750           0.469
  16935327.152   -21610000.885 7 -16838955.86724        25.750           4.063
  17157616.254   -36803957.616 7 -28251420.73623        27.000           3.375
 91  7 26  2 27 59.9880000  0  4G 3G21G17G23
  17743977.231   -15562488.663 7 -11871941.15622        20.750           1.531
  20583840.410    -2976973.370 5  -2027695.16421         7.500           0.438
  16929522.004   -21640515.211 7 -16862733.26124        26.250           4.000
  17145807.512   -36866018.697 7 -28299779.99524        27.250           3.563
 91  7 26  2 28 14.9880000  0  4G 3G21G17G23
  17742740.856   -15568991.703 7 -11877008.48421        21.000           1.469
  20566295.067    -3069194.159 5  -2099555.36321         7.750           0.531
  16923729.910   -21670948.917 7 -16886447.83824        26.250           3.938
  17134019.402   -36927960.135 7 -28348046.03123        26.500           3.344
 91  7 26  2 28 29.9880000  0  4G 3G21G17G23
  17741528.293   -15575360.940 7 -11881971.54622        21.250           1.500
  20548749.059    -3161362.702 5  -2171374.84021         7.750           0.469
  16917954.152   -21701299.108 7 -16910097.33624        26.250           4.000
  17122255.426   -36989778.745 7 -28396216.35824        26.250           3.500
 91  7 26  2 28 44.9880000  0  4G 3G21G17G23
  17740346.324   -15581591.226 7 -11886826.34921        21.500           1.438
  20531221.231    -3253473.325 5  -2243149.18721         7.750           0.563
  16912196.707   -21731560.138 7 -16933677.36524        26.750           4.000
  17110516.918   -37051468.971 7 -28444286.64124        26.500           3.563
 91  7 26  2 28 59.9880000  0  4G 3G21G17G23
  17739186.137   -15587686.069 7 -11891575.60921        21.000           1.469
  20513707.496    -3345529.515 5  -2314881.10821         8.500           0.438
  16906454.309   -21761735.849 7 -16957190.90524        26.750           3.969
  17098800.262   -37113034.371 7 -28492259.66324        26.000           3.500
 91  7 26  2 29 14.9880000  0  4G 3G21G17G23
  17738050.160   -15593645.198 7 -11896219.12021        20.750           1.438
  20496198.410    -3437530.580 5  -2386570.11021         9.000           0.313
  16900727.723   -21791825.428 7 -16980637.33624        26.250           3.875
  17087108.652   -37174474.581 7 -28540135.12923        26.500           3.438
 91  7 26  2 29 29.9880000  0  4G 3G21G17G23
  17736940.832   -15599470.587 7 -11900758.41721        21.000           1.313
  20478703.332    -3529478.171 5  -2458217.43421         9.250           0.406
  16895018.410   -21821831.021 7 -17004018.32424        26.250           3.813
  17075441.418   -37235791.269 7 -28587914.34624        27.000           3.531
 91  7 26  2 29 44.9870000  0  4G 3G21G17G23
  17735858.773   -15605161.318 7 -11905192.77621        20.750           1.219
  20461214.702    -3621365.445 5  -2529817.76721         9.000           0.344
  16889324.023   -21851749.860 7 -17027331.70424        26.500           3.813
  17063797.702   -37296979.925 7 -28635593.79723        26.500           3.438
 91  7 26  2 29 59.9870000  0  4G 3G21G17G23
  17734800.452   -15610718.790 7 -11909523.29921        20.500           1.281
  20443743.718    -3713204.849 5  -2601380.78321         9.000           0.406
  16883647.702   -21881586.437 7 -17050580.99124        26.250           3.938
  17052176.515   -37358048.912 7 -28683179.99823        26.500           3.438
 91  7 26  2 30 14.9870000  0  4G 3G21G17G23
  17733769.288   -15616141.571 7 -11913748.87521        20.750           1.344
  20426274.991    -3804989.177 5  -2672900.87121         9.750           0.344
  16877986.741   -21911337.921 7 -17073763.96824        26.500           3.875
  17040579.874   -37418993.246 7 -28730669.07023        26.000           3.375
 91  7 26  2 30 29.9870000  0  4G 3G21G17G23
  17732764.062   -15621434.201 7 -11917873.03221        21.250           1.344
  20408818.585    -3896722.536 5  -2744381.26321         9.750           0.406
  16872338.304   -21941008.854 7 -17096884.17824        25.500           3.875
  17029003.890   -37479817.234 7 -28778064.36623        26.000           3.281
 91  7 26  2 30 44.9870000  0  4G 3G21G17G23
  17731778.921   -15626594.299 7 -11921893.91921        20.250           1.219
  20391373.999    -3988402.177 5  -2815819.78921         9.500           0.156
  16866710.507   -21970596.346 7 -17119939.37424        26.750           3.969
  17017451.734   -37540518.209 7 -28825363.80823        25.750           3.406
 91  7 26  2 30 59.9870000  0  4G 3G21G17G23
  17730825.718   -15631620.711 7 -11925810.64421        21.000           1.406
  20373939.624    -4080026.923 5  -2887215.54821         9.750           0.219
  16861093.452   -22000099.416 7 -17142928.77724        25.750           4.063
  17005924.069   -37601095.157 7 -28872566.60623        26.000           3.250
 91  7 26  2 31 14.9870000  0  4G 3G21G17G23
  17729893.429   -15636517.661 7 -11929626.48021        20.250           1.375
  20356510.148    -4171600.563 5  -2958571.48021         9.250           0.281
  16855495.546   -22029521.909 7 -17165855.40324        26.250           4.031
  16994421.444   -37661551.904 7 -28919675.73823        26.250           3.250
 91  7 26  2 31 29.9870000  0  4G 3G21G17G23
  17728984.890   -15641282.651 7 -11933339.49321        20.250           1.281
  20339095.976    -4263120.329 5  -3029885.43721         9.250           0.219
  16849912.023   -22058861.265 7 -17188717.23924        26.250           3.969
  16982940.304   -37721885.915 7 -28966689.23023        26.250           3.313
 91  7 26  2 31 44.9870000  0  4G 3G21G17G23
  17728104.655   -15645913.963 7 -11936948.33921        20.750           1.313
  20321690.648    -4354584.269 5  -3101155.91621         9.000           0.219
  16844345.405   -22088115.867 7 -17211513.03924        26.000           4.000
  16971483.249   -37782095.509 7 -29013605.78023        26.500           3.250
 91  7 26  2 31 59.9870000  0  4G 3G21G17G23
  17727246.655   -15650416.892 7 -11940457.14321        20.000           1.344
  20304296.976    -4445997.188 5  -3172386.59021         8.750           0.375
  16838793.859   -22117290.717 7 -17234246.69224        26.250           4.031
  16960047.523   -37842185.539 7 -29060429.16023        26.500           3.219
 91  7 26  2 32 14.9870000  0  4G 3G21G17G23
  17726416.093   -15654782.599 7 -11943859.03421        20.750           1.344
  20286911.913    -4537350.064 5  -3243570.48821         9.000           0.375
  16833259.202   -22146376.981 7 -17256911.31324        26.000           4.000
  16948636.101   -37902147.223 7 -29107152.53123        26.250           3.125
 91  7 26  2 32 29.9870000  0  4G 3G21G17G23
  17725610.218   -15659018.772 7 -11947159.98321        20.250           1.375
  20269539.046    -4628650.291 5  -3314713.35721         9.250           0.344
  16827739.460   -22175382.108 7 -17279512.71624        25.750           3.938
  16937250.976   -37961988.032 7 -29153781.71623        26.750           3.125
 91  7 26  2 32 44.9870000  0  4G 3G21G17G23
  17724829.655   -15663126.831 7 -11950361.10521        20.500           1.281
  20252174.366    -4719898.919 5  -3385816.04421         9.750           0.344
  16822236.101   -22204307.347 7 -17302051.86924        26.500           3.969
  16925884.460   -38021709.209 7 -29200317.67623        26.000           3.188
 91  7 26  2 32 59.9870000  0  4G 3G21G17G23
  17724071.257   -15667104.034 7 -11953460.25221        20.250           1.250
  20234820.749    -4811093.132 5  -3456876.32921         9.750           0.375
  16816747.202   -22233150.038 7 -17324526.69924        26.250           3.906
  16914541.991   -38081307.963 7 -29246758.24923        25.750           3.188
 91  7 26  2 33 14.9870000  0  4G 3G21G17G23
  17723339.734   -15670949.171 7 -11956456.49821        20.500           1.219
  20217476.773    -4902231.287 5  -3527892.93421         9.500           0.281
  16811274.804   -22261908.780 7 -17346936.11024        26.500           3.969
  16903225.523   -38140782.824 7 -29293102.27323        25.750           3.219
 91  7 26  2 33 29.9870000  0  4G 3G21G17G23
  17722632.273   -15674664.789 7 -11959351.82021        20.250           1.281
  20200142.999    -4993315.639 5  -3598867.59921         9.500           0.438
  16805815.991   -22290586.038 7 -17369282.02824        26.000           4.094
  16891932.093   -38200136.289 7 -29339351.70823        26.500           3.250
 91  7 26  2 33 44.9870000  0  4G 3G21G17G23
  17721949.851   -15678245.638 6 -11962142.12721        19.750           1.281
  20182824.343    -5084340.831 5  -3669796.17221         9.250           0.313
  16800375.788   -22319176.865 7 -17391560.60324        26.250           3.969
  16880661.601   -38259363.097 7 -29385502.44923        26.750           3.188
 91  7 26  2 33 59.9870000  0  4G 3G21G17G23
  17721294.069   -15681696.054 7 -11964830.79521        20.000           1.313
  20165509.866    -5175310.693 5  -3740681.64121         9.250           0.406
  16794950.171   -22347684.908 7 -17413774.66624        26.250           3.969
  16869415.069   -38318467.327 7 -29431557.67123        26.500           3.219
 91  7 26  2 34 14.9870000  0  4G 3G21G17G23
  17720664.062   -15685013.451 7 -11967415.80721        20.500           1.313
  20148208.960    -5266222.520 5  -3811521.86321         9.000           0.438
  16789542.359   -22376107.560 7 -17435922.19124        26.250           3.969
  16858190.476   -38377446.348 7 -29477515.33223        26.250           3.156
 91  7 26  2 34 29.9870000  0  4G 3G21G17G23
  17720055.882   -15688207.563 7 -11969904.76021        20.500           1.344
  20130920.749    -5357085.469 5  -3882324.00521         9.750           0.438
  16784148.030   -22404454.315 7 -17458010.58024        26.250           3.938
  16846988.390   -38436309.461 7 -29523382.68723        26.000           3.125
 91  7 26  2 34 44.9870000  0  4G 3G21G17G23
  17719470.796   -15691271.240 6 -11972292.06721        19.750           1.344
  20113641.085    -5447892.261 5  -3953082.40821         9.750           0.438
  16778769.218   -22432718.255 7 -17480034.43324        26.000           4.000
  16835811.273   -38495049.693 7 -29569154.26523        26.250           3.156
 91  7 26  2 34 59.9870000  0  4G 3G21G17G23
  17718915.171   -15694201.582 7 -11974575.48121        20.000           1.313
  20096369.663    -5538639.715 5  -4023794.56021        10.000           0.469
  16773406.538   -22460896.163 7 -17501991.24824        25.750           3.969
  16824656.718   -38553663.904 7 -29614827.66123        26.000           3.188
 91  7 26  2 35 14.9870000  0  4G 3G21G17G23
  17718383.116   -15697004.386 7 -11976759.52921        20.250           1.219
  20079113.405    -5629333.225 5  -4094464.69521         9.750           0.563
  16768060.866   -22488993.693 7 -17523885.43024        25.750           3.969
  16813525.085   -38612157.554 7 -29660407.11023        26.000           3.188
 91  7 26  2 35 29.9870000  0  4G 3G21G17G23
  17717873.671   -15699679.378 7 -11978843.97321        20.250           1.344
  20061867.116    -5719972.334 5  -4165092.42721         9.500           0.438
  16762729.148   -22517010.709 7 -17545716.87324        25.750           3.938
  16802417.296   -38670530.547 7 -29705892.54123        26.000           3.219
 91  7 26  2 35 44.9870000  0  4G 3G21G17G23
  17717388.452   -15702224.725 7 -11980827.38921        20.000           1.250
  20044629.179    -5810554.808 5  -4235676.02421         9.250           0.563
  16757413.077   -22544945.006 7 -17567483.86324        25.750           3.938
  16791333.851   -38728780.571 7 -29751282.15323        26.500           3.188
 91  7 26  2 35 59.9870000  0  4G 3G21G17G23
  17716928.663   -15704638.738 6 -11982708.47121        19.500           1.281
  20027402.984    -5901078.729 5  -4306213.99721         9.750           0.469
  16752114.023   -22572794.583 7 -17589184.83824        26.000           3.938
  16780272.702   -38786905.877 7 -29796574.58223        26.500           3.281
 91  7 26  2 36 14.9870000  0  4G 3G21G17G23
  17716495.163   -15706921.204 7 -11984487.06121        20.000           1.250
  20010185.663    -5991543.796 5  -4376706.11421         9.750           0.500
  16746830.468   -22600559.478 7 -17610819.82524        26.250           3.844
  16769236.327   -38844906.457 7 -29841769.82023        26.250           3.250
 91  7 26  2 36 29.9870000  0  4G 3G21G17G23
  17716085.062   -15709074.237 7 -11986164.78021        20.000           1.188
  19992980.609    -6081951.615 5  -4447153.64221         9.250           0.469
  16741563.523   -22628241.527 7 -17632390.25524        26.500           4.031
  16758221.296   -38902784.115 7 -29886869.27423        26.500           3.219
 91  7 26  2 36 44.9870000  0  4G 3G21G17G23
  17715700.827   -15711099.371 7 -11987742.82821        20.000           1.250
  19975787.054    -6172303.395 5  -4517557.48521         9.500           0.531
  16736309.718   -22655842.029 7 -17653897.14824        26.750           4.094
  16747232.265   -38960540.056 7 -29931873.88723        26.250           3.188
 91  7 26  2 36 59.9870000  0  4G 3G21G17G23
  17715338.101   -15712998.576 6 -11989222.76821        19.750           1.281
  19958605.538    -6262601.045 5  -4587919.15321         9.000           0.563
  16731073.163   -22683363.106 7 -17675342.14924        26.750           4.000
  16736263.015   -39018176.426 7 -29976785.32523        26.250           3.094
 91  7 26  2 37 14.9870000  0  4G 3G21G17G23
  17715003.109   -15714767.945 6 -11990601.52921        19.750           1.125
  19941432.905    -6352840.121 5  -4658235.16121         9.750           0.469
  16725852.163   -22710800.450 7 -17696721.90324        26.500           4.063
  16725319.624   -39075688.821 7 -30021600.16323        26.250           3.250
 91  7 26  2 37 29.9870000  0  4G 3G21G17G23
  17714687.882   -15716408.090 6 -11991879.59521        19.000           1.188
  19924273.296    -6443020.934 5  -4728505.80421         9.750           0.531
  16720649.726   -22738154.642 7 -17718036.86224        26.750           4.000
  16714395.452   -39133077.806 7 -30066318.83423        26.250           3.156
 91  7 26  2 37 44.9870000  0  4G 3G21G17G23
  17714399.671   -15717920.350 6 -11993058.01621        19.250           1.281
  19907122.773    -6533144.658 5  -4798731.94621        10.250           0.500
  16715456.280   -22765426.810 7 -17739287.90624        26.250           4.031
  16703501.241   -39190344.642 7 -30110942.32123        26.500           3.125
 91  7 26  2 37 59.9870000  0  4G 3G21G17G23
  17714138.046   -15719303.678 7 -11994135.96821        20.000           1.219
  19889984.507    -6623209.622 5  -4868912.31421        10.000           0.500
  16710283.905   -22792615.612 7 -17760473.99024        26.000           4.094
  16692627.124   -39247487.965 7 -30155469.56923        26.250           3.031
 91  7 26  2 38 14.9870000  0  4G 3G21G17G23
  17713901.101   -15720557.736 7 -11995113.19521        20.250           1.188
  19872855.741    -6713215.360 5  -4939046.51121        10.000           0.406
  16705125.421   -22819720.796 7 -17781594.91724        25.750           4.000
  16681777.390   -39304507.552 7 -30199900.39823        26.500           3.031
 91  7 26  2 38 29.9870000  0  4G 3G21G17G23
  17713685.030   -15721682.641 6 -11995989.77121        19.250           1.125
  19855739.616    -6803161.883 5  -5009134.59721        10.000           0.469
  16699985.023   -22846742.644 7 -17802650.90224        26.000           3.969
  16670949.773   -39361403.358 7 -30244234.77423        27.000           3.063
 91  7 26  2 38 44.9870000  0  4G 3G21G17G23
  17713496.390   -15722678.334 7 -11996765.68221        20.000           1.156
  19838635.366    -6893048.577 5  -5079176.04521         9.250           0.344
  16694858.726   -22873680.464 7 -17823641.41724        26.250           4.031
  16660146.648   -39418175.042 7 -30288472.43623        26.500           2.969
 91  7 26  2 38 59.9870000  0  4G 3G21G17G23
  17713331.741   -15723545.161 7 -11997441.17021        20.250           1.156
  19821539.023    -6982875.674 5  -5149171.04821         9.000           0.344
  16689747.202   -22900534.622 7 -17844566.73624        26.250           3.875
  16649366.983   -39474823.035 7 -30332613.71523        26.500           2.969
 91  7 26  2 39 14.9860000  0  4G 3G21G17G23
  17713191.330   -15724285.603 7 -11998018.17321        20.000           1.188
  19804457.869    -7072639.400 5  -5219116.69521         9.250           0.438
  16684652.979   -22927305.758 7 -17865427.36724        26.500           3.969
  16638610.924   -39531345.808 7 -30376657.41723        26.750           3.000
 91  7 26  2 39 29.9860000  0  4G 3G21G17G23
  17713071.940   -15724900.363 6 -11998497.24021        19.250           1.094
  19787388.213    -7162351.754 5  -5289022.29921         9.750           0.438
  16679574.455   -22953997.863 7 -17886226.41624        27.000           4.031
  16627876.377   -39587751.140 7 -30420609.61423        26.500           2.969
 91  7 26  2 39 44.9860000  0  4G 3G21G17G23
  17712981.854   -15725390.515 6 -11998879.22421        19.750           1.031
  19770326.354    -7252007.691 5  -5358883.93821         9.750           0.406
  16674510.276   -22980609.827 7 -17906963.01924        26.750           3.906
  16617166.963   -39644036.318 7 -30464468.17523        27.000           3.094
 91  7 26  2 39 59.9860000  0  4G 3G21G17G23
  17712912.033   -15725752.490 7 -11999161.32321        20.500           1.000
  19753275.729    -7341603.528 5  -5428698.76821         9.000           0.469
  16669460.979   -23007138.447 7 -17927634.67524        26.500           3.938
  16606478.244   -39700197.938 7 -30508230.45823        26.500           3.063
 91  7 26  2 40 14.9860000  0  4G 3G21G17G23
  17712869.643   -15725989.769 7 -11999346.24521        20.000           1.063
  19736237.635    -7431142.196 5  -5498469.01721         9.000           0.344
  16664428.471   -23033587.014 7 -17948243.95224        26.500           3.938
  16595814.221   -39756239.017 7 -30551898.81823        26.500           3.000
 91  7 26  2 40 29.9860000  0  4G 3G21G17G23
  17712845.072   -15726100.568 6                        19.500
  19719209.940    -7520621.591 5  -5568193.13121         9.250           0.344
  16659411.705   -23059953.427 7 -17968789.21324        26.250           4.000
  16585174.471   -39812157.717 7 -30595471.81423        27.000           3.125
 91  7 26  2 40 44.9860000  0  4G 3G21G17G23
  17712846.916   -15726086.671 7                        20.000
  19702193.697    -7610043.439 5  -5637872.38321        10.000           0.344
  16654408.455   -23086239.587 7 -17989271.94024        26.250           4.125
  16574554.494   -39867955.871 7 -30638950.87923        26.500           3.125
 91  7 26  2 40 59.9860000  0  4G 3G21G17G23
  17712873.393   -15725951.780 6                        19.750
  19685187.658    -7699410.887 5  -5707509.23121        10.000           0.438
  16649421.658   -23112448.802 7 -18009694.70324        26.000           4.031
  16563960.440   -39923636.903 7 -30682338.67823        26.750           3.156
 91  7 26  2 41 14.9860000  0  4G 3G21G17G23
  17712923.268   -15725689.225 6                        19.750
  19668193.846    -7788716.860 5  -5777098.17921        10.250           0.281
  16644448.346   -23138574.153 7 -18030052.11924        25.750           4.125
  16553387.705   -39979194.075 7 -30725629.96323        26.750           3.031
 91  7 26  2 41 29.9860000  0  4G 3G21G17G23
  17712995.182   -15725302.217 6 -11998810.66321        19.250           1.031
  19651211.643    -7877964.482 5  -5846641.67221         9.750           0.438
  16639493.971   -23164618.853 7 -18050346.69124        26.500           4.188
  16542839.252   -40034630.387 7 -30768827.07223        26.750           3.156
 91  7 26  2 41 44.9860000  0  4G 3G21G17G23
  17713094.244   -15724793.963 6 -11998414.65621        19.250           1.094
  19634235.494    -7967156.575 5  -5916141.87521        10.250           0.500
  16634551.994   -23190585.937 7 -18070580.78224        26.250           4.031
  16532312.354   -40089948.733 7 -30811932.26023        26.750           3.000
 91  7 26  2 41 59.9860000  0  4G 3G21G17G23
  17713214.690   -15724160.916 6 -11997921.41221        19.250           1.094
  19617276.744    -8056289.215 5  -5985595.76621        10.500           0.406
  16629627.119   -23216471.660 7 -18090751.48624        26.500           4.063
  16521808.260   -40145145.441 7 -30854942.66423        26.750           3.000
 91  7 26  2 42 14.9860000  0  4G 3G21G17G23
  17713358.080   -15723402.857 6 -11997330.76021        19.250           1.031
  19600324.424    -8145362.100 5  -6055003.09821        10.750           0.469
  16624716.791   -23242275.666 7 -18110858.50324        27.250           3.969
  16511327.736   -40200220.378 7 -30897858.17823        26.250           3.000
 91  7 26  2 42 29.9860000  0  4G 3G21G17G23
  17713526.760   -15722525.764 6 -11996647.33921        19.000           1.063
  19583384.065    -8234380.685 5  -6124368.11021        11.250           0.469
  16619820.658   -23268003.637 7 -18130906.27424        27.000           4.000
  16500869.986   -40255179.158 7 -30940683.18523        26.250           2.969
 91  7 26  2 42 44.9860000  0  4G 3G21G17G23
  17713715.674   -15721524.774 6 -11995867.38321        18.500           0.969
  19566458.619    -8323339.757 5  -6193686.75521        11.500           0.656
  16614939.838   -23293650.801 7 -18150891.08224        27.000           3.906
  16490433.065   -40310016.754 7 -30983413.76523        26.500           2.875
 91  7 26  2 42 59.9860000  0  4G 3G21G17G23
  17713933.947   -15720395.486 6 -11994987.46221        19.000           0.938
  19549539.127    -8412234.759 5  -6262955.45821        10.750           0.531
  16610075.182   -23319212.373 7 -18170809.19424        26.750           3.938
  16480022.479   -40364728.723 7 -31026046.45223        26.750           2.781
 91  7 26  2 43 14.9860000  0  4G 3G21G17G23
  17714169.955   -15719141.201 6 -11994010.12921        18.250           0.906
  19532636.510    -8501068.745 5  -6332176.61921        10.500           0.563
  16605226.604   -23344691.705 7 -18190663.22424        26.750           3.906
  16469635.236   -40419318.317 7 -31068583.78323        27.000           2.938
 91  7 26  2 43 29.9860000  0  4G 3G21G17G23
  17714431.635   -15717767.697 6 -11992939.90521        18.500           0.969
  19515744.440    -8589846.931 5  -6401354.30621        11.500           0.563
  16600393.416   -23370094.563 7 -18210457.65624        27.000           3.844
  16459268.674   -40473791.208 7 -31111030.17623        26.750           2.938
 91  7 26  2 43 44.9860000  0  4G 3G21G17G23
  17714717.533   -15716268.800 6 -11991771.97621        18.500           0.969
  19498860.057    -8678562.681 5  -6470483.36221        11.000           0.594
  16595574.338   -23395414.007 7 -18230187.09924        26.500           3.844
  16448927.307   -40528140.825 7 -31153380.50923        27.250           3.031
 91  7 26  2 43 59.9860000  0  4G 3G21G17G23
  17715025.658   -15714643.063 6 -11990505.19821        18.250           1.031
  19481993.111    -8767214.523 5  -6539562.60821        11.500           0.656
  16590773.979   -23420648.816 7 -18249850.59224        26.750           3.969
  16438608.947   -40582365.713 7 -31195633.65423        26.750           2.938
 91  7 26  2 44 14.9860000  0  4G 3G21G17G23
  17715356.815   -15712894.272 6 -11989142.54621        18.000           1.000
  19465131.471    -8855805.816 5  -6608594.67421        11.000           0.625
  16585986.143   -23445802.675 7 -18269451.00424        26.750           4.063
  16428312.643   -40636469.453 7 -31237792.39523        27.000           2.969
 91  7 26  2 44 29.9860000  0  4G 3G21G17G23
  17715715.822   -15711025.053 6 -11987686.05221        18.750           0.906
  19448283.963    -8944338.813 5  -6677581.31321        11.000           0.625
  16581214.408   -23470877.897 7 -18288990.14424        27.000           4.000
  16418039.119   -40690454.470 7 -31279858.62623        26.500           3.094
 91  7 26  2 44 44.9860000  0  4G 3G21G17G23
  17716093.455   -15709034.953 6 -11986135.36821        18.750           1.031
  19431450.174    -9032812.834 5  -6746521.98821        11.000           0.625
  16576458.424   -23495874.038 7 -18308467.65524        26.750           4.031
  16407788.869   -40744320.219 7 -31321831.92323        26.750           3.063
 91  7 26  2 44 59.9860000  0  4G 3G21G17G23
  17716494.385   -15706920.674 6 -11984487.92421        18.750           0.906
  19414626.947    -9121224.263 5  -6815413.89521        11.250           0.594
  16571716.986   -23520787.661 7 -18327880.87524        26.750           3.969
  16397561.627   -40798063.300 7 -31363709.63523        27.000           3.000
 91  7 26  2 45 14.9860000  0  4G 3G21G17G23
  17716922.197   -15704680.865 6 -11982742.65321        18.750           1.094
  19397812.908    -9209571.317 5  -6884255.64521        11.250           0.594
  16566992.182   -23545616.974 7 -18347228.39924        27.000           4.031
  16387358.151   -40851682.282 7 -31405490.64423        26.750           2.969
 91  7 26  2 45 29.9860000  0  4G 3G21G17G23
  17717370.533   -15702321.915 6 -11980904.54721        18.750           0.875
  19381012.432    -9297860.132 5  -6953052.02521        11.000           0.500
  16562280.783   -23570368.592 7 -18366515.38024        26.250           3.906
  16377178.088   -40905183.316 7 -31447179.74823        27.250           2.906
 91  7 26  2 45 44.9860000  0  4G 3G21G17G23
  17717842.361   -15699843.556 6 -11978973.38721        19.000           1.000
  19364223.697    -9386090.181 5  -7021802.60821        11.250           0.594
  16557586.158   -23595041.985 7 -18385741.40424        26.250           3.969
  16367018.651   -40958566.031 7 -31488776.65223        26.750           3.125
 91  7 26  2 45 59.9860000  0  4G 3G21G17G23
  17718338.260   -15697242.025 6 -11976946.26621        19.250           1.094
  19347442.401    -9474257.330 5  -7090504.18721        10.750           0.594
  16552908.197   -23619632.752 7 -18404903.04424        26.250           3.844
  16356885.026   -41011826.420 7 -31530278.24023        27.250           3.063
 91  7 26  2 46 14.9860000  0  4G 3G21G17G23
  17718856.846   -15694517.798 6 -11974823.52721        19.000           0.938
  19330673.776    -9562361.634 5  -7159156.78921        10.500           0.594
  16548242.947   -23644141.413 7 -18424000.70924        26.000           3.938
  16346771.471   -41064964.769 7 -31571684.73423        27.250           2.938
 91  7 26  2 46 29.9860000  0  4G 3G21G17G23
  17719398.940   -15691668.469 6 -11972603.30421        18.750           1.031
  19313924.416    -9650400.457 5  -7227758.36521        11.000           0.563
  16543594.791   -23668565.457 7 -18443032.43724        26.500           3.813
  16336683.799   -41117978.640 7 -31612994.22723        27.000           2.969
 91  7 26  2 46 44.9860000  0  4G 3G21G17G23
  17719964.221   -15688699.571 6 -11970289.91021        18.750           0.969
  19297181.299    -9738378.922 5  -7296312.91721        11.000           0.531
  16538962.377   -23692910.256 7 -18462002.41424        26.250           3.969
  16326618.213   -41170873.307 7 -31654210.83723        27.250           2.969
 91  7 26  2 46 59.9860000  0  4G 3G21G17G23
  17720552.260   -15685611.085 6 -11967883.34221        18.750           0.969
  19280453.463    -9826296.766 5  -7364820.22321        11.750           0.531
  16534345.283   -23717175.678 7 -18480910.54624        26.500           4.000
  16316575.947   -41223648.718 7 -31695334.51923        27.000           2.938
 91  7 26  2 47 14.9860000  0  4G 3G21G17G23
  17721162.588   -15682403.929 6 -11965384.29421        18.000           0.906
  19263735.385    -9914154.647 5  -7433280.81421        11.500           0.469
  16529742.580   -23741362.721 7 -18499757.59824        26.750           3.938
  16306554.971   -41276305.668 7 -31736365.89523        27.000           2.844
 91  7 26  2 47 29.9860000  0  4G 3G21G17G23
  17721793.908   -15679076.383 6 -11962791.43921        18.000           0.938
  19247025.338   -10001950.457 5  -7501693.04021        11.500           0.594
  16525154.463   -23765469.108 7 -18518541.80124        26.250           3.938
  16296557.440   -41328842.122 7 -31777303.37823        27.000           2.781
 91  7 26  2 47 44.9860000  0  4G 3G21G17G23
  17722451.315   -15675625.258 6 -11960102.29121        17.750           1.094
  19230334.026   -10089680.622 5  -7570054.12021        11.750           0.531
  16520584.869   -23789491.462 7 -18537260.52724        26.750           3.844
  16286584.143   -41381254.879 7 -31818144.47023        27.250           2.750
 91  7 26  2 47 59.9860000  0  4G 3G21G17G23
  17723131.901   -15672053.500 6 -11957319.14721        18.000           0.906
  19213651.018   -10177347.774 5  -7638366.10121        11.500           0.531
  16516028.861   -23813432.650 7 -18555916.00624        26.500           4.000
  16276633.658   -41433546.605 7 -31858891.25723        27.250           2.844
 91  7 26  2 48 14.9860000  0  4G 3G21G17G23
  17723833.924   -15668360.152 6 -11954441.24921        18.500           0.875
  19196981.182   -10264950.641 6  -7706627.97321        12.250           0.531
  16511488.901   -23837291.440 7 -18574507.28124        26.250           3.969
  16266705.393   -41485716.090 7 -31899542.78823        26.750           2.844
 91  7 26  2 48 29.9860000  0  4G 3G21G17G23
  17724558.947   -15664552.484 6 -11951474.28121        18.250           0.906
  19180319.908   -10352496.286 5  -7774845.25721        11.750           0.531
  16506961.244   -23861075.290 7 -18593040.15924        26.000           4.000
  16256799.283   -41537770.711 7 -31940104.81323        27.000           2.750
 91  7 26  2 48 44.9850000  0  4G 3G21G17G23
  17725305.958   -15660625.246 6 -11948414.13021        18.000           0.813
  19163674.068   -10439972.825 6  -7843008.71921        12.250           0.563
  16502450.982   -23884776.661 7 -18611508.76824        25.750           4.031
  16246917.880   -41589701.265 7 -31980570.17223        27.500           2.781
 91  7 26  2 48 59.9850000  0  4G 3G21G17G23
  17726075.794   -15656582.151 6 -11945263.70721        18.000           0.875
  19147037.357   -10527395.928 6  -7911130.52321        12.250           0.563
  16497954.513   -23908402.721 7 -18629918.69224        25.750           3.906
  16237057.552   -41641518.891 7 -32020947.52623        27.750           2.813
 91  7 26  2 49 14.9850000  0  4G 3G21G17G23
  17726866.489   -15652421.799 6 -11942021.90721        17.750           0.813
  19130414.888   -10614757.482 6  -7979204.38121        12.250           0.563
  16493475.091   -23931949.693 7 -18648266.98924        26.250           3.906
  16227219.786   -41693218.017 7 -32061232.54623        27.750           2.906
 91  7 26  2 49 29.9850000  0  4G 3G21G17G23
  17727681.286   -15648142.981 6 -11938687.79321        17.750           0.813
  19113803.568   -10702056.237 6  -8047229.29421        12.750           0.625
  16489007.802   -23955416.710 7 -18666552.98924        26.250           3.969
  16217404.372   -41744797.681 7 -32101424.47623        27.500           2.813
 91  7 26  2 49 44.9850000  0  4G 3G21G17G23
  17728518.849   -15643744.119 6 -11935260.15021        17.750           0.875
  19097202.255   -10789290.244 6  -8115203.76521        12.500           0.688
  16484559.763   -23978802.063 7 -18684775.35624        26.750           3.969
  16207611.614   -41796255.849 7 -32141521.74023        27.500           2.813
 91  7 26  2 49 59.9850000  0  4G 3G21G17G23
  17729377.028   -15639225.446 6 -11931739.14221        17.750           0.750
  19080613.880   -10876459.097 6  -8183127.44521        12.500           0.750
  16480127.005   -24002105.411 7 -18702933.81624        26.750           4.063
  16197843.216   -41847592.451 7 -32181524.27823        27.500           2.750
 91  7 26  2 50 14.9850000  0  4G 3G21G17G23
  17730260.747   -15634594.188 6 -11928130.40321        17.750           0.844
  19064036.052   -10963570.093 6  -8251006.05521        12.500           0.656
  16475706.724   -24025334.413 7 -18721034.35124        27.000           3.906
  16188093.896   -41898814.982 7 -32221437.91823        27.250           2.750
 91  7 26  2 50 29.9850000  0  4G 3G21G17G23
  17731166.599   -15629842.864 6 -11924428.11321        18.000           0.906
  19047474.872   -11050615.273 6  -8318833.38421        12.000           0.656
  16471301.466   -24048480.809 7 -18739070.51124        26.750           4.031
  16178371.442   -41949915.629 7 -32261256.59123        27.250           2.781
 91  7 26  2 50 44.9850000  0  4G 3G21G17G23
  17732089.997   -15624970.242 6 -11920631.29321        16.750           0.875
  19030921.294   -11137592.954 6  -8386608.11521        12.250           0.625
  16466912.372   -24071543.103 7 -18757041.13724        26.750           4.094
  16168670.411   -42000892.806 7 -32300979.04923        27.750           2.813
 91  7 26  2 50 59.9850000  0  4G 3G21G17G23
  17733041.255   -15619982.148 6 -11916744.51021        17.750           0.906
  19014380.724   -11224508.713 6  -8454334.60621        12.000           0.719
  16462537.458   -24094527.355 7 -18774950.95424        26.250           3.969
  16158991.255   -42051752.233 7 -32340609.75823        27.500           2.813
 91  7 26  2 51 14.9850000  0  4G 3G21G17G23
  17734014.169   -15614871.898 6 -11912762.53921        17.750           0.938
  18997853.739   -11311355.550 6  -8522007.38721        12.000           0.719
  16458179.505   -24117426.333 7 -18792794.31924        25.750           3.969
  16149338.177   -42102486.990 8 -32380143.32323        28.000           2.750
 91  7 26  2 51 29.9850000  0  4G 3G21G17G23
  17735008.911   -15609636.824 6 -11908683.30921        17.750           0.938
  18981341.302   -11398130.398 5  -8589624.07121        11.750           0.750
  16453838.505   -24140237.622 7 -18810569.35624        26.000           3.906
  16139707.169   -42153094.746 7 -32419577.92223        27.750           2.781
 91  7 26  2 51 44.9850000  0  4G 3G21G17G23
  17736029.333   -15604282.567 6 -11904511.19721        17.750           0.781
  18964840.521   -11484838.752 5  -8657188.94121        11.500           0.750
  16449513.825   -24162966.608 7 -18828280.26024        26.500           4.063
  16130099.099   -42203580.696 7 -32458917.61623        27.500           2.844
 91  7 26  2 51 59.9850000  0  4G 3G21G17G23
  17737071.239   -15598810.048 6 -11900246.93021        17.750           0.875
  18948351.263   -11571480.951 5  -8724702.25921        11.500           0.750
  16445204.403   -24185613.688 7 -18845927.34624        26.500           3.813
  16120515.653   -42253945.407 7 -32498162.83323        27.500           2.719
 91  7 26  2 52 14.9850000  0  4G 3G21G17G23
  17738132.857   -15593217.835 6 -11895889.41321        16.750           0.844
  18931881.708   -11658055.464 6  -8792162.83421        12.250           0.781
  16440911.161   -24208177.397 7 -18863509.46824        26.750           3.875
  16110955.919   -42304187.690 8 -32537312.65223        28.000           2.719
 91  7 26  2 52 29.9850000  0  4G 3G21G17G23
  17739219.716   -15587509.486 6 -11891441.39221        17.000           0.906
  18915419.607   -11744565.297 5  -8859573.03121        11.750           0.594
  16436634.622   -24230660.786 7 -18881029.00624        27.500           3.875
  16101417.513   -42354310.480 7 -32576369.36023        27.750           2.625
 91  7 26  2 52 44.9850000  0  4G 3G21G17G23
  17740330.403   -15581685.628 6 -11886903.36221        17.750           0.906
  18898968.638   -11831010.885 5  -8926933.16121        11.500           0.719
  16432370.099   -24253064.613 7 -18898486.53724        27.250           3.938
  16091902.521   -42404314.593 7 -32615333.59223        27.250           2.625
 91  7 26  2 52 59.9850000  0  4G 3G21G17G23
  17741457.536   -15575753.750 6 -11882281.15221        17.500           0.750
  18882527.278   -11917399.277 5  -8994248.70621        11.000           0.656
  16428119.591   -24275396.213 7 -18915887.79324        27.000           3.875
  16082406.622   -42454207.330 7 -32654211.03523        27.500           2.656
 91  7 26  2 53 14.9850000  0  4G 3G21G17G23
  17742608.247   -15569703.797 6 -11877566.94121        16.750           0.969
  18866098.068   -12003720.046 5  -9061511.58221        10.750           0.688
  16423886.146   -24297645.274 7 -18933224.73624        27.000           3.938
  16072938.419   -42503978.409 8 -32692993.68323        28.250           2.656
 91  7 26  2 53 29.9850000  0  4G 3G21G17G23
  17743781.411   -15563539.137 6 -11872763.36321        17.500           0.875
  18849687.466   -12089976.196 5  -9128724.10321        11.250           0.563
  16419667.247   -24319814.829 7 -18950499.71724        27.000           3.969
  16063487.724   -42553630.955 7 -32731683.97023        27.750           2.625
 91  7 26  2 53 44.9850000  0  4G 3G21G17G23
  17744976.005   -15557258.271 6 -11867869.22121        17.000           0.844
  18833285.232   -12176166.105 5  -9195885.00321        11.750           0.688
  16415464.505   -24341903.399 7 -18967711.59724        26.250           3.938
  16054061.903   -42603163.592 8 -32770280.81923        28.000           2.656
 91  7 26  2 53 59.9850000  0  4G 3G21G17G23
  17746196.443   -15550858.693 6 -11862882.58521        17.250           0.813
  18816895.146   -12262286.623 5  -9262991.83821        11.500           0.719
  16411275.825   -24363908.222 7 -18984858.22124        26.750           4.063
  16044659.872   -42652573.515 8 -32808782.04923        28.000           2.656
 91  7 26  2 54 14.9850000  0  4G 3G21G17G23
  17747434.036   -15544345.015 6 -11857807.02321        17.000           0.781
  18800519.763   -12348342.204 5  -9330048.05821        11.750           0.625
  16407104.450   -24385833.695 7 -19001943.00924        26.750           4.125
  16035280.755   -42701865.253 8 -32847191.18423        28.250           2.625
 91  7 26  2 54 29.9850000  0  4G 3G21G17G23
  17748696.310   -15537717.036 6 -11852642.40921        17.250           0.781
  18784158.474   -12434331.934 6  -9397052.98521        12.250           0.656
  16402946.544   -24407679.243 7 -19018965.51724        26.500           4.031
  16025922.911   -42751038.096 8 -32885507.67323        28.250           2.656
 91  7 26  2 54 44.9850000  0  4G 3G21G17G23
  17749980.497   -15530967.387 6 -11847382.97721        16.750           0.844
  18767811.349   -12520248.527 6  -9464000.90621        12.250           0.688
  16398807.036   -24429437.472 7 -19035919.98324        26.750           3.938
  16016589.091   -42800084.896 8 -32923725.95023        28.250           2.625
 91  7 26  2 54 59.9850000  0  4G 3G21G17G23
  17751286.060   -15524102.968 6 -11842034.12221        16.500           0.750
  18751472.552   -12606098.319 6  -9530896.79521        12.250           0.688
  16394682.216   -24451114.925 7 -19052811.51524        27.000           4.031
  16007279.974   -42849012.192 8 -32961851.10823        28.000           2.625
 91  7 26  2 55 14.9850000  0  4G 3G21G17G23
  17752614.138   -15517124.104 6 -11836596.08521        16.000           0.656
  18735144.982   -12691881.331 6  -9597740.65221        12.250           0.688
  16390572.224   -24472711.852 7 -19069640.29324        27.250           3.844
  15997990.442   -42897820.193 8 -32999883.30623        28.000           2.688
 91  7 26  2 55 29.9850000  0  4G 3G21G17G23
  17753964.919   -15510033.125 6 -11831070.69121        16.250           0.750
  18718835.318   -12777599.579 6  -9664534.02921        12.500           0.688
  16386475.942   -24494230.416 7 -19086408.01224        26.750           3.750
  15988725.560   -42946511.240 8 -33037824.37723        28.250           2.625
 91  7 26  2 55 44.9850000  0  4G 3G21G17G23
  17755334.083   -15502826.243 6 -11825454.99621        16.250           0.688
  18702536.638   -12863248.928 6  -9731273.71721        12.250           0.656
  16382397.942   -24515666.561 7 -19103111.50624        27.000           3.844
  15979482.919   -42995081.103 8 -33075671.01323        28.000           2.656
 91  7 26  2 55 59.9850000  0  4G 3G21G17G23
  17756727.466   -15495505.614 6 -11819750.64821        16.000           0.719
  18686253.857   -12948831.155 6  -9797961.10621        13.000           0.719
  16378334.005   -24537022.357 7 -19119752.39124        26.750           3.813
  15970262.583   -43043532.007 8 -33113424.95523        28.000           2.656
 91  7 26  2 56 14.9850000  0  4G 3G21G17G23
  17758144.271   -15488067.684 6 -11813954.90821        16.500           0.750
  18669978.482   -13034342.511 6  -9864593.27421        13.250           0.813
  16374285.138   -24558293.973 7 -19136327.67824        26.000           3.719
  15961066.153   -43091860.378 8 -33151083.41623        28.000           2.688
 91  7 26  2 56 29.9850000  0  4G 3G21G17G23
  17759578.443   -15480517.821 6 -11808071.94121        16.000           0.688
  18653719.982   -13119787.796 6  -9931173.94921        12.750           0.750
  16370253.771   -24579486.482 7 -19152841.32624        26.250           3.719
  15951891.122   -43140071.100 8 -33188650.20423        28.250           2.625
 91  7 26  2 56 44.9850000  0  4G 3G21G17G23
  17761037.489   -15472859.389 6 -11802104.37021        15.750           0.719
  18637472.786   -13205170.292 6  -9997705.70621        12.500           0.719
  16366235.232   -24600603.150 7 -19169295.87724        26.500           3.625
  15942739.294   -43188167.679 8 -33226128.05523        28.000           2.656
 91  7 26  2 56 59.9850000  0  4G 3G21G17G23
  17762518.130   -15465088.761 6 -11796049.37321        16.500           0.781
  18621237.403   -13290485.739 6 -10064185.20321        13.000           0.875
  16362232.630   -24621639.705 7 -19185688.00224        26.250           3.813
  15933609.599   -43236145.946 8 -33263513.70923        28.250           2.625
 91  7 26  2 57 14.9850000  0  4G 3G21G17G23
  17764018.318   -15457200.958 6 -11789903.07821        15.250           0.813
  18605016.849   -13375728.929 6 -10130608.40121        13.250           0.844
  16358244.372   -24642591.339 7 -19202013.95324        26.250           3.875
  15924503.161   -43284000.860 8 -33300803.24823        28.500           2.656
 91  7 26  2 57 29.9850000  0  4G 3G21G17G23
  17765539.888   -15449203.108 6 -11783671.03321        15.500           0.813
  18588807.177   -13460906.611 6 -10196980.55521        12.750           0.813
  16354273.083   -24663464.946 7 -19218279.10724        27.000           3.813
  15915417.435   -43331739.509 8 -33338002.18323        28.000           2.656
 91  7 26  2 57 44.9850000  0  4G 3G21G17G23
  17767080.630   -15441097.724 6 -11777355.19121        15.000           0.688
  18572608.966   -13546020.848 6 -10263303.27521        12.750           0.844
  16350314.505   -24684262.832 7 -19234485.25124        26.750           4.000
  15906355.591   -43379364.057 8 -33375112.21623        28.500           2.656
 91  7 26  2 57 59.9850000  0  4G 3G21G17G23
  17768643.693   -15432880.560 6 -11770952.24521        14.750           0.781
  18556426.271   -13631067.190 6 -10329573.09321        12.750           0.781
  16346372.927   -24704980.519 7 -19250628.91024        26.750           3.906
  15897314.896   -43426870.401 8 -33412130.13623        28.000           2.656
 91  7 26  2 58 14.9850000  0  4G 3G21G17G23
  17770229.778   -15424550.713 6 -11764461.50221        14.750           0.781
  18540259.208   -13716044.467 6 -10395789.10121        13.750           0.781
  16342445.200   -24725616.960 7 -19266709.25524        26.500           3.875
  15888299.021   -43474257.567 8 -33449055.19123        28.250           2.750
 91  7 26  2 58 29.9840000  0  4G 3G21G17G23
  17771836.938   -15416109.961 6 -11757884.35021        14.750           0.688
  18524100.016   -13800947.591 6 -10461947.31921        13.000           0.844
  16338533.984   -24746171.334 7 -19282725.65124        26.250           3.906
  15879304.328   -43521523.140 8 -33485885.50223        28.250           2.625
 91  7 26  2 58 44.9840000  0  4G 3G21G17G23
  17773463.602   -15407560.339 6 -11751222.35921        14.750           0.781
  18507952.742   -13885790.865 6 -10528058.89321        12.750           0.813
  16334638.195   -24766649.700 7 -19298682.82124        26.250           3.906
  15870331.336   -43568676.523 8 -33522628.38923        28.250           2.625
 91  7 26  2 58 59.9840000  0  4G 3G21G17G23
  17775112.242   -15398902.953 6 -11744476.38921        15.500           0.750
  18491821.984   -13970568.657 6 -10594119.44221        13.250           0.781
  16330755.625   -24787051.007 7 -19314579.94524        26.000           3.813
  15861379.844   -43615714.604 7 -33559281.43123        27.750           2.688
 91  7 26  2 59 14.9840000  0  4G 3G21G17G23
  17776782.313   -15390126.255 6 -11737637.44621        15.750           0.750
  18475702.383   -14055269.292 6 -10660119.88121        13.750           0.750
  16326889.750   -24807363.657 7 -19330407.98524        25.500           3.813
  15852453.149   -43662626.158 8 -33595835.88523        28.000           2.563
 91  7 26  2 59 29.9840000  0  4G 3G21G17G23
  17778473.031   -15381233.924 6 -11730708.40121        15.250           0.688
  18459599.914   -14139895.767 6 -10726062.53521        13.500           0.750
  16323039.703   -24827590.651 7 -19346169.28224        25.750           3.719
  15843548.938   -43709414.565 8 -33632294.37623        28.250           2.750
 91  7 26  2 59 44.9840000  0  4G 3G21G17G23
  17780187.774   -15372233.296 6 -11723694.97521        15.250           0.750
  18443508.086   -14224455.454 6 -10791953.13221        13.000           0.719
  16319207.203   -24847739.718 7 -19361869.85824        26.000           3.688
  15834667.555   -43756087.204 7 -33668662.66123        27.750           2.688
 91  7 26  2 59 59.9840000  0  4G 3G21G17G23
  17781918.391   -15363127.402 6 -11716599.52221        15.750           0.594
  18427429.055   -14308950.844 6 -10857793.63321        13.500           0.781
  16315384.742   -24867813.264 7 -19377511.58224        26.000           3.750
  15825806.875   -43802646.713 7 -33704942.78823        27.250           2.688
 91  7 26  3  0 14.9840000  0  4G 3G21G17G23
  17783672.977   -15353914.266 6 -11709420.49221        15.750           0.625
  18411361.992   -14393379.583 6 -10923582.20321        13.500           0.781
  16311581.703   -24887809.198 7 -19393092.83624        25.750           3.781
  15816968.867   -43849090.904 7 -33741133.06223        27.750           2.625
 91  7 26  3  0 29.9840000  0  4G 3G21G17G23
  17785446.367   -15344593.184 6 -11702157.36821        16.000           0.563
  18395308.555   -14477740.685 6 -10989318.06421        13.500           0.781
  16307790.930   -24907726.616 7 -19408612.90924        26.000           3.781
  15808153.625   -43895419.156 8 -33777232.98923        28.000           2.656
 91  7 26  3  0 44.9840000  0  4G 3G21G17G23
  17787241.992   -15335161.149 6 -11694807.78121        15.500           0.469
  18379270.625   -14562030.862 6 -11054998.66421        14.000           0.719
  16304016.977   -24927562.256 7 -19424069.25824        25.750           3.813
  15799360.586   -43941628.204 8 -33813240.03123        28.000           2.719
 91  7 26  3  0 59.9840000  0  4G 3G21G17G23
  17789056.383   -15325622.900 6 -11687375.42521        15.500           0.625
  18363241.375   -14646254.386 6 -11120627.32221        14.250           0.813
  16300257.109   -24947320.683 7 -19439465.44024        25.500           3.844
  15790589.109   -43987722.479 8 -33849157.63623        28.000           2.656
 91  7 26  3  1 14.9840000  0  4G 3G21G17G23
  17790892.391   -15315975.649 6 -11679858.11921        15.250           0.594
  18347228.844   -14730407.988 6 -11186201.50521        14.000           0.781
  16296512.484   -24966998.853 7 -19454799.08024        25.750           3.813
  15781840.477   -44033698.880 8 -33884983.39723        28.250           2.656
 91  7 26  3  1 29.9840000  0  4G 3G21G17G23
  17792748.274   -15306218.568 6 -11672255.24721        15.000           0.594
  18331229.086   -14814490.501 6 -11251720.28821        14.500           0.813
  16292785.102   -24986595.459 7 -19470069.16424        26.000           3.906
  15773112.391   -44079556.780 8 -33920716.82023        28.000           2.594
 91  7 26  3  1 44.9840000  0  4G 3G21G17G23
  17794626.414   -15296351.061 6 -11664566.33321        15.000           0.625
  18315241.492   -14898500.917 6 -11317182.88721        14.500           0.844
  16289070.516   -25006109.774 7 -19485275.12824        26.000           3.844
  15764409.781   -44125295.294 8 -33956357.21123        28.250           2.563
 91  7 26  3  1 59.9840000  0  4G 3G21G17G23
  17796521.977   -15286379.149 6 -11656796.06621        14.750           0.719
  18299267.563   -14982445.114 6 -11382593.89321        14.750           0.875
  16285370.781   -25025547.640 7 -19500421.52324        25.500           3.938
  15755728.414   -44170920.398 8 -33991909.23323        28.250           2.594
 91  7 26  3  2 14.9840000  0  4G 3G21G17G23
  17798442.172   -15276295.474 6 -11648938.70721        15.000           0.594
  18283308.219   -15066315.259 6 -11447947.20021        14.250           0.844
  16281688.875   -25044901.498 7 -19515502.45524        25.750           3.906
  15747068.352   -44216424.412 7 -34027366.90223        27.750           2.594
 91  7 26  3  2 29.9840000  0  4G 3G21G17G23
  17800382.328   -15266100.331 6 -11640994.48721        14.250           0.531
  18267362.563   -15150111.402 6 -11513242.82521        14.250           0.906
  16278021.992   -25064171.556 7 -19530518.09324        26.250           3.875
  15738433.086   -44261807.594 8 -34062730.41322        28.250           2.469
 91  7 26  3  2 44.9840000  0  4G 3G21G17G23
  17802345.766   -15255794.009 6 -11632963.63621        14.250           0.531
  18251432.352   -15233833.328 6 -11578480.63521        14.750           1.000
  16274369.766   -25083358.019 7 -19545468.58824        25.500           3.906
  15729820.367   -44307069.857 8 -34097999.70123        28.250           2.531
 91  7 26  3  2 59.9840000  0  4G 3G21G17G23
  17804327.547   -15245381.258 6 -11624849.86421        14.750           0.500
  18235511.469   -15317485.416 6 -11643664.01421        14.500           0.875
  16270734.008   -25102465.169 7 -19560357.28524        25.500           3.750
  15721227.664   -44352215.987 7 -34133178.49423        27.750           2.531
 91  7 26  3  3 14.9840000  0  4G 3G21G17G23
  17806329.570   -15234860.445 6 -11616651.86521        14.250           0.625
  18219606.617   -15401065.877 6 -11708791.58021        14.750           0.844
  16267112.500   -25121491.303 7 -19575182.85324        25.500           3.813
  15712660.274   -44397244.253 8 -34168265.44723        28.000           2.594
 91  7 26  3  3 29.9840000  0  4G 3G21G17G23
  17808349.430   -15224233.687 6 -11608371.33021        14.250           0.594
  18203715.461   -15484576.225 6 -11773864.52621        14.500           0.875
  16263508.258   -25140438.087 7 -19589946.58724        25.500           3.813
  15704113.000   -44442156.492 8 -34203261.98023        28.000           2.688
 91  7 26  3  3 44.9840000  0  4G 3G21G17G23
  17810393.336   -15213500.780 6 -11600008.08421        15.000           0.656
  18187837.008   -15568016.037 6 -11838882.50821        14.750           0.875
  16259916.383   -25159305.116 7 -19604648.17424        24.500           3.688
  15695588.227   -44486952.487 8 -34238167.94723        28.000           2.594
 91  7 26  3  3 59.9840000  0  4G 3G21G17G23
  17812457.289   -15202659.852 6 -11591560.66421        15.250           0.594
  18171972.664   -15651382.744 6 -11903843.51521        14.500           0.969
  16256342.328   -25178090.092 7 -19619285.82824        24.750           3.688
  15687086.469   -44531629.699 7 -34272981.34923        27.750           2.656
 91  7 26  3  4 14.9840000  0  4G 3G21G17G23
  17814540.680   -15191713.751 6 -11583031.28821        15.500           0.563
  18156122.758   -15734679.042 6 -11968749.66221        14.750           0.844
  16252782.836   -25196795.894 7 -19633861.77624        25.250           3.781
  15678606.438   -44576191.240 7 -34307704.61523        27.500           2.656
 91  7 26  3  4 29.9840000  0  4G 3G21G17G23
  17816643.688   -15180661.762 6 -11574419.40321        16.000           0.656
  18140286.649   -15817903.782 6 -12033600.05521        14.500           1.031
  16249237.031   -25215421.418 7 -19648375.18324        24.500           3.781
  15670148.586   -44620636.083 8 -34342336.94823        28.000           2.656
 91  7 26  3  4 44.9840000  0  4G 3G21G17G23
  17818764.227   -15169501.968 6 -11565723.51221        14.500           0.688
  18124460.586   -15901054.946 6 -12098393.10321        14.250           1.000
  16245708.063   -25233964.645 7 -19662824.46124        25.000           3.688
  15661713.969   -44664962.285 8 -34376876.83523        28.250           2.656
 91  7 26  3  4 59.9840000  0  4G 3G21G17G23
  17820910.813   -15158236.085 6 -11556944.95721        15.000           0.688
  18108652.031   -15984133.769 6 -12163129.78921        14.250           0.906
  16242196.313   -25252427.139 7 -19677210.82424        25.750           3.844
  15653301.883   -44709171.390 8 -34411325.48123        28.000           2.656
 91  7 26  3  5 14.9840000  0  4G 3G21G17G23
  17823075.922   -15146865.016 6 -11548084.44121        14.750           0.563
  18092854.844   -16067140.665 6 -12227810.43521        14.000           1.000
  16238697.977   -25270809.368 7 -19691534.64724        25.500           3.844
  15644910.680   -44753263.951 8 -34445683.30923        28.000           2.594
 91  7 26  3  5 29.9840000  0  4G 3G21G17G23
  17825256.742   -15135387.438 6 -11539140.93321        14.250           0.531
  18077072.547   -16150074.136 6 -12292433.85221        14.000           0.906
  16235215.274   -25289109.852 7 -19705794.78224        25.500           3.750
  15636542.649   -44797238.754 8 -34479949.37923        28.500           2.625
 91  7 26  3  5 44.9840000  0  4G 3G21G17G23
  17827460.938   -15123806.705 6 -11530117.05021        14.250           0.594
  18061305.820   -16232937.046 6 -12357002.29021        14.500           0.906
  16231747.656   -25307331.700 7 -19719993.63724        26.000           3.594
  15628197.063   -44841098.808 8 -34514126.02423        28.250           2.625
 91  7 26  3  5 59.9840000  0  4G 3G21G17G23
  17829685.578   -15112114.075 6 -11521005.96621        14.250           0.594
  18045555.734   -16315720.168 6 -12421508.56721        15.000           0.906
  16228298.391   -25325466.029 7 -19734124.28224        25.500           3.594
  15619873.492   -44884835.154 8 -34548206.29623        28.000           2.531
 91  7 26  3  6 14.9840000  0  4G 3G21G17G23
  17831933.203   -15100317.981 6 -11511814.25921        14.000           0.531
  18029814.227   -16398431.741 6 -12485959.07621        14.750           0.906
  16224864.055   -25343520.929 7 -19748193.05124        26.000           3.688
  15611571.797   -44928456.131 7 -34582196.65523        27.750           2.563
 91  7 26  3  6 29.9840000  0  4G 3G21G17G23
  17834196.609   -15088419.198 6 -11502542.53921        14.500           0.500
  18014089.774   -16481072.213 6 -12550354.19221        14.750           0.969
  16221443.188   -25361497.010 7 -19762200.39924        26.250           3.531
  15603293.391   -44971962.224 7 -34616097.49323        27.750           2.531
 91  7 26  3  6 44.9840000  0  4G 3G21G17G23
  17836480.102   -15076415.258 6 -11493188.87221        14.500           0.563
  17998376.906   -16563638.687 6 -12614691.64021        15.000           0.938
  16218037.859   -25379391.527 7 -19776144.18324        26.250           3.531
  15595037.320   -45015350.888 7 -34649906.83223        27.750           2.531
 91  7 26  3  6 59.9840000  0  4G 3G21G17G23
  17838782.258   -15064306.685 6 -11483753.67221        13.750           0.594
  17982677.180   -16646131.364 6 -12678971.58421        14.750           0.875
  16214648.719   -25397204.726 7 -19790024.60624        26.000           3.594
  15586803.953   -45058622.756 8 -34683625.15922        28.250           2.469
 91  7 26  3  7 14.9840000  0  4G 3G21G17G23
  17841109.844   -15052092.926 6 -11474236.51521        14.750           0.531
  17966993.625   -16728549.077 6 -12743193.12121        15.000           0.906
  16211274.031   -25414935.502 7 -19803840.80224        26.750           3.500
  15578590.891   -45101776.816 7 -34717251.68623        27.500           2.563
 91  7 26  3  7 29.9840000  0  4G 3G21G17G23
  17843454.031   -15039771.395 6 -11464635.38621        14.500           0.563
  17951325.945   -16810889.278 6 -12807354.25521        14.500           0.813
  16207915.133   -25432581.655 7 -19817591.06224        26.750           3.500
  15570401.914   -45144810.658 7 -34750784.54423        27.750           2.625
 91  7 26  3  7 44.9840000  0  4G 3G21G17G23
  17845816.813   -15027344.087 6 -11454951.82621        14.000           0.625
  17935669.445   -16893153.256 6 -12871456.00121        14.750           0.875
  16204571.774   -25450144.474 7 -19831276.38423        26.250           3.469
  15562236.422   -45187725.740 8 -34784224.85923        28.000           2.563
 91  7 26  3  7 59.9840000  0  4G 3G21G17G23
  17848201.852   -15014813.469 6 -11445187.75821        13.250           0.531
  17920031.281   -16975343.119 6 -12935500.00221        14.750           1.000
  16201244.930   -25467626.207 7 -19844898.52323        26.250           3.375
  15554091.477   -45230524.382 8 -34817574.43823        28.000           2.500
 91  7 26  3  8 14.9840000  0  4G 3G21G17G23
  17850607.649   -15002175.229 6 -11435339.83121        13.500           0.500
  17904405.211   -17057454.431 6 -12999482.77621        14.500           0.875
  16197935.383   -25485022.590 7 -19858454.15923        26.750           3.406
  15545969.297   -45273202.224 7 -34850829.89123        27.500           2.656
 91  7 26  3  8 29.9830000  0  4G 3G21G17G23
  17853029.323   -14989434.995 6 -11425412.44021        13.750           0.469
  17888795.183   -17139486.011 6 -13063403.43721        15.000           0.906
  16194640.730   -25502336.620 7 -19871945.62323        25.750           3.469
  15537872.644   -45315760.872 8 -34883992.46623        28.000           2.594
 91  7 26  3  8 44.9830000  0  4G 3G21G17G23
  17855476.355   -14976593.051 6 -11415405.76421        14.250           0.531
  17873199.792   -17221450.387 6 -13127271.72921        14.750           1.000
  16191362.245   -25519572.675 7 -19885376.32823        26.000           3.313
  15529794.425   -45358208.009 8 -34917068.15023        28.000           2.625
 91  7 26  3  8 59.9830000  0  4G 3G21G17G23
  17857938.089   -14963647.244 6 -11405318.18521        14.000           0.563
  17857615.675   -17303338.645 6 -13191080.70921        14.750           0.875
  16188096.597   -25536726.263 7 -19898742.76823        26.000           3.313
  15521739.066   -45400537.636 8 -34950052.26523        28.000           2.656
 91  7 26  3  9 14.9830000  0  4G 3G21G17G23
  17860422.433   -14950599.438 6 -11395151.10421        13.000           0.531
  17842044.722   -17385152.350 6 -13254831.59121        14.500           0.938
  16184847.987   -25553798.953 7 -19912046.16623        26.000           3.281
  15513704.370   -45442751.455 7 -34982946.14723        27.750           2.594
 91  7 26  3  9 29.9830000  0  4G 3G21G17G23
  17862925.292   -14937445.272 6 -11384901.18221        12.750           0.594
  17826493.073   -17466886.779 6 -13318520.70221        15.000           1.000
  16181614.292   -25570785.979 7 -19925282.82023        25.750           3.250
  15505695.026   -45484844.964 7 -35015746.27423        27.750           2.531
 91  7 26  3  9 44.9830000  0  4G 3G21G17G23
  17865448.378   -14924189.848 6 -11374572.33021        13.000           0.594
  17810953.261   -17548546.628 6 -13382151.70921        15.000           1.000
  16178397.378   -25587692.400 7 -19938456.66823        25.750           3.344
  15497706.964   -45526823.174 8 -35048456.56023        28.250           2.594
 91  7 26  3  9 59.9830000  0  4G 3G21G17G23
  17867987.019   -14910835.786 6 -11364166.64521        13.000           0.531
  17795429.066   -17630134.163 6 -13445726.36221        15.250           0.906
  16175195.261   -25604520.713 7 -19951569.64123        26.000           3.375
  15489740.823   -45568688.357 8 -35081078.77223        28.000           2.563
 91  7 26  3 10 14.9830000  0  4G 3G21G17G23
  17870552.292   -14897374.421 6 -11353677.30321        13.000           0.563
  17779919.284   -17711640.269 6 -13509237.56521        15.250           1.031
  16172009.870   -25621261.656 7 -19964614.54423        26.250           3.375
  15481797.214   -45610431.618 7 -35113605.98523        27.750           2.625
 91  7 26  3 10 29.9830000  0  4G 3G21G17G23
  17873131.691   -14883808.938 6 -11343106.85121        12.500           0.531
  17764423.034   -17793067.813 6 -13572687.55421        15.000           1.031
  16168840.355   -25637918.404 7 -19977593.84123        26.250           3.344
  15473875.831   -45652056.242 7 -35146040.75223        27.500           2.500
 91  7 26  3 10 44.9830000  0  4G 3G21G17G23
  17875734.925   -14870145.036 6 -11332459.71721        12.500           0.594
  17748941.347   -17874421.998 6 -13636080.37921        15.250           1.125
  16165687.253   -25654496.178 7 -19990511.59623        26.750           3.344
  15465976.769   -45693567.462 7 -35178387.14923        27.500           2.500
 91  7 26  3 10 59.9830000  0  4G 3G21G17G23
  17878351.870   -14856375.262 6 -11321730.09321        12.500           0.594
  17733475.667   -17955695.274 6 -13699410.15421        15.000           1.125
  16162547.550   -25670987.495 7 -20003361.98423        26.250           3.313
  15458100.691   -45734957.733 8 -35210639.30723        28.000           2.500
 91  7 26  3 11 14.9830000  0  4G 3G21G17G23
  17880991.550   -14842503.684 6 -11310921.12721        12.500           0.500
  17718024.972   -18036890.989 6 -13762679.48321        14.500           1.063
  16159424.917   -25687395.964 7 -20016147.81423        26.000           3.250
  15450246.620   -45776231.029 7 -35242800.30623        27.750           2.500
 91  7 26  3 11 29.9830000  0  4G 3G21G17G23
  17883653.222   -14828528.551 6 -11300031.47721        12.500           0.531
  17702587.245   -18118007.226 6 -13825886.88721        14.500           1.031
  16156320.206   -25703720.073 7 -20028867.90723        26.750           3.188
  15442414.878   -45817385.534 7 -35274868.75123        27.250           2.500
 91  7 26  3 11 44.9830000  0  4G 3G21G17G23
  17886329.253   -14814455.995 5 -11289065.90421        11.750           0.438
  17687166.855   -18199049.685 6 -13889036.81321        15.000           1.063
  16153228.441   -25719965.426 7 -20041526.62623        26.250           3.188
  15434605.456   -45858426.995 8 -35306849.10822        28.000           2.438
 91  7 26  3 11 59.9830000  0  4G 3G21G17G23
  17889025.386   -14800282.709 6 -11278021.84621        12.250           0.438
  17671758.933   -18280014.505 6 -13952126.23121        15.000           1.031
  16150151.886   -25736128.076 7 -20054120.90623        25.750           3.125
  15426817.191   -45899351.785 8 -35338738.55223        28.250           2.500
 91  7 26  3 12 14.9830000  0  4G 3G21G17G23
  17891741.917   -14786006.421 6 -11266897.51021        12.250           0.406
  17656368.753   -18360899.342 6 -14015153.31321        15.000           1.094
  16147092.144   -25752205.897 7 -20066649.07723        25.750           3.156
  15419052.464   -45940158.101 8 -35370535.67822        28.000           2.375
 91  7 26  3 12 29.9830000  0  4G 3G21G17G23
  17894480.323   -14771629.067 6 -11255694.43321        13.000           0.469
  17640990.034   -18441705.779 6 -14078119.32121        14.750           1.000
  16144046.800   -25768200.602 7 -20079112.49523        25.500           3.094
  15411308.511   -45980847.400 7 -35402241.62722        27.750           2.406
 91  7 26  3 12 44.9830000  0  4G 3G21G17G23
  17897235.472   -14757150.211 6 -11244412.26821        13.000           0.500
  17625629.276   -18522432.728 6 -14141023.38821        15.000           1.063
  16141019.151   -25784111.147 7 -20091510.33023        25.250           3.031
  15403587.909   -46021418.789 7 -35433855.69422        27.750           2.438
 91  7 26  3 12 59.9830000  0  4G 3G21G17G23
  17900008.605   -14742571.010 6 -11233051.92421        13.000           0.625
  17610281.862   -18603081.105 6 -14203866.22521        15.500           0.969
  16138009.636   -25799938.785 7 -20103843.56423        25.500           3.094
  15395891.612   -46061873.531 8 -35465378.86622        28.250           2.438
 91  7 26  3 13 14.9830000  0  4G 3G21G17G23
  17902803.401   -14727891.296 6 -11221613.23321        12.500           0.344
  17594950.659   -18683650.443 6 -14266647.48821        15.750           0.969
  16135013.276   -25815683.010 7 -20116111.80523        25.500           3.250
  15388214.605   -46102211.359 8 -35496810.93423        28.000           2.500
 91  7 26  3 13 29.9830000  0  4G 3G21G17G23
  17905614.839   -14713112.994 6 -11210097.73521        12.750           0.406
  17579633.948   -18764142.128 6 -14329368.23321        15.750           1.031
  16132033.019   -25831345.186 7 -20128316.10823        25.500           3.094
  15380559.925   -46142433.671 8 -35528152.98522        28.000           2.375
 91  7 26  3 13 44.9830000  0  4G 3G21G17G23
  17908445.066   -14698242.765 6 -11198510.61621        12.500           0.469
  17564330.862   -18844562.653 6 -14392033.51921        16.250           0.969
  16129066.917   -25846932.137 7 -20140461.79123        25.250           3.156
  15372927.831   -46182547.456 8 -35559410.47222        28.250           2.469
 91  7 26  3 13 59.9830000  0  4G 3G21G17G23
  17911294.300   -14683271.541 6 -11186844.76721        13.000           0.406
  17549040.034   -18924902.426 6 -14454635.90121        15.750           0.969
  16126116.886   -25862434.327 7 -20152541.42723        25.000           3.156
  15365315.722   -46222543.162 8 -35590575.94722        28.000           2.406
 91  7 26  3 14 14.9830000  0  4G 3G21G17G23
  17914161.183   -14668203.895 6 -11175103.80621        12.500           0.344
  17533767.394   -19005165.698 6 -14517178.66421        15.750           0.969
  16123182.284   -25877856.060 7 -20164558.36423        25.500           3.250
  15357726.245   -46262425.265 7 -35621652.90722        27.750           2.438
 91  7 26  3 14 29.9830000  0  4G 3G21G17G23
  17917049.378   -14653041.184 6 -11163288.76621        13.500           0.563
  17518509.917   -19085353.393 6 -14579662.53321        16.000           1.000
  16120261.605   -25893198.539 7 -20176513.54423        24.750           3.250
  15350158.901   -46302194.873 8 -35652642.20423        28.000           2.531
 91  7 26  3 14 44.9830000  0  4G 3G21G17G23
  17919953.011   -14637778.785 6 -11151396.03621        13.250           0.438
  17503266.136   -19165460.585 6 -14642083.66621        16.000           1.031
  16117359.323   -25908456.825 7 -20188403.12323        24.750           3.188
  15342612.761   -46341847.334 8 -35683540.22422        28.000           2.469
 91  7 26  3 14 59.9830000  0  4G 3G21G17G23
  17922874.956   -14622415.803 6 -11139424.94621        13.000           0.500
  17488034.972   -19245485.966 6 -14704441.05921        15.250           1.000
  16114472.034   -25923629.743 7 -20200226.18023        25.250           3.281
  15335090.394   -46381381.508 7 -35714346.06923        27.750           2.500
 91  7 26  3 15 14.9830000  0  4G 3G21G17G23
  17925813.347   -14606960.460 6 -11127381.87021        13.000           0.469
  17472820.355   -19325437.391 6 -14766740.82521        14.750           1.094
  16111599.581   -25938725.295 7 -20211988.95723        25.250           3.250
  15327587.097   -46420805.528 7 -35745066.07623        27.750           2.531
 91  7 26  3 15 29.9830000  0  4G 3G21G17G23
  17928776.901   -14591406.433 6 -11115261.92121        13.500           0.469
  17457621.433   -19405308.255 6 -14828977.80421        15.500           1.000
  16108743.144   -25953737.011 7 -20223686.40423        24.750           3.188
  15320108.308   -46460112.965 8 -35775695.24422        28.000           2.469
 91  7 26  3 15 44.9830000  0  4G 3G21G17G23
  17931751.409   -14575760.058 6 -11103069.99021        12.250           0.375
  17442438.191   -19485104.552 6 -14891156.69221        15.750           1.094
  16105900.605   -25968670.794 7 -20235323.12223        25.000           3.313
  15312648.972   -46499309.993 8 -35806238.37922        28.250           2.438
 91  7 26  3 15 59.9830000  0  4G 3G21G17G23
  17934747.691   -14560014.600 6 -11090800.86221        12.250           0.344
  17427266.495   -19564818.855 6 -14953271.68321        15.250           1.219
  16103075.495   -25983519.572 7 -20246893.60323        25.250           3.219
  15305212.323   -46538389.385 8 -35836689.85122        28.000           2.375
 91  7 26  3 16 14.9830000  0  4G 3G21G17G23
  17937765.019   -14544172.139 6 -11078456.12621        12.750           0.313
  17412113.566   -19644453.107 6 -15015324.29821        15.500           1.250
  16100265.925   -25998285.447 7 -20258399.48923        25.000           3.406
  15297797.862   -46577353.342 8 -35867051.37023        28.250           2.531
 91  7 26  3 16 29.9830000  0  4G 3G21G17G23
  17940800.050   -14528234.336 6 -11066037.11021        13.000           0.313
  17396975.878   -19724008.500 6 -15077315.45521        16.000           1.156
  16097470.253   -26012969.625 7 -20269841.70923        24.500           3.250
  15290405.089   -46616203.263 8 -35897324.03222        28.000           2.438
 91  7 26  3 16 44.9830000  0  4G 3G21G17G23
  17943847.667   -14512199.719 5 -11053542.66621        11.250           0.313
  17381850.597   -19803483.089 6 -15139243.66321        16.000           1.094
  16094692.761   -26027570.471 7 -20281218.99023        25.250           3.250
  15283033.230   -46654937.419 8 -35927506.48323        28.000           2.531
 91  7 26  3 16 59.9830000  0  4G 3G21G17G23
  17946918.003   -14496066.516 5 -11040971.37821        11.250           0.313
  17366743.198   -19882874.840 6 -15201107.31321        16.250           1.219
  16091929.269   -26042085.815 7 -20292529.65023        24.500           3.375
  15275686.745   -46693554.082 8 -35957597.38422        28.250           2.406
 91  7 26  3 17 14.9830000  0  4G 3G21G17G23
  17950005.230   -14479838.633 5 -11028326.33721        11.000           0.375
  17351653.191   -19962187.250 6 -15262909.13921        16.750           1.281
  16089183.909   -26056519.288 7 -20303776.51223        24.250           3.469
  15268359.659   -46732056.834 8 -35987599.52422        28.750           2.469
 91  7 26  3 17 29.9830000  0  4G 3G21G17G23
  17953112.769   -14463517.837 5 -11015608.88221        11.500           0.438
  17336572.878   -20041421.808 6 -15324650.29721        17.000           1.281
  16086452.534   -26070872.618 7 -20314960.93323        24.500           3.375
  15261052.948   -46770447.179 8 -36017514.07622        28.000           2.438
 91  7 26  3 17 44.9830000  0  4G 3G21G17G23
  17956233.081   -14447106.753 5 -11002821.09621        11.750           0.469
  17321512.206   -20120580.633 6 -15386332.45621        17.000           1.313
  16083735.683   -26085147.798 7 -20326084.45523        24.750           3.344
  15253767.941   -46808727.637 7 -36047342.99622        27.750           2.438
 91  7 26  3 17 59.9830000  0  4G 3G21G17G23
  17959374.323   -14430606.583 5 -10989963.88121        11.250           0.469
  17306462.550   -20199664.544 6 -15447956.22521        17.250           1.313
  16081033.378   -26099345.942 7 -20337147.93923        24.250           3.281
  15246504.136   -46846899.314 8 -36077087.15522        28.000           2.438
 91  7 26  3 18 14.9830000  0  4G 3G21G17G23
  17962530.472   -14414012.939 5 -10977033.82421        10.750           0.438
  17291427.980   -20278668.869 6 -15509517.99021        17.500           1.219
  16078346.066   -26113462.576 7 -20348147.91823        24.250           3.375
  15239262.667   -46884957.722 8 -36106743.05522        28.500           2.438
 91  7 26  3 18 29.9820000  0  4G 3G21G17G23
  17965706.990   -14397328.689 5 -10964033.19221        11.500           0.375
  17276409.858   -20357589.599 6 -15571014.61121        17.500           1.219
  16075674.662   -26127497.957 7 -20359084.58223        23.750           3.344
  15232042.475   -46922901.850 8 -36136309.90023        28.500           2.500
 91  7 26  3 18 44.9820000  0  4G 3G21G17G23
  17968902.092   -14380549.572 5 -10950958.59921        11.500           0.313
  17261406.287   -20436434.900 6 -15632452.46321        17.500           1.281
  16073020.014   -26141451.690 7 -20369957.62323        23.750           3.469
  15224843.420   -46960734.413 8 -36165789.81623        28.500           2.594
 91  7 26  3 18 59.9820000  0  4G 3G21G17G23
  17972111.193   -14363676.721 5 -10937810.97321        11.500           0.344
  17246416.412   -20515199.154 6 -15693827.15021        17.250           1.156
  16070381.717   -26155322.578 7 -20380766.11524        24.000           3.531
  15217664.537   -46998453.000 8 -36195180.92022        28.250           2.406
 91  7 26  3 19 14.9820000  0  4G 3G21G17G23
  17975340.397   -14346711.804 6 -10924591.58621        12.250           0.375
  17231443.412   -20593883.768 6 -15755139.79021        17.500           1.219
  16067758.436   -26169111.994 7 -20391511.12223        24.750           3.375
  15210508.061   -47036059.032 7 -36224484.31623        27.750           2.500
 91  7 26  3 19 29.9820000  0  4G 3G21G17G23
  17978586.897   -14329655.456 6 -10911300.99221        12.000           0.438
  17216486.787   -20672488.863 6 -15816390.46721        17.500           1.156
  16065149.756   -26182820.544 7 -20402193.10323        24.500           3.438
  15203373.842   -47073552.939 7 -36253700.34322        27.750           2.469
 91  7 26  3 19 44.9820000  0  4G 3G21G17G23
  17981847.443   -14312511.815 6 -10897942.37221        12.250           0.438
  17201542.990   -20751018.213 6 -15877582.12121        17.750           1.156
  16062555.490   -26196451.932 7 -20412814.97323        24.500           3.469
  15196260.576   -47110938.547 8 -36282831.98522        28.250           2.438
 91  7 26  3 19 59.9820000  0  4G 3G21G17G23
  17985127.295   -14295278.418 6 -10884513.81821        12.000           0.406
  17186614.272   -20829468.942 6 -15938712.51521        17.500           1.125
  16059977.764   -26210003.499 7 -20423374.64523        24.750           3.469
  15189165.889   -47148213.324 7 -36311877.25922        27.750           2.344
 91  7 26  3 20 14.9820000  0  4G 3G21G17G23
  17988423.826   -14277955.341 5 -10871015.37221        11.250           0.563
  17171698.498   -20907840.873 6 -15999781.50621        17.250           1.219
  16057413.912   -26223475.028 7 -20433871.94623        25.250           3.469
  15182094.889   -47185377.155 8 -36340836.08622        28.250           2.344
 91  7 26  3 20 29.9820000  0  4G 3G21G17G23
  17991735.756   -14260546.156 5 -10857449.83621        11.000           0.375
  17156800.061   -20986137.090 6 -16060791.49721        16.750           1.250
  16054864.787   -26236869.778 7 -20444309.41723        25.750           3.375
  15175042.975   -47222433.509 7 -36369711.15722        27.750           2.375
 91  7 26  3 20 44.9820000  0  4G 3G21G17G23
  17995063.795   -14243053.579 5 -10843819.31221        11.000           0.469
  17141914.029   -21064359.798 6 -16121744.20221        16.750           1.156
  16052330.811   -26250190.366 7 -20454689.09923        25.750           3.375
  15168010.303   -47259384.934 8 -36398504.47122        28.000           2.375
 91  7 26  3 20 59.9820000  0  4G 3G21G17G23
  17998410.084   -14225471.435 5 -10830119.00621        11.250           0.375
  17127045.131   -21142502.533 6 -16182634.60221        17.000           1.156
  16049810.108   -26263430.204 7 -20465005.86223        25.250           3.438
  15160999.858   -47296225.079 7 -36427211.06622        27.500           2.313
 91  7 26  3 21 14.9820000  0  4G 3G21G17G23
  18001774.826   -14207799.703 6 -10816348.87321        12.000           0.313
  17112192.248   -21220564.874 6 -16243462.35121        17.000           1.250
  16047304.193   -26276588.838 7 -20475259.34723        24.750           3.438
  15154012.397   -47332953.599 8 -36455830.69022        28.250           2.406
 91  7 26  3 21 29.9820000  0  4G 3G21G17G23
  18005154.295   -14190041.216 6 -10802511.13321        12.000           0.375
  17097347.701   -21298549.422 6 -16304229.48721        16.500           1.250
  16044817.092   -26289669.018 7 -20485451.70523        25.250           3.156
  15147043.295   -47369573.489 8 -36484365.66222        28.000           2.313
 91  7 26  3 21 44.9820000  0  4G 3G21G17G23
  18008549.608   -14172194.537 5 -10788604.68621        11.750           0.344
  17082524.490   -21376454.278 6 -16364934.52421        16.250           1.125
  16042345.256   -26302668.863 7 -20495581.45623        25.500           3.219
  15140096.772   -47406082.891 7 -36512814.54122        27.750           2.438
 91  7 26  3 21 59.9820000  0  4G 3G21G17G23
  18011964.014   -14154258.780 6 -10774628.82521        12.000           0.375
  17067714.748   -21454278.196 6 -16425576.49221        16.750           1.250
  16039886.686   -26315587.529 7 -20505647.95223        25.500           3.250
  15133169.701   -47442481.021 7 -36541176.71822        27.750           2.406
 91  7 26  3 22 14.9820000  0  4G 3G21G17G23
  18015393.983   -14136239.446 5 -10760587.85221        11.750           0.313
  17052919.147   -21532026.084 6 -16486159.21121        16.500           1.313
  16037441.115   -26328430.078 7 -20515655.14123        25.000           3.313
  15126262.686   -47478772.961 7 -36569456.14022        27.750           2.438
 91  7 26  3 22 29.9820000  0  4G 3G21G17G23
  18018836.725   -14118130.788 5 -10746477.25321        10.750           0.375
  17038141.084   -21609691.900 6 -16546677.98321        16.750           1.250
  16035011.123   -26341190.609 7 -20525598.41823        24.750           3.250
  15119378.639   -47514952.706 8 -36597648.14422        28.000           2.438
 91  7 26  3 22 44.9820000  0  4G 3G21G17G23
  18022298.795   -14099938.955 5 -10732301.86921        10.000           0.375
  17023375.639   -21687281.445 6 -16607137.32621        16.500           1.250
  16032598.951   -26353874.671 7 -20535482.11223        25.500           3.250
  15112514.053   -47551026.262 8 -36625757.40522        28.250           2.469
 91  7 26  3 22 59.9820000  0  4G 3G21G17G23
  18025775.811   -14081661.915 5 -10718060.08321         9.500           0.344
  17008626.092   -21764792.389 6 -16667535.40921        17.000           1.250
  16030200.522   -26366480.263 7 -20545304.65823        25.750           3.281
  15105669.568   -47586991.578 7 -36653782.32222        27.750           2.406
 91  7 26  3 23 14.9820000  0  4G 3G21G17G23
  18029272.756   -14063299.531 5 -10703751.80721        10.500           0.281
  16993893.490   -21842224.076 6 -16727871.74621        17.750           1.344
  16027818.178   -26379006.698 7 -20555065.52723        25.750           3.188
  15098846.748   -47622848.143 8 -36681722.50023        28.000           2.500
 91  7 26  3 23 29.9820000  0  4G 3G21G17G23
  18032784.170   -14044849.983 5 -10689375.57921        11.500           0.281
  16979171.959   -21919574.493 6 -16788144.76421        17.750           1.375
  16025448.084   -26391452.201 7 -20564763.32423        24.750           3.281
  15092044.162   -47658594.225 7 -36709576.58122        27.750           2.313
 91  7 26  3 23 44.9820000  0  4G 3G21G17G23
  18036308.881   -14026315.929 5 -10674933.49721        10.250           0.188
  16964468.584   -21996845.733 6 -16848356.07621        17.750           1.250
  16023093.772   -26403818.905 7 -20574399.72823        24.750           3.281
  15085263.686   -47694232.129 8 -36737346.37422        28.000           2.406
 91  7 26  3 23 59.9820000  0  4G 3G21G17G23
  18039855.131   -14007693.618 5 -10660422.66721        10.750           0.281
  16949779.631   -22074033.786 6 -16908502.56721        17.750           1.313
  16020757.373   -26416102.867 7 -20583971.65623        24.750           3.156
  15078503.045   -47729758.037 8 -36765028.89622        28.000           2.438
 91  7 26  3 24 14.9820000  0  4G 3G21G17G23
  18043415.686   -13988982.499 5 -10645842.62221        10.500           0.250
  16935109.029   -22151137.703 6 -16968583.49921        18.750           1.438
  16018434.154   -26428303.238 7 -20593478.44223        24.250           3.156
  15071765.037   -47765171.203 8 -36792623.56722        28.250           2.469
 91  7 26  3 24 29.9820000  0  4G 3G21G17G23
  18046990.037   -13970190.894 5 -10631199.85821        10.000           0.250
  16920449.959   -22228165.515 6 -17028605.13721        18.250           1.438
  16016126.318   -26440428.160 7 -20602926.43923        24.250           3.094
  15065045.084   -47800480.001 8 -36820136.91723        28.000           2.500
 91  7 26  3 24 44.9820000  0  4G 3G21G17G23
  18050582.233   -13951314.976 5 -10616491.40521        10.000           0.219
  16905807.303   -22305112.714 6 -17088563.94821        17.750           1.375
  16013836.318   -26452473.320 7 -20612312.28823        24.750           3.031
  15058346.787   -47835680.133 8 -36847565.58622        28.250           2.375
 91  7 26  3 24 59.9820000  0  4G 3G21G17G23
  18054188.725   -13932355.449 5 -10601717.81321         9.750           0.281
  16891178.865   -22381979.689 6 -17148460.25421        17.750           1.469
  16011559.279   -26464439.487 7 -20621636.58523        25.000           2.969
  15051668.983   -47870772.180 8 -36874910.03423        28.000           2.531
 91  7 26  3 25 14.9820000  0  4G 3G21G17G23
  18057810.608   -13913314.494 5 -10586880.74121         9.500           0.281
  16876567.983   -22458768.466 6 -17208295.61321        18.500           1.313
  16009295.217   -26476328.355 7 -20630900.64723        24.250           2.906
  15045011.639   -47905758.227 8 -36902171.88622        28.250           2.438
 91  7 26  3 25 29.9820000  0  4G 3G21G17G23
  18061454.279   -13894187.685 5 -10571976.80621        10.750           0.375
  16861972.436   -22535474.001 6 -17268066.12421        18.000           1.406
  16007049.350   -26488134.975 7 -20640100.62023        24.750           2.875
  15038373.670   -47940633.390 7 -36929347.33422        27.750           2.406
 91  7 26  3 25 44.9820000  0  4G 3G21G17G23
  18065109.053   -13874971.643 5 -10557003.33921        10.500           0.375
  16847390.287   -22612092.756 6 -17327769.00621        17.500           1.438
  16004820.920   -26499855.984 7 -20649233.88023        25.250           2.938
  15031759.686   -47975394.363 8 -36956433.80823        28.000           2.500
 91  7 26  3 25 59.9820000  0  4G 3G21G17G23
  18068781.764   -13855669.349 5 -10541962.62521        10.750           0.406
  16832827.568   -22688627.128 6 -17387406.14421        17.750           1.375
  16002606.264   -26511493.902 7 -20658302.39623        24.750           2.875
  15025165.053   -48010043.868 7 -36983433.41523        27.750           2.625
 91  7 26  3 26 14.9820000  0  4G 3G21G17G23
  18072475.990   -13836280.441 5 -10526854.46821        10.750           0.250
  16818275.608   -22765076.602 6 -17446977.11921        17.250           1.406
  16000406.381   -26523048.170 7 -20667305.73323        24.750           2.969
  15018593.951   -48044581.530 7 -37010345.87823        27.750           2.563
 91  7 26  3 26 29.9820000  0  4G 3G21G17G23
  18076176.842   -13816811.696 5 -10511684.05821        10.000           0.344
  16803744.209   -22841447.423 6 -17506486.81121        17.750           1.406
  15998222.084   -26534525.412 7 -20676249.04323        24.750           3.031
  15012042.373   -48079013.968 7 -37037176.34523        27.750           2.625
 91  7 26  3 26 44.9820000  0  4G 3G21G17G23
  18079895.279   -13797260.883 5 -10496449.71721        10.250           0.344
  16789226.365   -22917736.940 6 -17565933.14921        17.250           1.406
  15996053.193   -26545923.082 7 -20685130.34823        24.250           3.031
  15005509.397   -48113338.771 8 -37063922.94522        28.000           2.406
 91  7 26  3 26 59.9820000  0  4G 3G21G17G23
  18083632.287   -13777630.602 5 -10481153.45421         9.750           0.375
  16774723.709   -22993947.275 6 -17625317.78321        17.250           1.469
  15993898.756   -26557243.462 7 -20693951.43223        24.500           3.063
  14998998.240   -48147558.189 8 -37090587.42322        28.000           2.469
 91  7 26  3 27 14.9820000  0  4G 3G21G17G23
  18087383.889   -13757920.253 5 -10465794.77921        10.000           0.313
  16760236.389   -23070077.613 6 -17684640.08321        17.000           1.469
  15991760.498   -26568485.510 7 -20702711.47523        24.750           3.000
  14992506.881   -48181671.447 8 -37117169.18022        28.250           2.438
 91  7 26  3 27 29.9820000  0  4G 3G21G17G23
  18091151.420   -13738133.068 5 -10450376.29021        10.500           0.313
  16745763.975   -23146130.802 6 -17743902.27821        16.750           1.469
  15989634.233   -26579652.357 7 -20711412.91823        24.500           3.094
  14986034.100   -48215681.749 8 -37143670.71423        28.250           2.531
 91  7 26  3 27 44.9820000  0  4G 3G21G17G23
  18094928.545   -13718266.772 5 -10434896.07721        10.000           0.313
  16731309.576   -23222104.093 6 -17803102.20621        17.500           1.406
  15987524.279   -26590741.215 7 -20720053.59523        24.750           2.938
  14979580.428   -48249586.588 7 -37170090.06723        27.500           2.531
 91  7 26  3 27 59.9820000  0  4G 3G21G17G23
  18098725.381   -13698329.668 5 -10419360.76221        10.500           0.313
  16716866.240   -23298005.370 6 -17862246.01221        17.500           1.469
  15985429.647   -26601760.182 7 -20728639.81223        25.250           2.844
  14973148.006   -48283393.948 7 -37196433.46422        27.250           2.469
 91  7 26  3 28 14.9820000  0  4G 3G21G17G23
  18102530.701   -13678320.434 5 -10403769.19521        10.000           0.250
  16702432.975   -23373833.001 6 -17921332.44721        17.250           1.406
  15983344.443   -26612707.944 7 -20737170.54423        25.250           2.813
  14966734.811   -48317102.470 7 -37222699.84122        27.500           2.438
 91  7 26  3 28 29.9820000  0  4G 3G21G17G23
  18106357.733   -13658225.509 5 -10388110.87921        10.250           0.313
  16688023.108   -23449572.948 6 -17980350.55121        17.750           1.406
  15981278.811   -26623570.370 7 -20745634.77823        25.000           2.781
  14960341.045   -48350698.634 7 -37248878.66622        27.250           2.375
 91  7 26  3 28 44.9810000  0  4G 3G21G17G23
  18110192.103   -13638051.922 5 -10372391.24821         9.750           0.313
  16673626.048   -23525225.562 6 -18039300.60522        18.000           1.500
  15979226.915   -26634352.132 7 -20754036.15523        24.750           2.875
  14953970.150   -48384185.614 7 -37274972.41722        27.750           2.406
 91  7 26  3 28 59.9810000  0  4G 3G21G17G23
  18114050.282   -13617797.278 5 -10356608.46521         9.250           0.344
  16659244.681   -23600800.738 6 -18098190.31221        18.000           1.344
  15977189.345   -26645054.862 7 -20762375.95323        24.750           2.844
  14947616.407   -48417567.804 7 -37300984.51222        27.500           2.438
 91  7 26  3 29 14.9810000  0  4G 3G21G17G23
  18117919.509   -13597463.864 5 -10340764.33121         9.750           0.313
  16644876.462   -23676294.165 6 -18157016.33221        18.250           1.375
  15975167.181   -26655678.556 7 -20770654.16323        24.250           2.844
  14941284.228   -48450843.949 7 -37326913.96922        27.500           2.406
 91  7 26  3 29 29.9810000  0  4G 3G21G17G23
  18121800.892   -13577056.365 5 -10324862.42621         9.000           0.344
  16630528.259   -23751710.074 6 -18215781.93721        18.250           1.375
  15973161.251   -26666227.377 7 -20778874.02723        24.500           2.781
  14934972.267   -48484018.491 7 -37352764.26123        27.750           2.531
 91  7 26  3 29 44.9810000  0  4G 3G21G17G23
  18125699.290   -13556571.649 5 -10308900.39221         8.750           0.313
  16616192.681   -23827044.968 6 -18274484.41821        19.000           1.438
  15971168.087   -26676697.985 7 -20787032.95023        24.000           2.906
  14928678.282   -48517088.168 7 -37378532.83922        27.500           2.469
 91  7 26  3 29 59.9810000  0  4G 3G21G17G23
  18129613.345   -13536009.781 5 -10292878.24021         8.750           0.438
  16601872.540   -23902298.418 6 -18333123.43521        19.000           1.438
  15969188.923   -26687090.143 7 -20795130.74523        24.000           2.969
  14922406.525   -48550052.628 7 -37404219.42823        27.500           2.500
 91  7 26  3 30 14.9810000  0  4G 3G21G17G23
  18133538.407   -13515368.413 5 -10276794.13221         8.250           0.219
  16587568.720   -23977467.832 6 -18391696.97221        19.000           1.469
  15967229.501   -26697401.382 7 -20803165.48223        24.750           2.781
  14916152.446   -48582909.487 7 -37429822.17222        27.250           2.438
 91  7 26  3 30 29.9810000  0  4G 3G21G17G23
  18137486.626   -13494648.768 5 -10260649.02321         9.250           0.313
  16573278.907   -24052553.887 6 -18450205.55122        19.000           1.500
  15965280.157   -26707632.357 7 -20811137.67023        24.250           2.875
  14909921.525   -48615659.762 7 -37455341.86723        27.750           2.500
 91  7 26  3 30 44.9810000  0  5G 3G21G17G11G23
  18141442.118   -13473853.659 5 -10244445.11021         9.000           0.219
  16559004.423   -24127559.089 6 -18508651.12421        18.500           1.406
  15963348.579   -26717785.716 7 -20819049.38823        24.250           2.906
  19194348.478          -0.88515                         8.000
  14903707.939   -48648306.105 7 -37480780.57322        27.250           2.469
 91  7 26  3 30 59.9810000  0  5G 3G21G17G11G23
  18145411.775   -13452985.928 5 -10228184.56621        10.000           0.250
  16544749.157   -24202485.993 6 -18567035.69622        19.000           1.563
  15961431.126   -26727864.184 7 -20826902.75123        24.500           2.938
  19176502.720      -93816.438 5                         8.250
  14897515.985   -48680851.222 7 -37506140.40322        27.500           2.469
 91  7 26  3 31 14.9810000  0  5G 3G21G17G11G23
  18149399.970   -13432040.336 5 -10211863.40021         9.000           0.250
  16530505.134   -24277328.774 6 -18625354.71022        18.750           1.688
  15959530.642   -26737862.208 7 -20834693.42523        25.250           2.844
  19158653.329     -187603.402 5                         8.500
  14891342.751   -48713289.661 7 -37531417.10423        27.000           2.563
 91  7 26  3 31 29.9810000  0  5G 3G21G17G11G23
  18153397.267   -13411019.069 5 -10195483.25221         9.250           0.219
  16516279.993   -24352089.403 6 -18683609.71322        18.500           1.531
  15957641.150   -26747781.693 7 -20842422.90523        24.750           2.781
  19140809.220     -281363.525 5                         8.250
  14885188.540   -48745623.691 7 -37556612.45222        27.000           2.438
 91  7 26  3 31 44.9810000  0  5G 3G21G17G11G23
  18157413.556   -13389926.337 5 -10179047.39621         8.750           0.250
  16502066.142   -24426771.512 6 -18741803.53422        18.500           1.625
  15955766.478   -26757626.158 7 -20850093.92923        24.500           2.875
  19122969.212     -375100.276 5                         7.750
  14879056.282   -48777857.150 7 -37581729.43223        27.250           2.563
 91  7 26  3 31 59.9810000  0  5G 3G21G17G11G23
  18161442.392   -13368762.542 5 -10162556.22621         9.000           0.281
  16487870.228   -24501375.098 6 -18799936.16022        18.250           1.656
  15953907.923   -26767396.049 7 -20857706.83823        25.000           2.906
  19105136.407     -468813.516 5        -0.32431         7.750           0.281
  14872940.517   -48809990.197 7 -37606768.16722        27.000           2.406
 91  7 26  3 32 14.9810000  0  5G 3G21G17G11G23
  18165478.876   -13347530.261 5 -10146011.65921         8.000           0.219
  16473689.814   -24575902.655 6 -18858009.54922        18.750           1.500
  15952063.048   -26777093.922 7 -20865263.63123        24.500           2.906
  19087311.431     -562505.319 5    -73006.86621         8.750           0.219
  14866845.493   -48842025.472 7 -37631730.71223        26.750           2.500
 91  7 26  3 32 29.9810000  0  5G 3G21G17G11G23
  18169533.767   -13326229.341 5 -10129413.61621         8.500           0.188
  16459522.095   -24650353.443 6 -18916023.12222        18.500           1.656
  15950233.243   -26786718.938 7 -20872763.65623        25.250           2.844
  19069481.993     -656174.642 5   -145995.92721         8.750           0.219
  14860767.900   -48873962.411 7 -37656616.64323        26.750           2.594
 91  7 26  3 32 44.9810000  0  5G 3G21G17G11G23
  18173598.923   -13304858.719 5 -10112761.23821         8.500           0.156
  16445369.032   -24724726.105 6 -18973975.81622        18.250           1.594
  15948414.735   -26796269.775 7 -20880205.86623        25.250           3.031
  19051662.884     -749819.926 5   -218966.22321         8.750           0.219
  14854709.079   -48905799.918 7 -37681425.08623        26.750           2.563
 91  7 26  3 32 59.9810000  0  5G 3G21G17G11G23
  18177683.251   -13283412.036 5 -10096049.57921         8.250           0.125
  16431233.376   -24799013.897 6 -19031862.37722        19.000           1.625
  15946611.946   -26805739.967 7 -20887585.24923        24.750           2.938
  19033847.290     -843434.206 5   -291912.37621         8.500           0.188
  14848670.228   -48937531.571 7 -37706151.04823        26.750           2.563
 91  7 26  3 33 14.9810000  0  5G 3G21G17G11G23
  18181778.548   -13261893.943 5 -10079282.30321         9.000           0.063
  16417110.978   -24873221.045 6 -19089686.10222        18.750           1.594
  15944824.931   -26815133.731 7 -20894905.07423        25.250           3.063
  19016039.212     -937021.367 5   -364837.42921         8.500           0.156
  14842651.501   -48969161.543 7 -37730797.78023        26.500           2.625
 91  7 26  3 33 29.9810000  0  5G 3G21G17G11G23
  18185887.806   -13240303.854 5 -10062458.90521         8.250           0.156
  16403006.493   -24947346.575 6 -19147446.22322        19.000           1.563
  15943051.189   -26824450.283 7 -20902164.72923        25.000           3.000
  18998236.946    -1030580.167 5   -437740.31721         9.000           0.188
  14836652.275   -49000689.154 7 -37755364.74823        26.750           2.625
 91  7 26  3 33 44.9810000  0  5G 3G21G17G11G23
  18190010.298   -13218638.923 5 -10045577.21121         8.250           0.219
  16388913.884   -25021387.379 6 -19205140.32122        18.750           1.500
  15941292.860   -26833686.410 7 -20909361.71923        24.500           3.000
  18980441.689    -1124107.330 5   -510618.60421         9.250           0.250
  14830673.587   -49032111.314 7 -37779849.54423        27.000           2.719
 91  7 26  3 33 59.9810000  0  5G 3G21G17G11G23
  18194142.735   -13196906.100 5 -10028642.64121         8.000           0.156
  16374841.501   -25095349.759 6 -19262773.31622        19.000           1.563
  15939550.509   -26842848.661 7 -20916501.14623        24.750           2.875
  18962644.892    -1217608.867 5   -583476.90421         8.500           0.250
  14824712.501   -49063434.771 7 -37804257.43523        27.000           2.594
 91  7 26  3 34 14.9810000  0  5G 3G21G17G11G23
  18198290.025   -13175102.056 5 -10011652.53121         8.000           0.250
  16360782.071   -25169230.202 6 -19320342.46222        19.000           1.500
  15937822.743   -26851933.739 7 -20923580.43723        24.250           3.094
  18944858.282    -1311081.062 5   -656312.33221         8.750           0.313
  14818771.501   -49094656.322 7 -37828585.91623        27.250           2.531
 91  7 26  3 34 29.9810000  0  5G 3G21G17G11G23
  18202454.454   -13153229.446 5  -9994608.96321         8.500           0.156
  16346738.126   -25243030.868 6 -19377849.44222        19.250           1.563
  15936105.821   -26860943.761 7 -20930601.23523        24.000           2.938
  18927080.759    -1404525.812 5   -729126.39021         9.500           0.344
  14812848.595   -49125778.351 7 -37852836.84623        27.000           2.594
 91  7 26  3 34 44.9810000  0  5G 3G21G17G11G23
  18206631.665   -13131283.988 5  -9977508.71821         8.750           0.313
  16332710.400   -25316747.113 6 -19435290.64722        19.250           1.531
  15934407.478   -26869874.447 7 -20937560.22223        24.000           3.094
  18909303.837    -1497938.303 5   -801915.29021         9.500           0.250
  14806946.704   -49156796.443 7 -37877006.78623        27.000           2.625
 91  7 26  3 34 59.9810000  0  5G 3G21G17G11G23
  18210819.400   -13109272.731 5  -9960357.13521         9.000           0.250
  16318697.775   -25390385.549 6 -19492671.21222        19.500           1.594
  15932722.165   -26878732.265 7 -20944462.42423        24.000           2.969
  18891533.181    -1591324.846 5   -874683.98521         9.250           0.313
  14801062.095   -49187717.372 7 -37901101.01423        26.750           2.656
 91  7 26  3 35 14.9810000  0  5G 3G21G17G11G23
  18215019.603   -13087194.991 5  -9943153.74721         8.500           0.281
  16304701.845   -25463945.203 6 -19549990.38122        19.750           1.531
  15931050.868   -26887516.200 7 -20951307.06423        23.750           2.813
  18873767.040    -1684684.135 5   -947431.44121         8.750           0.281
  14795195.735   -49218540.188 7 -37925118.79123        26.750           2.594
 91  7 26  3 35 29.9810000  0  5G 3G21G17G11G23
  18219237.743   -13065048.851 5  -9925897.09621         8.750           0.281
  16290717.064   -25537423.786 7 -19607246.38722        20.000           1.625
  15929393.462   -26896224.151 7 -20958092.48723        24.000           2.625
  18856010.110    -1778013.507 5  -1020155.55621         8.750           0.250
  14789350.782   -49249262.952 7 -37949058.60523        26.750           2.688
 91  7 26  3 35 44.9810000  0  5G 3G21G17G11G23
  18223464.095   -13042828.255 5  -9908582.38421         7.750           0.188
  16276751.634   -25610814.730 6 -19664434.10422        19.750           1.625
  15927753.189   -26904849.602 7 -20964813.62323        24.250           2.688
  18838255.392    -1871306.232 5  -1092851.16321         9.000           0.313
  14783524.751   -49279879.198 7 -37972915.42023        26.750           2.719
 91  7 26  3 35 59.9810000  0  5G 3G21G17G11G23
  18227703.689   -13020542.265 5  -9891216.76621         8.000           0.250
  16262800.376   -25684126.871 7 -19721560.41222        20.000           1.688
  15926125.110   -26913401.575 7 -20971477.50423        24.000           2.750
  18820506.157    -1964570.947 5  -1165524.89521         9.000           0.281
  14777715.001   -49310398.181 7 -37996696.44223        26.500           2.656
 91  7 26  3 36 14.9810000  0  5G 3G21G17G11G23
  18231956.376   -12998190.285 4  -9873799.69321         6.750           0.313
  16248863.587   -25757359.118 7 -19778624.46922        20.250           1.625
  15924510.400   -26921879.122 7 -20978083.40723        24.000           2.781
  18802762.743    -2057806.394 5  -1238175.85521         9.000           0.281
  14771928.001   -49340818.965 7 -38020400.95023        26.750           2.688
 91  7 26  3 36 29.9810000  0  5G 3G21G17G11G23
  18236223.978   -12975771.343 4  -9856330.49421         7.250           0.250
  16234944.743   -25830510.277 7 -19835625.34522        20.250           1.813
  15922913.150   -26930281.154 7 -20984630.45223        24.750           2.688
  18785027.470    -2151010.988 5  -1310802.75921         9.250           0.344
  14766157.876   -49371140.420 7 -38044028.05823        26.250           2.688
 91  7 26  3 36 44.9810000  0  5G 3G21G17G11G23
  18240499.907   -12953284.970 4  -9838808.69821         7.250           0.250
  16221041.173   -25903579.277 7 -19892562.19122        20.500           1.781
  15921328.743   -26938606.527 7 -20991117.76223        24.250           2.750
  18767293.446    -2244183.467 5  -1383404.63221         9.000           0.344
  14760406.806   -49401361.658 7 -38067577.07323        26.250           2.688
 91  7 26  3 36 59.9810000  0  5G 3G21G17G11G23
  18244794.110   -12930729.995 5  -9821233.45621         8.250           0.188
  16207151.587   -25976564.666 7 -19949433.89622        20.500           1.719
  15919759.595   -26946853.953 7 -20997544.34023        23.750           2.750
  18749570.142    -2337321.964 5  -1455980.02921         8.750           0.281
  14754674.939   -49431481.450 7 -38091047.04123        26.250           2.625
 91  7 26  3 37 14.9810000  0  5G 3G21G17G11G23
  18249098.454   -12908116.691 5  -9803612.76021         8.500           0.250
  16193276.439   -26049476.468 6 -20006248.25622        19.750           1.719
  15918202.454   -26955033.642 7 -21003918.13623        23.500           2.781
  18731850.673    -2430436.454 5  -1528536.71721         8.500           0.438
  14748960.790   -49461510.166 7 -38114446.04123        26.750           2.688
 91  7 26  3 37 29.9810000  0  5G 3G21G17G11G23
  18253411.642   -12885446.897 5  -9785948.01221         8.000           0.219
  16179417.493   -26122315.846 7 -20063006.17922        20.500           1.719
  15916658.064   -26963146.853 7 -21010240.12423        23.500           2.750
  18714139.126    -2523527.787 5  -1601075.35721         8.750           0.188
  14743264.618   -49491449.279 7 -38137775.21623        26.500           2.656
 91  7 26  3 37 44.9810000  0  5G 3G21G17G11G23
  18257742.837   -12862713.090 5  -9768233.44921         8.000           0.219
  16165569.540   -26195075.088 7 -20119701.66222        20.000           1.656
  15915127.314   -26971186.000 7 -21016504.39923        23.750           2.719
  18696430.407    -2616587.794 5  -1673589.58121         9.500           0.344
  14737583.814   -49521291.013 7 -38161028.51923        26.250           2.781
 91  7 26  3 37 59.9810000  0  5G 3G21G17G11G23
  18262077.267   -12839917.735 5  -9750470.87021         8.750           0.156
  16151738.915   -26267756.239 6 -20176336.29622        19.750           1.656
  15913610.900   -26979153.071 7 -21022712.50923        23.250           2.656
  18678728.415    -2709618.289 5  -1746080.82321         9.750           0.219
  14731926.259   -49551037.813 7 -38184207.84323        26.750           2.656
 91  7 26  3 38 14.9810000  0  5G 3G21G17G11G23
  18266426.165   -12817058.412 5  -9732658.50921         8.000           0.094
  16137923.298   -26340356.488 6 -20232907.88122        19.750           1.594
  15912112.462   -26987045.435 7 -21028862.41523        24.000           2.719
  18661027.993    -2802616.228 5  -1818546.71221         9.750           0.219
  14726282.759   -49580687.031 7 -38207311.12623        26.250           2.750
 91  7 26  3 38 29.9810000  0  5G 3G21G17G11G23
  18270786.767   -12794137.731 4  -9714798.26321         7.250           0.250
  16124125.360   -26412877.902 7 -20289418.03722        20.250           1.688
  15910622.704   -26994865.137 7 -21034955.69623        24.250           2.625
  18643334.650    -2895583.392 5  -1890988.60621        10.000           0.313
  14720658.032   -49610241.018 7 -38230340.20923        26.000           2.719
 91  7 26  3 38 44.9810000  0  5G 3G21G17G11G23
  18275159.540   -12771156.869 5  -9696891.14421         7.500           0.250
  16110335.993   -26485321.462 6 -20345867.53622        19.250           1.688
  15909149.314   -27002613.405 7 -21040993.31923        24.500           2.500
  18625650.962    -2988520.611 5  -1963407.17221        10.250           0.406
  14715051.712   -49639700.896 7 -38253295.96023        26.000           2.906
 91  7 26  3 38 59.9800000  0  5G 3G21G17G11G23
  18279546.551   -12748116.198 5  -9678937.44221         7.750           0.125
  16096567.590   -26557680.667 6 -20402251.28622        19.250           1.781
  15907688.481   -27010288.080 7 -21046973.59823        24.250           2.563
  18607975.426    -3081419.756 5  -2035796.06821        10.500           0.375
  14709464.246   -49669063.358 7 -38276175.79923        26.250           2.844
 91  7 26  3 39 14.9800000  0  5G 3G21G17G11G23
  18283942.192   -12725012.061 5  -9660934.26721         7.750           0.094
  16082814.074   -26629964.176 7 -20458576.06422        20.250           1.750
  15906241.043   -27017889.503 7 -21052896.79723        24.000           2.594
  18590304.395    -3174291.917 5  -2108163.92121        10.500           0.313
  14703895.317   -49698331.565 7 -38298982.19323        26.000           2.813
 91  7 26  3 39 29.9800000  0  5G 3G21G17G11G23
  18288350.317   -12701843.534 5  -9642880.93221         7.750           0.094
  16069072.910   -26702164.453 6 -20514835.98922        19.500           1.813
  15904808.926   -27025414.357 7 -21058760.32922        23.750           2.438
  18572639.168    -3267127.943 5  -2180503.62021        10.750           0.313
  14698344.676   -49727500.982 7 -38321711.60823        26.000           2.781
 91  7 26  3 39 44.9800000  0  5G 3G21G17G11G23
  18292771.934   -12678609.843 5  -9624776.80721         7.500           0.063
  16055350.277   -26774280.249 7 -20571030.07722        20.000           1.844
  15903393.660   -27032861.427 7 -21064563.25423        24.000           2.500
  18554979.590    -3359926.272 5  -2252813.96421        10.750           0.281
  14692811.934   -49756570.530 7 -38344363.20323        25.750           2.844
 91  7 26  3 39 59.9800000  0  5G 3G21G17G11G23
  18297205.027   -12655315.640 4  -9606625.46821         6.750           0.031
  16041642.606   -26846315.965 7 -20627161.77222        20.250           1.781
  15901989.160   -27040235.204 7 -21070309.06322        23.750           2.438
  18537322.395    -3452690.874 5  -2325098.01521        10.750           0.344
  14687297.801   -49785544.806 7 -38366940.55523        25.500           2.906
 91  7 26  3 40 14.9800000  0  5G 3G21G17G11G23
  18301646.965   -12631958.987 5  -9588425.56121         7.500           0.063
  16027950.918   -26918269.068 7 -20683229.08922        20.250           1.875
  15900600.067   -27047533.524 7 -21075996.08823        23.500           2.594
  18519677.137    -3545419.034 5  -2397353.65521        10.500           0.469
  14681803.848   -49814421.501 7 -38389441.87923        26.000           2.875
 91  7 26  3 40 29.9800000  0  5G 3G21G17G11G23
  18306108.559   -12608538.725 5  -9570176.09221         7.750           0.125
  16014274.957   -26990138.285 7 -20739231.03922        20.250           1.875
  15899226.043   -27054755.008 7 -21081623.22823        23.500           2.563
  18502041.395    -3638109.267 5  -2469579.75621        10.500           0.375
  14676327.863   -49843199.506 7 -38411866.29423        25.750           3.000
 91  7 26  3 40 44.9800000  0  5G 3G21G17G11G23
  18310576.442   -12585058.621 5  -9551879.92121         8.000           0.094
  16000612.918   -27061926.818 7 -20795170.11822        20.250           1.656
  15897865.918   -27061902.648 7 -21087192.82922        23.250           2.313
  18484412.824    -3730764.384 5  -2541778.51421        10.500           0.313
  14670870.074   -49871882.113 7 -38434216.37723        26.250           2.594
 91  7 26  3 40 59.9800000  0  5G 3G21G17G11G23
  18315055.145   -12561521.924 5  -9533539.70621         8.000           0.094
  15986967.246   -27133637.688 7 -20851048.68822        20.500           1.938
  15896519.418   -27068979.975 7 -21092707.64323        23.000           2.563
  18466782.137    -3823387.170 5  -2613952.05421         9.500           0.469
  14665429.957   -49900472.651 7 -38456494.71723        26.500           2.875
 91  7 26  3 41 14.9800000  0  5G 3G21G17G11G23
  18319542.309   -12537922.243 4  -9515150.44221         7.000           0.125
  15973336.981   -27205264.076 7 -20906861.42422        20.250           1.781
  15895185.957   -27075980.038 7 -21098162.24422        23.250           2.469
  18449164.160    -3915970.456 5  -2686094.81721         9.500           0.406
  14660006.965   -49928964.402 7 -38478696.07723        26.500           2.813
 91  7 26  3 41 29.9800000  0  5G 3G21G17G11G23
  18324047.434   -12514261.116 4  -9496713.25021         7.000           0.063
  15959721.949   -27276807.024 7 -20962609.13722        20.500           1.813
  15893868.965   -27082904.011 7 -21103557.56023        23.500           2.563
  18431556.035    -4008515.092 5  -2758207.43921        10.000           0.500
  14654603.801   -49957358.864 7 -38500821.62923        26.000           2.938
 91  7 26  3 41 44.9800000  0  4G21G17G11G23
  15946124.535   -27348261.699 7 -21018288.07422        20.250           1.813
  15892566.809   -27089747.084 7 -21108889.83323        23.500           2.563
  18413955.137    -4101015.955 5  -2830285.98321        10.500           0.500
  14649219.981   -49985651.395 7 -38522867.75523        26.500           3.000
 91  7 26  3 41 59.9800000  0  4G21G17G11G23
  15932543.199   -27419632.064 7 -21073901.30622        20.000           1.875
  15891281.277   -27096513.383 7 -21114162.28323        23.750           2.531
  18396361.582    -4193476.553 5  -2902333.15321        10.250           0.438
  14643854.871   -50013845.959 7 -38544837.54623        26.000           2.906
 91  7 26  3 42 14.9800000  0  4G21G17G11G23
  15918976.684   -27490927.241 7 -21129455.95322        20.000           1.906
  15890003.738   -27103212.188 7 -21119382.14723        23.500           2.500
  18378768.207    -4285905.869 5  -2974355.94821        10.000           0.406
  14638506.426   -50041951.939 7 -38566738.30923        26.000           2.906
 91  7 26  3 42 29.9800000  0  4G21G17G11G23
  15905424.067   -27562139.866 7 -21184946.27122        20.000           1.750
  15888744.395   -27109836.038 7 -21124543.59822        23.750           2.438
  18361184.223    -4378296.157 5  -3046348.31621         9.750           0.375
  14633177.082   -50069962.172 7 -38588564.46323        26.000           2.969
 91  7 26  3 42 44.9800000  0  4G21G17G11G23
  15891889.035   -27633267.779 7 -21240370.58522        20.250           1.563
  15887498.129   -27116383.173 7 -21129645.27222        24.000           2.250
  18343612.996    -4470645.118 5  -3118308.49521         9.500           0.281
  14627866.442   -50097874.977 7 -38610314.70223        26.500           2.750
 91  7 26  3 42 59.9800000  0  4G21G17G11G23
  15878371.707   -27704307.077 7 -21295725.85122        20.000           1.594
  15886267.192   -27122849.636 7 -21134684.09022        24.000           2.344
  18326050.465    -4562948.469 5  -3190233.12421         9.750           0.344
  14622573.293   -50125686.370 7 -38631985.91323        26.000           2.844
 91  7 26  3 43 14.9800000  0  4G21G17G11G23
  15864868.692   -27775268.485 7 -21351020.42322        20.500           1.688
  15885050.426   -27129246.269 7 -21139668.49022        23.500           2.406
  18308489.652    -4655216.637 5  -3262130.34021         9.500           0.469
  14617298.254   -50153407.123 7 -38653586.50223        26.000           2.938
 91  7 26  3 43 29.9800000  0  4G21G17G11G23
  15851380.559   -27846148.375 7 -21406251.47222        20.000           1.750
  15883848.051   -27135569.255 7 -21144595.50522        23.500           2.438
  18290939.293    -4747445.629 5  -3333997.03421        10.250           0.344
  14612040.699   -50181034.035 7 -38675113.96423        26.000           2.906
 91  7 26  3 43 44.9800000  0  4G21G17G11G23
  15837908.129   -27916949.952 7 -21461421.50322        20.500           1.719
  15882657.832   -27141822.292 7 -21149468.01322        22.750           2.375
  18273398.254    -4839638.529 5  -3405835.61321        10.500           0.438
  14606798.731   -50208570.581 7 -38696571.01123        26.000           3.000
 91  7 26  3 43 59.9800000  0  4G21G17G11G23
  15824449.746   -27987663.733 7 -21516523.11822        20.250           1.594
  15881483.465   -27147996.014 7 -21154278.71922        23.250           2.406
  18255866.363    -4931785.526 5  -3477638.42721        10.500           0.375
  14601577.160   -50236007.373 7 -38717950.32823        25.500           2.938
 91  7 26  3 44 14.9800000  0  4G21G17G11G23
  15811010.270   -28058295.519 7 -21571560.84622        20.500           1.719
  15880320.020   -27154096.053 7 -21159031.99922        22.750           2.406
  18238333.582    -5023892.059 5  -3549409.70521        10.250           0.313
  14596374.910   -50263350.499 7 -38739256.66323        25.500           2.938
 91  7 26  3 44 29.9800000  0  4G21G17G11G23
  15797586.004   -28128846.263 6 -21626535.42422        19.750           1.750
  15879174.598   -27160123.569 7 -21163728.77723        23.000           2.531
  18220815.567    -5115958.798 5  -3621149.97621        11.000           0.313
  14591190.988   -50290601.015 7 -38760490.83023        25.750           3.031
 91  7 26  3 44 44.9800000  0  4G21G17G11G23
  15784173.981   -28199313.467 7 -21681444.89522        20.000           1.656
  15878043.402   -27166076.169 7 -21168367.17422        23.250           2.344
  18203304.207    -5207983.124 5  -3692857.21621        10.500           0.375
  14586021.590   -50317756.821 7 -38781651.20223        25.750           3.031
 91  7 26  3 44 59.9800000  0  4G21G17G11G23
  15770780.652   -28269702.714 7 -21736293.64022        20.000           1.719
  15876922.621   -27171959.378 7 -21172951.50922        23.500           2.375
  18185799.129    -5299970.166 5  -3764535.38321        10.500           0.406
  14580871.871   -50344823.547 7 -38802742.16023        25.500           2.906
 91  7 26  3 45 14.9800000  0  4G21G17G11G23
  15757403.660   -28340010.666 7 -21791079.02222        20.750           1.688
  15875817.512   -27177769.933 7 -21177479.23122        23.500           2.406
  18168300.582    -5391916.391 5  -3836181.76021        10.750           0.344
  14575738.387   -50371798.311 7 -38823761.45923        25.250           3.156
 91  7 26  3 45 29.9800000  0  4G21G17G11G23
  15744036.809   -28410233.941 6 -21845798.42522        19.500           1.688
  15874726.152   -27183504.630 7 -21181947.83222        23.750           2.344
  18150816.301    -5483817.997 5  -3907793.35821        11.250           0.438
  14570624.035   -50398677.699 7 -38844706.43123        26.000           3.125
 91  7 26  3 45 44.9800000  0  4G21G17G11G23
  15730690.809   -28480372.946 7 -21900452.16722        20.250           1.844
  15873650.043   -27189164.047 7 -21186357.77422        23.250           2.250
  18133337.840    -5575675.178 5  -3979370.33921        11.500           0.375
  14565525.738   -50425462.267 7 -38865577.51323        25.750           3.156
 91  7 26  3 45 59.9800000  0  4G21G17G11G23
  15717357.535   -28550442.085 7 -21955051.46522        20.250           1.906
  15872584.238   -27194762.363 7 -21190720.11022        23.750           2.375
  18115859.887    -5667501.899 5  -4050923.61421        11.250           0.344
  14560445.027   -50452166.835 7 -38886386.26323        26.000           3.281
 91  7 26  3 46 14.9800000  0  4G21G17G11G23
  15704038.574   -28620426.615 7 -22009584.83122        20.250           1.906
  15871532.168   -27200285.166 7 -21195023.59922        23.250           2.250
  18098394.410    -5759283.154 5  -4122441.43921        11.000           0.375
  14555381.324   -50478776.768 7 -38907121.27323        26.000           3.188
 91  7 26  3 46 29.9800000  0  4G21G17G11G23
  15690736.848   -28690327.716 7 -22064053.19522        20.500           1.969
  15870496.027   -27205733.548 7 -21199269.10422        22.750           2.344
  18080938.293    -5851019.841 5  -4193924.55221        11.000           0.375
  14550336.051   -50505293.243 7 -38927783.45523        26.250           3.156
 91  7 26  3 46 44.9800000  0  4G21G17G11G23
  15677449.559   -28760150.151 7 -22118460.25422        20.500           1.906
  15869471.371   -27211112.620 7 -21203460.60022        22.750           2.219
  18063485.832    -5942716.384 5  -4265376.38521        10.500           0.281
  14545306.442   -50531721.404 7 -38948376.82323        26.250           3.188
 91  7 26  3 46 59.9800000  0  4G21G17G11G23
  15664177.887   -28829895.002 7 -22172806.85822        20.750           1.969
  15868460.801   -27216423.533 7 -21207598.97422        22.500           2.219
  18046043.293    -6034373.557 5  -4336797.50521        10.750           0.313
  14540293.801   -50558062.551 7 -38968902.38823        26.250           3.188
 91  7 26  3 47 14.9800000  0  4G21G17G11G23
  15650922.824   -28899559.717 7 -22227091.02722        21.000           2.000
  15867464.535   -27221663.893 7 -21211682.38422        22.750           2.219
  18028614.957    -6125988.480 5  -4408185.74221        10.750           0.406
  14535298.020   -50584314.458 7 -38989358.41723        26.250           3.250
 91  7 26  3 47 29.9800000  0  4G21G17G11G23
  15637681.793   -28969146.459 7 -22281314.43822        21.500           2.000
  15866480.051   -27226835.822 7 -21215712.47122        22.500           2.344
  18011180.512    -6217563.130 5  -4479542.56621        10.750           0.375
  14530319.473   -50610479.360 7 -39009746.64723        26.250           3.219
 91  7 26  3 47 44.9800000  0  4G21G17G11G23
  15624453.567   -29038652.384 7 -22335474.86922        21.000           2.000
  15865510.043   -27231936.200 7 -21219686.79922        22.750           2.188
  17993769.574    -6309094.130 5  -4550865.39921        11.250           0.344
  14525357.801   -50636554.565 7 -39030064.98823        26.500           3.125
 91  7 26  3 47 59.9800000  0  4G21G17G11G23
  15611243.856   -29108076.875 7 -22389571.85122        21.250           2.000
  15864552.652   -27236964.977 7 -21223605.32922        22.500           2.375
  17976362.543    -6400580.770 6  -4622153.65721        12.000           0.469
  14520411.871   -50662539.749 7 -39050313.18523        26.000           3.250
 91  7 26  3 48 14.9800000  0  4G21G17G11G23
  15598047.027   -29177416.904 7 -22443603.02122        21.000           1.969
  15863611.012   -27241919.120 7 -21227465.71222        23.000           2.375
  17958950.606    -6492019.654 5  -4693404.70521        11.000           0.500
  14515485.777   -50688431.848 7 -39070488.84923        26.250           3.094
 91  7 26  3 48 29.9800000  0  4G21G17G11G23
  15584868.293   -29246677.212 7 -22497572.06422        21.000           1.969
  15862681.160   -27246803.507 7 -21231271.73422        22.500           2.188
  17941568.934    -6583415.226 5  -4764621.99121        11.500           0.438
  14510573.715   -50714236.069 7 -39090596.03623        26.000           3.125
 91  7 26  3 48 44.9800000  0  4G21G17G11G23
  15571702.832   -29315857.353 7 -22551478.63722        20.750           1.969
  15861763.582   -27251617.641 7 -21235023.01622        22.500           2.125
  17924181.332    -6674766.757 5  -4835804.97821        11.750           0.469
  14505680.910   -50739952.060 7 -39110634.47023        26.000           3.156
 91  7 26  3 48 59.9800000  0  4G21G17G11G23
  15558552.613   -29384958.586 7 -22605323.72522        21.000           1.969
  15860860.949   -27256362.990 7 -21238720.69722        22.250           2.094
  17906804.824    -6766075.170 5  -4906954.34821        11.500           0.563
  14500804.082   -50765581.345 7 -39130605.33823        26.000           3.125
 91  7 26  3 49 14.9800000  0  4G21G17G11G23
  15545419.926   -29453975.665 7 -22659103.25022        21.000           1.938
  15859972.871   -27261034.257 7 -21242360.65422        22.000           2.063
  17889444.410    -6857334.811 6  -4978065.72221        12.250           0.531
  14495944.832   -50791118.835 7 -39150504.67523        26.000           3.219
 91  7 26  3 49 29.9790000  0  4G21G17G11G23
  15532302.468   -29522913.535 7 -22712821.03522        21.250           1.938
  15859095.726   -27265640.750 7 -21245950.13522        22.500           2.000
  17872079.413    -6948548.857 6  -5049141.57621        12.000           0.500
  14491099.632   -50816572.617 7 -39170338.79123        25.750           3.094
 91  7 26  3 49 44.9790000  0  4G21G17G11G23
  15519197.515   -29591775.276 7 -22766479.51022        21.500           1.844
  15858233.718   -27270177.303 7 -21249485.12122        22.500           2.031
  17854735.460    -7039723.040 6  -5120186.37121        12.000           0.531
  14486272.460   -50841940.235 7 -39190105.76023        25.500           3.063
 91  7 26  3 49 59.9790000  0  4G21G17G11G23
  15506109.202   -29660556.044 7 -22820074.88622        21.250           1.938
  15857382.234   -27274643.572 7 -21252965.33322        21.750           1.875
  17837388.921    -7130850.884 6  -5191195.03721        12.000           0.594
  14481462.999   -50867219.795 7 -39209804.11923        26.000           3.063
 91  7 26  3 50 14.9790000  0  4G21G17G11G23
  15493036.288   -29729253.681 7 -22873605.48422        21.250           1.938
  15856547.554   -27279037.190 7 -21256388.93222        22.000           1.906
  17820063.265    -7221929.875 6  -5262165.63721        12.000           0.469
  14476669.577   -50892409.386 7 -39229432.36923        26.250           3.125
 91  7 26  3 50 29.9790000  0  4G21G17G11G23
  15479979.944   -29797865.671 7 -22927069.33822        21.250           2.031
  15855724.288   -27283355.510 7 -21259753.87022        21.750           2.000
  17802737.734    -7312957.081 6  -5333095.90721        12.250           0.625
  14471894.616   -50917506.770 7 -39248988.76623        26.500           3.094
 91  7 26  3 50 44.9790000  0  4G21G17G11G23
  15466938.304   -29866399.000 7 -22980471.90222        20.750           1.938
  15854917.257   -27287605.590 7 -21263065.62722        22.250           2.000
  17785428.648    -7403939.084 6  -5403990.92121        12.250           0.469
  14467132.718   -50942518.851 7 -39268478.68323        26.250           3.031
 91  7 26  3 50 59.9790000  0  4G21G17G11G23
  15453913.304   -29934850.788 7 -23033810.92622        21.250           2.000
  15854121.421   -27291784.893 7 -21266322.23622        22.250           2.000
  17768122.882    -7494872.692 6  -5474848.24221        12.000           0.531
  14462390.616   -50967443.272 7 -39287900.30423        26.000           3.156
 91  7 26  3 51 14.9790000  0  4G21G17G11G23
  15440902.812   -30003222.352 7 -23087087.44222        21.250           2.031
  15853339.632   -27295894.836 7 -21269524.78822        22.250           2.000
  17750823.741    -7585759.031 5  -5545668.72321        11.750           0.469
  14457664.359   -50992281.481 7 -39307254.75623        26.000           3.125
 91  7 26  3 51 29.9790000  0  4G21G17G11G23
  15427907.523   -30071510.674 7 -23140299.08722        21.000           2.125
  15852570.077   -27299932.426 7 -21272670.98122        22.000           2.031
  17733541.585    -7676594.637 5  -5616449.66621        11.750           0.500
  14452954.866   -51017030.626 7 -39326539.80523        26.250           3.094
 91  7 26  3 51 44.9790000  0  4G21G17G11G23
  15414927.710   -30139718.285 7 -23193447.84922        21.250           2.031
  15851815.757   -27303900.314 7 -21275762.84622        22.250           2.094
  17716262.718    -7767381.830 5  -5687192.88421        11.750           0.531
  14448262.132   -51041693.607 7 -39345757.70623        26.000           3.031
 91  7 26  3 51 59.9790000  0  4G21G17G11G23
  15401963.741   -30207847.487 7 -23246535.51322        21.750           2.125
  15851073.874   -27307800.841 7 -21278802.21922        22.250           2.031
  17698999.210    -7858122.639 6  -5757899.96821        12.500           0.406
  14443584.319   -51066272.762 7 -39364910.29023        25.750           3.094
 91  7 26  3 52 14.9790000  0  4G21G17G11G23
  15389013.624   -30275897.924 7 -23299561.80322        21.500           2.125
  15850343.632   -27311633.764 7 -21281788.92022        22.250           2.031
  17681738.116    -7948816.241 6  -5828570.27321        12.000           0.531
  14438923.843   -51090767.752 7 -39383997.29423        26.250           3.094
 91  7 26  3 52 29.9790000  0  4G21G17G11G23
  15376078.788   -30343868.716 7 -23352526.03422        21.500           2.156
  15849628.015   -27315398.285 7 -21284722.31922        22.000           2.094
  17664492.507    -8039461.488 5  -5899202.88221        11.750           0.563
  14434276.234   -51115178.137 7 -39403018.37023        26.000           3.031
 91  7 26  3 52 44.9790000  0  4G21G17G11G23
  15363160.874   -30411754.973 7 -23405424.39322        21.500           2.219
  15848924.851   -27319089.675 7 -21287598.72622        21.750           2.094
  17647249.437    -8130053.122 5  -5969793.71921        11.750           0.563
  14429649.163   -51139498.950 7 -39421969.65123        25.750           3.156
 91  7 26  3 52 59.9790000  0  4G21G17G11G23
  15350257.585   -30479560.295 7 -23458259.67722        21.500           2.281
  15848236.491   -27322711.560 7 -21290420.96922        21.500           1.969
  17630021.007    -8220594.399 5  -6040345.31021        11.500           0.563
  14425038.148   -51163734.132 7 -39440854.21023        26.250           3.031
 91  7 26  3 53 14.9790000  0  4G21G17G11G23
  15337371.694   -30547280.024 7 -23511028.27222        22.000           2.219
  15847560.038   -27326259.359 7 -21293185.49422        21.250           2.063
  17612799.554    -8311080.326 6  -6110853.77921        12.250           0.531
  14420443.187   -51187879.189 7 -39459668.53223        26.250           3.156
 91  7 26  3 53 29.9790000  0  4G21G17G11G23
  15324502.398   -30614914.741 7 -23563730.61722        21.750           2.313
  15846898.234   -27329733.745 7 -21295892.82222        21.500           2.031
  17595593.921    -8401511.249 6  -6181319.39521        12.500           0.531
  14415864.515   -51211935.100 7 -39478413.39623        25.750           3.063
 91  7 26  3 53 44.9790000  0  4G21G17G11G23
  15311648.632   -30682460.477 7 -23616363.63922        21.750           2.313
  15846253.210   -27333130.765 7 -21298539.86322        20.750           1.906
  17578394.679    -8491882.919 6  -6251738.84721        12.250           0.625
  14411307.234   -51235898.073 7 -39497085.84623        26.250           3.125
 91  7 26  3 53 59.9790000  0  4G21G17G11G23
  15298806.694   -30749927.915 7 -23668935.63622        21.250           2.281
  15845617.609   -27336461.368 7 -21301135.15622        21.250           1.875
  17561209.437    -8582205.571 6  -6322120.08521        12.500           0.625
  14406760.569   -51259778.861 7 -39515694.25523        25.750           3.031
 91  7 26  3 54 14.9790000  0  4G21G17G11G23
  15285986.390   -30817311.448 7 -23721442.26122        21.500           2.344
  15844997.991   -27339719.799 7 -21303674.20122        21.000           1.906
  17544030.515    -8672473.283 6  -6392458.51721        12.500           0.531
  14402234.234   -51283572.070 7 -39534234.41823        26.000           3.063
 91  7 26  3 54 29.9790000  0  4G21G17G11G23
  15273179.765   -30884614.424 7 -23773886.11422        22.000           2.375
  15844392.187   -27342909.838 7 -21306159.96222        21.250           1.906
  17526863.069    -8762689.159 6  -6462756.55521        12.250           0.563
  14397720.663   -51307281.374 7 -39552709.19523        25.500           3.125
 91  7 26  3 54 44.9790000  0  4G21G17G11G23
  15260387.460   -30951836.367 7 -23826266.81822        22.000           2.250
  15843797.726   -27346030.916 7 -21308591.98522        21.000           1.750
  17509705.859    -8852852.313 6  -6533013.51621        12.500           0.563
  14393226.069   -51330906.482 7 -39571118.37423        25.750           3.125
 91  7 26  3 54 59.9790000  0  4G21G17G11G23
  15247609.265   -31018977.305 7 -23878584.41222        21.750           2.313
  15843217.788   -27349083.178 7 -21310970.38322        21.250           2.000
  17492562.249    -8942962.481 6  -6603229.18321        12.500           0.531
  14388747.171   -51354447.544 7 -39589462.05523        26.000           3.063
 91  7 26  3 55 14.9790000  0  4G21G17G11G23
  15234849.069   -31086041.328 7 -23930842.07422        22.250           2.219
  15842649.984   -27352070.724 7 -21313298.36122        21.000           1.938
  17475420.984    -9033023.333 6  -6673406.43721        12.750           0.531
  14384282.640   -51377908.754 7 -39607743.51523        25.750           3.000
 91  7 26  3 55 29.9790000  0  4G21G17G11G23
  15222101.148   -31153021.575 7 -23983034.44522        21.750           2.219
  15842092.960   -27354986.730 7 -21315570.58922        21.000           1.844
  17458291.038    -9123027.754 6  -6743539.70821        13.000           0.656
  14379832.749   -51401283.445 7 -39625957.55923        25.500           3.000
 91  7 26  3 55 44.9790000  0  4G21G17G11G23
  15209374.187   -31219915.410 7 -24035159.49322        22.250           2.156
  15841553.890   -27357828.603 7 -21317785.04822        21.000           1.844
  17441177.874    -9212972.653 6  -6813626.61021        13.000           0.719
  14375401.741   -51424569.140 7 -39644102.25323        25.500           2.938
 91  7 26  3 55 59.9790000  0  4G21G17G11G23
  15196657.898   -31286730.842 7 -24087223.44422        21.750           2.156
  15841023.890   -27360604.467 7 -21319948.06122        21.250           1.969
  17424069.327    -9302865.824 6  -6883673.19821        13.000           0.531
  14370986.905   -51447774.084 7 -39662184.02523        25.250           2.875
 91  7 26  3 56 14.9790000  0  4G21G17G11G23
  15183957.038   -31353466.111 7 -24139224.93722        21.000           2.188
  15840510.319   -27363312.838 7 -21322058.49522        21.250           1.938
  17406974.921    -9392705.219 6  -6953677.87921        13.250           0.688
  14366586.905   -51470896.684 7 -39680201.63323        25.500           2.938
 91  7 26  3 56 29.9790000  0  4G21G17G11G23
  15171275.960   -31420115.761 7 -24191159.71522        21.500           2.156
  15840008.913   -27365947.882 7 -21324111.78922        20.750           1.969
  17389890.702    -9482484.815 6  -7023635.97121        13.250           0.688
  14362202.694   -51493931.501 7 -39698150.84123        25.500           2.906
 91  7 26  3 56 44.9790000  0  4G21G17G11G23
  15158608.319   -31486680.250 7 -24243028.13322        21.000           2.156
  15839521.468   -27368510.473 7 -21326108.63322        21.000           1.844
  17372817.749    -9572204.760 6  -7093547.57721        13.750           0.719
  14357836.648   -51516879.419 7 -39716032.32823        25.500           3.063
 91  7 26  3 56 59.9790000  0  4G21G17G11G23
  15145958.710   -31553161.081 7 -24294831.36322        21.250           2.094
  15839046.913   -27371002.390 7 -21328050.39422        21.250           1.906
  17355755.819    -9661866.294 6  -7163413.67921        13.750           0.656
  14353487.257   -51539742.345 7 -39733847.59823        25.500           2.906
